[[{"header":{"parameterUnit":"m.s-1","parameterCategory":1,"la1":30.6,"la2":28.766,"lo1":-90.7593,"lo2":-88.6598,"dy":0.0162,"dx":0.0183,"nx":116,"ny":114,"refTime":"2023-11-09T18:00:00:Z","depth":0,"parameterNumber":2,"parameterNumberName":"U-component_of_WINDS"},"data":[0.0,0.0,0.0,0.0,0.0,0.0,0.0,0.0,0.0,0.0,0.0,0.0,0.0,0.0,0.0,0.0,0.0,0.0,0.0,0.0,0.0,0.0,0.0,0.0,0.0,0.0,0.0,0.0,0.0,0.0,0.0,0.0,0.0,0.0,0.0,0.0,0.0,0.0,0.0,0.0,0.0,0.0,0.0,0.0,0.0,0.0,0.0,0.0,0.0,0.0,0.0,0.0,0.0,0.0,0.0,0.0,0.0,0.0,0.0,0.0,0.0,0.0,0.0,0.0,0.0,0.0,0.0,0.0,0.0,0.0,0.0,0.0,0.0,0.0,0.0,0.0,0.0,0.0,0.0,0.0,0.0,0.0,0.0,0.0,0.0,0.0,0.0,0.0,0.0,0.0,0.0,0.0,0.0,0.0,0.0,0.0,0.0,0.0,0.0,0.0,0.0,0.0,0.0,0.0,0.0,0.0,0.0,0.0,0.0,0.0,0.0,0.0,0.0,0.0,0.0,0.0,0.0,0.0,0.0,0.0,0.0,0.0,0.0,0.0,0.0,0.0,0.0,0.0,0.0,0.0,0.0,0.0,0.0,0.0,0.0,0.0,0.0,0.0,0.0,0.0,0.0,0.0,0.0,0.0,0.0,0.0,0.0,0.0,0.0,0.0,0.0,0.0,0.0,0.0,0.0,0.0,0.0,0.0,0.0,0.0,0.0,0.0,0.0,0.0,0.0,0.0,0.0,0.0,0.0,0.0,0.0,0.0,0.0,0.0,0.0,0.0,0.0,0.0,0.0,0.0,0.0,0.0,0.0,0.0,0.0,0.0,0.0,0.0,0.0,0.0,0.0,0.0,0.0,0.0,0.0,0.0,0.0,0.0,0.0,0.0,0.0,0.0,0.0,0.0,0.0,0.0,0.0,0.0,0.0,0.0,0.0,0.0,0.0,0.0,0.0,0.0,0.0,0.0,0.0,0.0,0.0,0.0,0.0,0.0,0.0,0.0,0.0,0.0,0.0,0.0,0.0,0.0,0.0,0.0,0.0,0.0,0.0,0.0,0.0,0.0,0.0,0.0,0.0,0.0,0.0,0.0,0.0,0.0,0.0,0.0,0.0,0.0,0.0,0.0,0.0,0.0,0.0,0.0,0.0,0.0,0.0,0.0,0.0,0.0,0.0,0.0,0.0,0.0,0.0,0.0,0.0,0.0,0.0,0.0,0.0,0.0,0.0,0.0,0.0,0.0,0.0,0.0,0.0,0.0,0.0,0.0,0.0,0.0,0.0,0.0,0.0,0.0,0.0,0.0,0.0,0.0,0.0,0.0,0.0,0.0,0.0,0.0,0.0,0.0,0.0,0.0,0.0,0.0,0.0,0.0,0.0,0.0,0.0,0.0,0.0,0.0,0.0,0.0,0.0,0.0,0.0,0.0,0.0,0.0,0.0,0.0,0.0,0.0,0.0,0.0,0.0,0.0,0.0,0.0,0.0,0.0,0.0,0.0,0.0,0.0,0.0,0.0,0.0,0.0,0.0,0.0,0.0,0.0,0.0,0.0,0.0,0.0,0.0,0.0,0.0,0.0,0.0,0.0,0.0,0.0,0.0,0.0,0.0,0.0,0.0,0.0,0.0,0.0,0.0,0.0,0.0,0.0,0.0,0.0,0.0,0.0,0.0,0.0,0.0,0.0,0.0,0.0,0.0,0.0,0.0,0.0,0.0,0.0,0.0,0.0,0.0,0.0,0.0,0.0,0.0,0.0,0.0,0.0,0.0,0.0,0.0,0.0,0.0,0.0,0.0,0.0,0.0,0.0,0.0,0.0,0.0,0.0,0.0,0.0,0.0,0.0,0.0,0.0,0.0,0.0,0.0,0.0,0.0,0.0,0.0,0.0,0.0,0.0,0.0,0.0,0.0,0.0,0.0,0.0,0.0,0.0,0.0,0.0,0.0,0.0,0.0,0.0,0.0,0.0,0.0,0.0,0.0,0.0,0.0,0.0,0.0,0.0,0.0,0.0,0.0,0.0,0.0,0.0,0.0,0.0,0.0,0.0,0.0,0.0,0.0,0.0,0.0,0.0,0.0,0.0,0.0,0.0,0.0,0.0,0.0,0.0,0.0,0.0,0.0,0.0,0.0,0.0,0.0,0.0,0.0,0.0,0.0,0.0,0.0,0.0,0.0,0.0,0.0,0.0,0.0,0.0,0.0,0.0,0.0,0.0,0.0,0.0,0.0,0.0,0.0,0.0,0.0,0.0,0.0,0.0,0.0,0.0,0.0,0.0,0.0,0.0,0.0,0.0,0.0,0.0,0.0,0.0,0.0,0.0,0.0,0.0,0.0,0.0,0.0,0.0,0.0,0.0,0.0,0.0,0.0,0.0,0.0,0.0,0.0,0.0,0.0,0.0,0.0,0.0,0.0,0.0,0.0,0.0,0.0,0.0,0.0,0.0,0.0,0.0,0.0,0.0,0.0,0.0,0.0,0.0,0.0,0.0,0.0,0.0,0.0,0.0,0.0,0.0,0.0,0.0,0.0,0.0,0.0,0.0,0.0,0.0,0.0,0.0,0.0,0.0,0.0,0.0,0.0,0.0,0.0,0.0,0.0,0.0,0.0,0.0,0.0,0.0,0.0,0.0,0.0,0.0,0.0,0.0,0.0,0.0,0.0,0.0,0.0,0.0,0.0,0.0,0.0,0.0,0.0,0.0,0.0,0.0,0.0,0.0,0.0,0.0,0.0,0.0,0.0,0.0,0.0,0.0,0.0,0.0,0.0,0.0,0.0,0.0,0.0,0.0,0.0,0.0,0.0,0.0,0.0,0.0,0.0,0.0,0.0,0.0,0.0,0.0,0.0,0.0,0.0,0.0,0.0,0.0,0.0,0.0,0.0,0.0,0.0,0.0,0.0,0.0,0.0,0.0,0.0,0.0,0.0,0.0,0.0,0.0,0.0,0.0,0.0,0.0,0.0,0.0,0.0,0.0,0.0,0.0,0.0,0.0,0.0,0.0,0.0,0.0,0.0,0.0,0.0,0.0,0.0,0.0,0.0,0.0,0.0,0.0,0.0,0.0,0.0,0.0,0.0,0.0,0.0,0.0,0.0,0.0,0.0,0.0,0.0,0.0,0.0,0.0,0.0,0.0,0.0,0.0,0.0,0.0,0.0,0.0,0.0,0.0,0.0,0.0,0.0,0.0,0.0,0.0,0.0,0.0,0.0,0.0,0.0,0.0,0.0,0.0,0.0,0.0,0.0,0.0,0.0,0.0,0.0,0.0,0.0,0.0,0.0,0.0,0.0,0.0,0.0,0.0,0.0,0.0,0.0,0.0,0.0,0.0,0.0,0.0,0.0,0.0,0.0,0.0,0.0,0.0,0.0,0.0,0.0,0.0,0.0,0.0,0.0,0.0,0.0,0.0,0.0,0.0,0.0,0.0,0.0,0.0,0.0,0.0,0.0,0.0,0.0,0.0,0.0,0.0,0.0,0.0,0.0,0.0,0.0,0.0,0.0,0.0,0.0,0.0,0.0,0.0,0.0,0.0,0.0,0.0,0.0,0.0,0.0,0.0,0.0,0.0,0.0,0.0,0.0,0.0,0.0,0.0,0.0,0.0,0.0,0.0,0.0,0.0,0.0,0.0,0.0,0.0,0.0,0.0,0.0,0.0,0.0,0.0,0.0,0.0,0.0,0.0,0.0,0.0,0.0,0.0,0.0,0.0,0.0,0.0,0.0,0.0,0.0,0.0,0.0,0.0,0.0,0.0,0.0,0.0,0.0,0.0,0.0,0.0,0.0,0.0,0.0,0.0,0.0,0.0,0.0,0.0,0.0,0.0,0.0,0.0,0.0,0.0,0.0,0.0,0.0,0.0,0.0,0.0,0.0,0.0,0.0,0.0,0.0,0.0,0.0,0.0,0.0,0.0,0.0,0.0,0.0,0.0,0.0,0.0,0.0,0.0,0.0,0.0,0.0,0.0,0.0,0.0,0.0,0.0,0.0,0.0,0.0,0.0,0.0,0.0,0.0,0.0,0.0,0.0,0.0,0.0,0.0,0.0,0.0,0.0,0.0,0.0,0.0,0.0,0.0,0.0,0.0,0.0,0.0,0.0,0.0,0.0,0.0,0.0,0.0,0.0,0.0,0.0,0.0,0.0,0.0,0.0,0.0,0.0,0.0,0.0,0.0,0.0,0.0,0.0,0.0,0.0,0.0,0.0,0.0,0.0,0.0,0.0,0.0,0.0,0.0,0.0,0.0,0.0,0.0,0.0,0.0,0.0,0.0,0.0,0.0,0.0,0.0,0.0,0.0,0.0,0.0,0.0,0.0,0.0,0.0,0.0,0.0,0.0,0.0,0.0,0.0,0.0,0.0,0.0,0.0,0.0,0.0,0.0,0.0,0.0,0.0,0.0,0.0,0.0,0.0,0.0,0.0,0.0,0.0,0.0,0.0,0.0,0.0,0.0,0.0,0.0,0.0,0.0,0.0,0.0,0.0,0.0,0.0,0.0,0.0,0.0,0.0,0.0,0.0,0.0,0.0,0.0,0.0,0.0,0.0,0.0,0.0,0.0,0.0,0.0,0.0,0.0,0.0,0.0,0.0,0.0,0.0,0.0,0.0,0.0,0.0,0.0,0.0,0.0,0.0,0.0,0.0,0.0,0.0,0.0,0.0,0.0,0.0,0.0,0.0,0.0,0.0,0.0,0.0,0.0,0.0,0.0,0.0,0.0,0.0,0.0,0.0,0.0,0.0,0.0,0.0,0.0,0.0,0.0,0.0,0.0,0.0,0.0,0.0,0.0,0.0,0.0,0.0,0.0,0.0,0.0,0.0,0.0,0.0,0.0,0.0,0.0,0.0,0.0,0.0,0.0,0.0,0.0,0.0,0.0,0.0,0.0,0.0,0.0,0.0,0.0,0.0,0.0,0.0,0.0,0.0,0.0,0.0,0.0,0.0,0.0,0.0,0.0,0.0,0.0,0.0,0.0,0.0,0.0,0.0,0.0,0.0,0.0,0.0,0.0,0.0,0.0,0.0,0.0,0.0,0.0,0.0,0.0,0.0,0.0,0.0,0.0,0.0,0.0,0.0,0.0,0.0,0.0,0.0,0.0,0.0,0.0,0.0,0.0,0.0,0.0,0.0,0.0,0.0,0.0,0.0,0.0,0.0,0.0,0.0,0.0,0.0,0.0,0.0,0.0,0.0,0.0,0.0,0.0,0.0,0.0,0.0,0.0,0.0,0.0,0.0,0.0,0.0,0.0,0.0,0.0,0.0,0.0,0.0,0.0,0.0,0.0,0.0,0.0,0.0,0.0,0.0,0.0,0.0,0.0,0.0,0.0,0.0,0.0,0.0,0.0,0.0,0.0,0.0,0.0,0.0,0.0,0.0,0.0,0.0,0.0,0.0,0.0,0.0,0.0,0.0,0.0,0.0,0.0,0.0,0.0,0.0,0.0,0.0,0.0,0.0,0.0,0.0,0.0,0.0,0.0,0.0,0.0,0.0,0.0,0.0,0.0,0.0,0.0,0.0,0.0,0.0,0.0,0.0,0.0,0.0,0.0,0.0,0.0,0.0,0.0,0.0,0.0,0.0,0.0,0.0,0.0,0.0,0.0,0.0,0.0,0.0,0.0,0.0,0.0,0.0,0.0,0.0,0.0,0.0,0.0,0.0,0.0,0.0,0.0,0.0,0.0,0.0,0.0,0.0,0.0,0.0,0.0,0.0,0.0,0.0,0.0,0.0,0.0,0.0,0.0,0.0,0.0,0.0,0.0,0.0,0.0,0.0,0.0,0.0,0.0,0.0,0.0,0.0,0.0,0.0,0.0,0.0,0.0,0.0,0.0,0.0,0.0,0.0,0.0,0.0,0.0,0.0,0.0,0.0,0.0,0.0,0.0,0.0,0.0,0.0,0.0,0.0,0.0,0.0,0.0,0.0,0.0,0.0,0.0,0.0,0.0,0.0,0.0,0.0,0.0,0.0,0.0,0.0,0.0,0.0,0.0,0.0,0.0,0.0,0.0,0.0,0.0,0.0,0.0,0.0,0.0,0.0,0.0,0.0,0.0,0.0,0.0,0.0,0.0,0.0,0.0,0.0,0.0,0.0,0.0,0.0,0.0,3.7115,3.6804,0.0,0.0,0.0,0.0,0.0,0.0,0.0,0.0,0.0,0.0,0.0,0.0,0.0,0.0,0.0,0.0,0.0,0.0,0.0,0.0,0.0,0.0,0.0,0.0,0.0,0.0,0.0,0.0,0.0,0.0,0.0,0.0,0.0,0.0,0.0,0.0,0.0,0.0,3.5982,3.5982,3.6016,3.6674,3.664,3.6084,0.0,0.0,0.0,0.0,0.0,0.0,0.0,0.0,0.0,0.0,0.0,0.0,0.0,0.0,0.0,0.0,0.0,0.0,0.0,0.0,0.0,0.0,0.0,0.0,0.0,0.0,0.0,0.0,0.0,0.0,0.0,0.0,0.0,0.0,0.0,0.0,0.0,0.0,0.0,0.0,0.0,0.0,0.0,0.0,0.0,0.0,0.0,0.0,0.0,0.0,0.0,0.0,0.0,0.0,0.0,0.0,0.0,0.0,0.0,0.0,0.0,0.0,0.0,0.0,0.0,0.0,0.0,0.0,0.0,0.0,3.7674,3.7467,0.0,0.0,0.0,0.0,0.0,0.0,0.0,0.0,0.0,0.0,0.0,0.0,0.0,0.0,0.0,0.0,0.0,0.0,0.0,0.0,0.0,0.0,0.0,0.0,3.5982,3.5982,3.5982,3.5982,0.0,0.0,0.0,0.0,0.0,0.0,0.0,3.5982,3.5982,3.5982,3.5982,3.5982,3.6016,3.7193,3.7227,3.6471,3.8805,0.0,0.0,0.0,0.0,0.0,0.0,0.0,0.0,0.0,0.0,0.0,0.0,0.0,0.0,0.0,0.0,0.0,0.0,0.0,0.0,0.0,0.0,0.0,0.0,0.0,0.0,0.0,0.0,0.0,0.0,0.0,0.0,0.0,0.0,0.0,0.0,0.0,0.0,0.0,0.0,0.0,0.0,0.0,0.0,0.0,0.0,0.0,0.0,0.0,0.0,0.0,0.0,0.0,0.0,0.0,0.0,0.0,0.0,0.0,0.0,0.0,0.0,0.0,3.8191,3.8233,3.8295,3.8295,3.8336,3.8419,3.8419,3.8336,3.8191,3.8191,0.0,0.0,0.0,0.0,0.0,0.0,0.0,0.0,0.0,0.0,0.0,0.0,0.0,0.0,0.0,0.0,0.0,0.0,0.0,0.0,0.0,3.5982,3.5982,3.5982,3.5982,3.5982,0.0,0.0,0.0,0.0,0.0,0.0,3.5982,3.5982,3.5982,3.5982,3.5982,3.5982,3.5982,3.6186,3.6843,3.7842,3.8208,3.9068,4.0224,0.0,0.0,0.0,0.0,0.0,0.0,0.0,0.0,0.0,0.0,0.0,0.0,0.0,0.0,0.0,0.0,0.0,0.0,0.0,0.0,0.0,0.0,0.0,0.0,0.0,0.0,0.0,0.0,0.0,0.0,0.0,0.0,0.0,0.0,0.0,0.0,0.0,0.0,0.0,0.0,0.0,3.8191,3.8191,0.0,0.0,0.0,0.0,0.0,0.0,0.0,0.0,0.0,0.0,0.0,0.0,0.0,3.8191,3.8191,3.8191,3.8191,3.8191,3.8191,3.8398,3.8716,3.8716,3.8944,3.9316,3.9316,0.0,3.8191,3.8191,0.0,0.0,0.0,0.0,0.0,0.0,0.0,0.0,0.0,0.0,0.0,0.0,0.0,0.0,0.0,0.0,0.0,0.0,0.0,0.0,0.0,3.5982,3.5982,3.5982,3.5982,3.5982,3.5982,3.5982,0.0,0.0,0.0,3.5982,3.5982,3.5982,3.5982,3.5982,3.5982,3.5982,3.5982,3.5982,3.6321,3.691,3.691,3.8573,4.1441,4.2175,0.0,0.0,0.0,0.0,0.0,0.0,0.0,0.0,0.0,0.0,0.0,0.0,0.0,0.0,0.0,0.0,0.0,0.0,0.0,0.0,0.0,0.0,0.0,0.0,0.0,0.0,0.0,0.0,0.0,0.0,0.0,0.0,0.0,0.0,0.0,0.0,0.0,0.0,0.0,3.8191,3.8191,3.8191,3.8191,3.8274,0.0,0.0,0.0,0.0,0.0,0.0,0.0,0.0,0.0,3.8923,3.8923,3.8923,3.8923,3.8923,3.8923,3.8923,3.8923,3.8904,3.8918,3.8918,3.8903,3.8879,3.8879,3.8676,3.8343,3.8583,3.863,3.8596,0.0,0.0,0.0,0.0,3.7637,3.7774,0.0,0.0,0.0,0.0,0.0,0.0,0.0,0.0,0.0,0.0,0.0,0.0,3.5982,3.5982,3.5982,3.5982,3.5982,3.5982,3.5982,3.5982,0.0,0.0,3.5982,3.5982,3.5982,3.5982,3.5982,3.5982,3.5982,3.5982,3.5982,3.5982,3.6186,3.6539,3.691,3.8838,4.1824,4.2831,4.367,4.4285,0.0,0.0,0.0,0.0,0.0,0.0,0.0,0.0,0.0,0.0,0.0,0.0,0.0,0.0,0.0,0.0,0.0,0.0,0.0,0.0,0.0,0.0,0.0,0.0,0.0,0.0,0.0,0.0,0.0,0.0,0.0,0.0,0.0,0.0,0.0,0.0,0.0,3.846,3.8523,3.8523,3.8523,3.8667,0.0,0.0,0.0,0.0,0.0,0.0,3.9502,3.9502,3.9502,3.9502,3.9502,3.9502,3.9502,3.9399,3.9364,3.9364,3.926,3.9149,3.9042,3.9042,3.8928,3.8733,3.8733,3.8733,3.8748,3.8841,3.8844,3.881,3.8392,3.8252,3.8182,3.7832,3.7867,3.8042,0.0,0.0,0.0,0.0,0.0,0.0,0.0,0.0,0.0,0.0,0.0,3.5982,3.5982,3.5982,3.5982,3.5982,3.5982,3.5982,3.5982,3.5982,3.5982,3.5982,3.5982,3.5982,3.5982,3.5982,3.5982,3.5982,3.5982,3.5982,3.5982,3.5982,3.6708,3.8042,3.9376,4.0094,4.0289,4.0387,4.192,4.4285,4.4285,0.0,0.0,0.0,0.0,0.0,0.0,0.0,0.0,0.0,0.0,0.0,0.0,0.0,0.0,0.0,0.0,0.0,0.0,0.0,0.0,0.0,0.0,0.0,0.0,0.0,0.0,0.0,0.0,0.0,0.0,0.0,0.0,0.0,0.0,0.0,0.0,0.0,0.0,3.944,3.944,0.0,0.0,0.0,0.0,3.9502,3.9502,3.9502,3.9502,3.9502,3.9502,3.9502,3.9502,3.9502,3.9502,3.9191,3.9018,3.9018,3.8636,3.8683,3.9101,3.9101,3.9287,3.9654,3.9654,3.9654,3.9593,3.8769,3.8447,3.8412,3.8007,3.7812,3.7797,3.7445,3.734,3.7375,0.0,0.0,0.0,0.0,0.0,0.0,0.0,0.0,3.5982,3.5982,3.5982,3.5982,3.5982,3.5982,3.5982,3.5982,3.5982,3.5982,3.5982,3.5982,3.5982,3.5982,3.5982,3.5982,3.5982,3.5982,3.6152,3.6445,3.6445,3.6582,3.6836,3.6836,3.7114,3.7613,3.811,3.9351,4.1165,4.2354,4.3396,4.4285,4.4285,4.4285,0.0,0.0,0.0,0.0,0.0,0.0,0.0,0.0,0.0,0.0,0.0,0.0,0.0,0.0,0.0,0.0,0.0,0.0,0.0,0.0,0.0,0.0,0.0,0.0,0.0,0.0,0.0,0.0,0.0,0.0,0.0,0.0,0.0,0.0,0.0,0.0,0.0,3.9502,3.9502,0.0,3.993,3.9937,4.0061,4.0386,4.0406,4.053,4.082,4.0841,4.0843,4.0842,4.0842,4.0734,4.0464,4.0355,4.0282,4.0282,4.0137,4.0014,3.9934,3.9934,3.9886,3.9823,3.9823,3.9823,3.9803,3.9507,3.9199,3.8863,3.8485,3.8305,3.8305,3.8197,3.8125,3.8125,0.0,0.0,0.0,0.0,0.0,0.0,0.0,0.0,3.5982,3.5982,3.5982,3.5982,3.5982,3.5982,3.5982,3.5982,3.5982,3.5982,3.5982,3.5982,3.6094,3.623,3.6367,3.6445,3.6445,3.6445,3.6601,3.691,3.691,3.7031,3.7305,3.7305,3.7305,3.734,3.7812,3.906,4.0995,4.318,4.4381,4.4845,4.4845,4.4845,4.482,0.0,0.0,0.0,0.0,0.0,0.0,0.0,0.0,0.0,0.0,0.0,0.0,0.0,0.0,0.0,0.0,0.0,0.0,0.0,0.0,0.0,0.0,0.0,0.0,0.0,0.0,0.0,0.0,0.0,0.0,0.0,0.0,0.0,0.0,3.9999,4.022,4.022,4.0365,4.0572,4.0897,4.0903,4.1027,4.1353,4.1374,4.1519,4.183,4.1684,4.1608,4.1599,4.1471,4.1286,4.1008,4.0876,4.0801,4.0801,4.0671,4.0543,4.0418,4.0418,4.0403,4.0332,4.0332,3.993,3.9242,3.9242,3.8614,3.7707,3.806,3.8171,3.8097,3.7483,3.7297,3.7297,0.0,0.0,0.0,0.0,0.0,0.0,0.0,3.5982,3.5982,3.5982,3.5982,3.5982,3.5982,3.5982,3.5982,3.5982,3.5982,3.6035,3.6001,3.6001,3.623,3.6714,3.709,3.7305,3.7305,3.7305,3.7305,3.7324,3.7324,3.7324,3.7344,3.7344,3.7344,3.7414,3.8755,3.9413,3.9633,4.2416,4.4454,4.5797,4.587,4.5902,4.583,0.0,0.0,0.0,0.0,0.0,0.0,0.0,0.0,0.0,0.0,0.0,0.0,0.0,0.0,0.0,0.0,0.0,0.0,0.0,0.0,0.0,0.0,0.0,0.0,0.0,0.0,0.0,0.0,0.0,0.0,0.0,0.0,0.0,4.0433,4.1048,4.1622,4.1622,4.2016,4.2285,4.2285,4.2285,4.2285,4.2285,4.2306,4.2306,4.2327,4.1883,4.1623,4.1644,4.1255,4.1051,4.1051,4.0656,4.0449,4.0449,4.0149,4.0195,4.0547,4.0547,4.0782,4.1133,4.1133,3.9909,3.7881,3.7881,3.6649,3.495,3.6567,3.7203,3.7011,3.531,3.4686,3.4686,0.0,0.0,0.0,0.0,0.0,0.0,0.0,3.5982,3.5982,3.5982,3.5982,3.5982,3.5982,3.5982,3.5982,3.5982,3.5982,3.6152,3.6499,3.6484,3.668,3.7109,3.7226,3.7305,3.7305,3.7305,3.7441,3.7754,3.7754,3.791,3.8223,3.8223,3.8223,3.8259,3.8635,3.9403,4.0462,4.127,4.2466,4.3906,4.5355,4.5902,4.5878,0.0,0.0,0.0,0.0,0.0,0.0,0.0,0.0,0.0,0.0,0.0,0.0,0.0,0.0,0.0,0.0,0.0,0.0,0.0,0.0,0.0,0.0,0.0,0.0,0.0,0.0,0.0,0.0,0.0,0.0,0.0,4.1509,4.1386,4.122,4.1734,4.2099,4.2099,4.2223,4.2285,4.2285,4.2285,4.2285,4.2285,4.199,4.1949,4.2276,4.2188,4.213,4.2182,4.2384,4.2348,4.1994,4.1916,4.1837,4.1837,4.1778,4.1757,4.1855,4.1855,4.1218,4.0092,4.0092,3.9009,3.7235,3.7235,3.6897,3.6283,3.5664,3.5426,3.5349,3.4881,3.4686,3.4759,0.0,0.0,0.0,0.0,0.0,0.0,0.0,3.5982,3.5982,3.5982,3.5982,3.5982,3.5982,3.6191,3.6289,3.6289,3.6445,3.666,3.6914,3.709,3.7305,3.7539,3.7734,3.7832,3.7832,3.7832,3.7949,3.8203,3.8203,3.832,3.8611,3.8611,3.8611,3.8611,3.8611,3.9063,3.9926,4.0535,4.163,4.3105,4.4243,4.4705,4.4748,4.5155,4.493,4.4404,4.4404,4.4404,4.4295,4.3645,0.0,0.0,0.0,0.0,0.0,0.0,0.0,0.0,0.0,0.0,0.0,0.0,0.0,0.0,0.0,0.0,0.0,0.0,0.0,0.0,0.0,0.0,0.0,0.0,4.1925,4.1947,4.2225,4.2252,4.2241,4.2055,4.2368,4.2611,4.2607,4.259,4.2672,4.2856,4.2627,4.2596,4.2859,4.2735,4.2662,4.2685,4.2783,4.2662,4.2382,4.2382,4.2001,4.1257,4.1257,4.0968,4.0402,4.0402,3.9901,3.9093,3.9093,3.7962,3.6164,3.6164,3.5644,3.4803,0.0,0.0,0.0,0.0,3.3498,3.353,0.0,0.0,0.0,0.0,0.0,0.0,0.0,3.5982,3.5982,3.5982,3.6055,3.6094,3.6094,3.6484,3.6773,3.6773,3.709,3.7324,3.7363,3.7754,3.7988,3.7988,3.8359,3.8611,3.8611,3.8611,3.8611,3.8611,3.8611,3.8611,3.8611,3.8611,3.8611,3.8611,3.8611,3.8611,3.8683,3.9998,4.1332,4.2508,4.2726,4.3006,4.3335,4.4041,4.3511,4.2386,4.2386,4.2429,4.2504,4.2757,0.0,0.0,0.0,0.0,0.0,0.0,0.0,0.0,0.0,0.0,0.0,0.0,0.0,0.0,0.0,0.0,0.0,0.0,0.0,0.0,0.0,0.0,0.0,0.0,4.2761,4.3039,4.3101,4.2692,4.2252,4.1967,4.2616,4.3099,4.3094,4.3095,4.3256,4.3658,4.3658,4.3638,4.3638,4.328,0.0,0.0,0.0,4.2236,4.2236,4.2035,4.1106,3.9518,3.9518,3.8873,3.7656,3.7656,3.776,3.7895,3.7895,3.6682,3.4764,3.4764,3.3646,3.2072,3.3534,3.4123,3.3912,3.2383,3.1798,3.1798,0.0,0.0,0.0,0.0,0.0,0.0,0.0,3.5982,3.5982,3.5982,3.6328,3.6543,3.6543,3.6934,3.7168,3.7168,3.7246,3.7441,3.7738,3.8203,3.8457,3.8457,3.8571,3.8611,3.8611,3.8611,3.8611,3.8611,3.8611,3.8611,3.8611,3.8611,3.8611,3.8611,3.8611,3.8611,3.8611,3.8882,3.9208,3.959,4.1178,4.303,4.4744,4.3683,4.3108,4.2866,4.2866,4.3106,4.3244,4.2179,4.2006,4.2084,4.0854,4.0564,0.0,0.0,0.0,0.0,0.0,0.0,0.0,0.0,0.0,0.0,0.0,0.0,0.0,0.0,0.0,0.0,0.0,0.0,0.0,4.2962,4.3022,4.3101,4.3101,4.3002,4.306,4.3257,4.3455,4.3536,4.3557,4.3557,4.3598,4.3678,4.34,4.3241,4.3241,4.3117,4.3111,4.3111,4.1887,4.1268,4.1268,3.9766,3.8821,3.8482,3.8482,0.0,3.8075,3.8075,3.7313,3.6031,3.6015,3.494,3.3233,3.3233,3.2984,3.2573,3.2376,3.2297,3.2254,3.1926,3.1798,3.1798,0.0,0.0,0.0,0.0,0.0,0.0,0.0,3.6523,3.666,3.666,3.6855,3.6992,3.6992,3.7363,3.7617,3.7617,3.7812,3.8027,3.8242,3.8457,3.8611,3.8611,3.8611,3.8611,3.8611,3.8611,3.8708,3.8887,3.8887,3.9004,3.9238,3.9238,3.9238,3.9238,3.9238,3.9238,3.9238,3.9238,3.9662,4.0362,4.062,4.1892,4.3597,4.285,4.2096,4.1467,4.1467,4.1612,4.1709,4.0958,4.0824,4.0876,4.0146,4.0039,4.0215,0.0,0.0,0.0,0.0,0.0,0.0,0.0,0.0,0.0,0.0,0.0,0.0,0.0,0.0,4.2382,4.2382,0.0,4.2821,4.3037,4.3117,4.3155,4.3372,4.3391,4.3315,4.3081,4.328,4.34,4.3379,4.3418,4.3135,4.2416,4.2171,4.1638,4.0694,4.0648,4.0725,4.0885,4.0238,3.9922,4.0117,3.9149,3.8238,3.7364,3.7364,3.6855,3.593,3.593,3.5459,3.4602,3.4587,3.4067,3.3246,3.3246,3.3246,3.3217,3.2895,3.2573,3.228,3.228,3.228,3.228,0.0,0.0,0.0,0.0,0.0,0.0,0.0,3.709,3.7305,3.7305,3.7363,3.7422,3.7422,3.7793,3.8047,3.8047,3.8379,3.8611,3.8611,3.8611,3.8611,3.8611,3.8652,3.8728,3.8728,3.8826,3.9004,3.9336,3.9336,3.9531,3.9902,3.9902,3.9902,3.9902,3.9902,3.9902,3.9902,3.9902,4.0577,4.1599,4.0451,4.0733,4.1796,4.1878,4.1091,3.9902,3.9902,3.9941,4.0019,4.0019,4.0078,4.0137,4.0137,4.0371,4.0664,4.0742,4.1016,0.0,0.0,0.0,0.0,0.0,0.0,0.0,0.0,4.2558,4.2578,4.2656,4.2635,4.2635,4.2635,4.2635,4.2793,4.3144,4.2898,4.2809,4.3156,4.2844,4.2388,4.1661,4.2253,4.255,4.2185,4.2141,4.1696,4.053,4.0512,3.9894,3.8383,3.8366,3.8511,3.8775,3.847,3.8403,3.8662,3.8308,3.7391,3.5975,3.5975,3.5135,3.3684,3.3684,3.3684,3.3684,3.3684,3.3684,3.3684,3.3684,3.3684,3.3684,3.3684,3.3422,3.2954,3.2954,3.2954,3.2954,0.0,0.0,0.0,0.0,0.0,0.0,0.0,0.0,3.7305,3.7305,3.7617,3.7816,3.7816,3.8242,3.8496,3.8496,3.8591,3.8611,3.8611,3.8611,3.8611,3.8611,3.8926,3.9141,3.9141,3.9531,3.9766,3.9824,3.9824,3.9844,3.9902,3.9902,3.9902,3.9902,3.9902,3.9902,3.9902,3.9902,4.0015,4.0148,4.0369,4.0526,4.0717,4.1149,4.07,3.9902,3.9902,4.0137,4.0411,4.0411,4.0703,4.1074,4.1074,4.1093,4.1172,4.1543,4.1699,4.1816,4.2187,4.2285,4.2305,4.2304,4.2362,4.2519,0.0,4.3008,4.3105,4.3476,4.3555,4.3555,4.3555,4.3555,4.3574,4.3633,4.2288,4.1244,4.1281,3.9872,3.88,3.8671,4.0211,4.0565,3.8893,3.8765,3.8698,3.8537,3.8804,3.8864,3.8647,3.8928,3.9133,3.9123,3.7593,3.6763,3.6811,3.5135,3.4215,3.3987,3.3987,3.3911,3.3684,3.3684,3.3684,3.3684,3.3684,3.3684,3.3684,3.3684,3.3684,3.3684,3.3684,3.364,3.3581,3.3581,3.3581,3.3581,0.0,0.0,0.0,0.0,0.0,0.0,0.0,0.0,0.0,3.8083,3.8203,3.8301,3.8301,3.8476,3.8708,3.8926,3.8747,3.8708,3.8926,3.8945,3.8945,3.8945,3.9375,3.9609,3.9609,3.9805,4.0019,4.0254,4.0254,4.0391,4.0683,4.0683,4.0683,4.0683,4.0683,4.0683,4.0683,4.0683,4.0683,4.0664,4.084,4.0898,4.0918,4.1152,4.0957,4.0683,4.0683,4.0762,0.0,4.0898,4.1035,4.1211,4.1211,4.1387,4.1562,4.1758,4.1973,4.2207,4.2343,4.2617,4.2812,4.2812,4.2988,4.3223,4.3398,4.3437,4.3496,4.3672,4.3711,4.3361,4.2303,4.2137,4.1784,4.0674,3.9854,3.9363,3.9363,3.8707,3.7809,3.6734,3.7478,3.8133,3.8212,3.8383,3.8045,3.7003,3.7216,3.6942,3.5846,3.5897,3.6069,3.6272,3.5562,3.5258,3.5455,3.4655,3.4388,3.4563,3.4563,3.4666,3.4841,3.4841,3.4841,3.4841,3.4841,3.4841,3.4827,3.4636,3.4563,3.4549,3.4358,3.43,3.4256,3.383,3.3684,3.3684,0.0,0.0,0.0,0.0,0.0,0.0,0.0,0.0,0.0,0.0,3.8611,3.8611,3.8611,3.8708,3.8867,3.918,3.9043,3.9062,3.9375,3.9394,3.9394,3.9394,3.9824,4.0078,4.0078,4.0176,4.0391,4.0703,4.0703,4.0859,4.1211,4.1211,4.1211,4.1211,4.1211,4.1211,4.1211,4.1211,4.1211,4.1211,4.1211,4.1211,4.1211,4.1211,4.1211,4.1211,4.1211,4.1289,4.1387,4.1387,4.1426,4.1523,4.1523,4.1719,4.1992,4.2109,4.2441,4.2733,4.2733,4.3008,4.3242,4.3242,4.3106,4.2946,4.2946,4.2553,4.2159,4.2159,4.2159,4.1784,4.0463,4.021,3.9787,3.8408,3.7766,3.7466,3.7466,3.7076,3.6334,3.504,3.5176,3.5801,3.6845,3.7189,3.678,3.5467,3.5704,3.5273,3.3907,3.3949,3.4139,3.4461,3.4475,3.4636,3.4958,3.4958,3.5123,3.5343,3.5343,3.546,3.5694,3.5694,3.5694,3.5694,3.5694,3.5694,3.5665,3.543,3.5343,3.5313,3.5046,3.4958,3.49,3.4432,3.4154,3.3993,0.0,0.0,0.0,0.0,0.0,0.0,0.0,0.0,0.0,0.0,0.0,0.0,0.0,3.8945,3.9199,3.9199,3.9609,3.9863,3.9883,3.9883,3.9883,3.9883,4.0273,4.0469,4.0469,4.0918,4.1172,4.1191,4.1191,4.1211,4.1211,4.1211,4.1211,4.1211,4.1211,4.1211,4.1211,4.1211,4.1211,4.1211,4.1211,4.1211,4.1211,4.1211,4.1211,4.1211,4.1211,4.1426,4.1777,4.1777,4.2051,4.2343,4.2343,4.2362,4.246,4.291,4.334,4.3672,4.3672,4.3672,4.3691,4.3691,4.2387,4.1089,4.1089,3.966,3.8366,3.8366,3.8366,3.8366,3.8323,3.828,3.828,3.8195,3.6751,3.5597,3.5581,3.4285,3.3307,3.3276,3.3555,3.3806,3.3836,3.3836,3.3851,3.376,3.4068,3.4244,3.4197,3.4505,3.4812,3.5167,3.5181,3.5328,3.5665,3.5665,3.5665,3.568,3.568,3.568,3.5694,3.5694,3.5694,3.5694,3.5694,3.5694,3.5694,3.568,3.568,3.568,3.5665,3.5665,3.5665,3.565,3.524,3.468,0.0,0.0,0.0,0.0,0.0,0.0,0.0,0.0,0.0,0.0,0.0,0.0,0.0,0.0,0.0,0.0,3.9961,4.0019,4.0293,4.0312,4.0312,4.0312,4.0723,4.0957,4.0957,4.1132,4.1211,4.1211,4.1211,4.1211,4.1211,4.1211,4.1211,4.1211,4.1211,4.1211,4.1211,4.1211,4.1211,4.1211,4.1211,4.1211,4.1211,4.1211,4.1211,4.125,0.0,4.168,4.1836,4.2129,4.2305,4.2382,4.2382,4.2617,4.2949,4.3359,4.3594,4.3711,4.3711,4.2822,4.1928,4.1928,4.0506,3.9133,3.9133,3.8665,3.8195,3.8195,3.8383,3.8182,3.6965,3.6747,3.631,3.5067,3.4375,3.3947,3.3991,3.3709,3.3523,3.3523,3.3815,3.4005,3.4005,3.4005,3.4005,3.4005,3.4549,3.4841,3.4841,3.5196,3.543,3.5533,3.5533,3.5577,3.5694,3.5694,3.5797,3.5968,3.6392,3.6764,3.6969,3.6969,3.6969,3.6969,3.6969,3.6852,3.6583,3.6363,3.6158,3.5939,3.5782,3.5694,3.5694,3.5694,3.5562,3.5372,0.0,0.0,0.0,0.0,0.0,0.0,0.0,0.0,0.0,0.0,0.0,0.0,0.0,0.0,0.0,0.0,0.0,4.0469,4.0742,4.0762,4.0762,4.0762,4.1035,4.1211,4.1211,4.1211,4.1211,4.1211,4.1211,4.1211,4.1211,4.1211,4.1211,4.1211,4.1211,4.1211,4.1211,4.1211,4.1211,4.1211,4.1211,4.1211,4.1211,4.1211,4.1308,0.0,4.1875,4.2129,4.2305,4.2558,4.2754,4.285,4.285,4.3066,4.3359,4.3633,4.3237,4.2739,4.2739,4.1407,3.9999,3.9999,3.8597,3.7251,3.7251,3.6734,3.6275,3.6275,3.6507,3.6371,3.5194,3.508,3.477,3.3588,3.3377,3.3377,3.3377,3.3654,3.3859,3.3859,3.4197,3.4432,3.4549,3.4549,3.4549,3.4549,3.4976,3.5255,3.5372,3.5577,3.5797,3.6031,3.6031,3.6148,3.6383,3.6383,3.6485,3.6641,3.7065,3.7373,3.7578,3.7578,3.7578,3.7578,3.7578,3.7461,3.7256,3.7036,3.6831,3.6626,3.6471,3.6383,3.6383,3.6383,3.6383,3.6324,0.0,0.0,0.0,0.0,0.0,0.0,0.0,0.0,0.0,0.0,0.0,0.0,0.0,0.0,0.0,0.0,0.0,0.0,4.1211,4.1211,4.1211,4.1211,4.1211,4.1211,4.1211,4.1211,4.1211,4.1211,4.1211,4.1211,4.1211,4.1211,4.1211,4.1211,4.1211,4.1211,4.1211,4.1211,4.1211,4.1211,4.1211,4.1211,4.1211,4.1211,4.1426,4.1855,4.2285,4.2695,4.3086,4.3105,4.3379,4.3711,4.3711,4.3628,4.3567,4.3567,4.2262,4.0861,4.0861,3.949,3.8066,3.8066,3.6707,3.5352,3.5395,3.4071,3.2837,3.2866,3.3071,3.3245,3.3245,3.3508,3.3713,3.3713,3.3713,3.3713,3.3713,3.399,3.4256,3.4256,3.4534,3.4856,3.5196,3.5225,3.524,3.5284,3.5269,3.5401,3.5723,3.5753,3.6046,3.6626,3.6656,3.6948,3.7578,3.7578,3.7592,3.7658,3.7658,3.7607,3.7622,3.7622,3.7622,3.7622,3.7622,3.7622,3.7658,3.7658,3.7592,3.7578,3.7578,3.7578,3.7578,3.7578,3.7578,3.7453,0.0,0.0,0.0,0.0,0.0,0.0,0.0,0.0,0.0,0.0,0.0,0.0,0.0,0.0,0.0,0.0,0.0,0.0,4.1211,4.1211,4.1211,4.1211,4.1211,4.1211,4.1211,4.1211,4.1211,4.1211,4.1211,4.1211,4.1211,4.1211,4.1211,4.1211,4.1211,4.1211,4.1211,4.1211,4.1211,4.1211,4.1211,4.1211,4.1211,4.1211,4.1426,4.1855,4.2285,4.2695,4.3166,4.3437,4.3613,4.3711,4.3711,4.278,4.1677,4.1677,4.0379,3.892,3.892,3.7595,3.6172,3.6205,3.4828,3.3515,3.3754,3.3427,3.3188,3.3436,3.3698,3.3978,3.3978,3.399,3.4095,3.4095,3.4095,3.4095,3.4095,3.4373,3.4666,3.4932,3.5035,3.5211,3.5533,3.5562,3.5767,3.6202,3.6012,3.6012,3.6348,3.6597,3.6905,3.7314,3.7329,3.7417,3.7578,3.7578,3.7746,3.7995,3.7995,3.8061,3.8295,3.8295,3.8295,3.8295,3.8295,3.8163,3.7995,3.7995,3.7848,3.7578,3.7578,3.7578,3.7578,3.7578,3.7578,3.7534,0.0,0.0,0.0,0.0,0.0,0.0,0.0,0.0,0.0,0.0,0.0,0.0,0.0,0.0,0.0,0.0,0.0,0.0,0.0,4.1211,4.1211,4.1211,4.1211,4.1211,4.1211,4.1211,4.1211,4.1211,4.1211,4.1211,4.1211,4.1211,4.1211,4.1211,4.1211,4.1211,4.1211,4.1211,4.1211,0.0,0.0,4.1211,4.1211,4.1211,4.1543,4.2109,4.2304,4.2832,4.3256,4.2704,4.3029,4.3567,4.278,4.1802,4.0819,3.9999,3.8451,3.7009,3.7009,3.5668,3.4334,3.4459,3.3708,3.3056,3.3333,3.3421,3.3464,3.3654,3.3993,3.4212,3.4212,3.4329,3.4432,3.4432,3.4432,3.4432,3.4432,3.471,3.4973,3.5181,3.5328,3.5606,3.6075,3.6119,3.6383,3.6978,3.6597,3.6539,3.7007,3.7212,3.7461,3.7834,3.7848,3.7856,3.8002,3.8002,3.809,3.828,3.828,3.8368,3.8491,3.8491,3.8491,3.8491,3.8491,3.8441,3.828,3.828,3.8163,3.8002,3.8002,3.8002,3.8002,3.8002,3.8002,3.8002,0.0,0.0,0.0,0.0,0.0,0.0,0.0,0.0,0.0,0.0,0.0,0.0,0.0,0.0,0.0,0.0,0.0,0.0,0.0,0.0,4.1211,4.1211,4.1211,4.1211,4.1211,4.1211,4.1211,4.1211,4.1211,4.1211,4.1211,4.1211,4.1211,4.1211,4.1211,4.1211,4.1211,4.1211,4.1211,4.1211,4.1211,4.1211,4.1211,0.0,4.1738,4.2401,4.2518,4.2903,4.3112,4.1551,4.2053,4.3029,4.1197,4.0482,3.9974,3.8323,3.6578,3.5134,3.5134,3.4013,3.2895,3.3128,3.3231,3.3348,3.3684,3.3757,3.3757,3.3801,3.4034,3.4285,3.4285,3.4519,3.471,3.471,3.471,3.4724,3.4753,3.5035,3.524,3.5328,3.5621,3.6061,3.6612,3.6714,3.6992,3.7592,3.7124,3.7051,3.7658,3.7687,3.7848,3.8119,3.8134,3.8251,3.8477,3.8491,3.8491,3.8491,3.8491,3.8491,3.8491,3.8491,3.8491,3.8491,3.8491,3.8491,3.8491,3.8491,3.8491,3.8491,3.8491,3.8491,3.8491,3.8491,3.8491,3.8491,0.0,0.0,0.0,0.0,0.0,0.0,0.0,0.0,0.0,0.0,3.9609,0.0,0.0,0.0,0.0,0.0,0.0,0.0,0.0,0.0,0.0,4.1211,4.1211,4.1211,4.1211,4.1211,4.1211,4.1211,4.1211,4.1211,4.1211,4.1211,4.1211,4.1211,4.1211,4.1211,4.1211,4.1211,4.1211,4.1211,4.1211,4.1211,4.125,4.1562,0.0,0.0,4.3223,4.2605,4.1425,4.1131,4.1215,4.1155,3.926,3.7655,3.6378,3.6058,3.4697,3.3293,3.3293,3.3176,3.3128,3.3187,3.3406,3.3684,3.4066,3.4139,3.4212,3.4475,3.4578,3.4622,3.4622,3.4666,3.471,3.471,3.471,3.4797,3.5093,3.5167,3.5401,3.5895,3.6231,3.6583,3.6963,3.7256,3.7563,3.8009,3.7921,3.7907,3.8024,3.8024,3.8119,3.8389,3.8456,3.8433,3.8491,3.8491,3.8491,3.8491,3.8491,3.8491,3.8491,3.8491,3.8491,3.8491,3.8491,3.8491,3.8491,3.8491,3.8491,3.8491,3.8491,3.8491,3.8491,3.8491,3.8491,3.8491,0.0,0.0,0.0,0.0,0.0,0.0,0.0,0.0,0.0,0.0,3.9609,4.0059,0.0,0.0,0.0,0.0,0.0,0.0,0.0,0.0,0.0,0.0,4.1211,4.1211,4.1211,4.1211,4.1211,4.1211,0.0,4.1211,4.1211,4.1211,4.1211,4.1211,4.1211,4.1211,4.1211,4.1211,4.1211,4.1211,4.1211,4.1211,4.123,0.0,0.0,0.0,4.3398,4.2553,4.0861,3.9872,3.892,3.7981,3.7079,3.6188,3.5292,3.4391,3.3499,3.2822,3.2822,3.2997,3.3245,3.3406,3.3698,3.4066,3.4402,3.4475,3.4519,3.4666,3.471,3.471,3.471,3.471,3.471,3.471,3.471,3.4812,3.5167,3.5357,3.5636,3.6056,3.6553,3.6992,3.7314,3.7636,3.7958,3.828,3.8309,3.8309,3.8309,3.8309,3.8382,3.8477,3.8491,3.8491,3.8491,3.8491,3.8491,3.8491,3.8652,3.874,3.874,3.8915,3.9041,3.9041,3.9041,3.9041,3.9041,3.9041,3.8939,3.874,3.874,3.8638,3.8491,3.8491,3.8491,3.8491,0.0,0.0,0.0,0.0,0.0,0.0,0.0,3.8611,3.8691,3.9023,3.9473,3.9902,4.0332,4.0859,0.0,0.0,0.0,0.0,0.0,0.0,0.0,0.0,0.0,0.0,4.1211,0.0,0.0,4.1211,4.1211,0.0,0.0,0.0,0.0,0.0,4.1211,4.125,4.1327,4.125,4.125,0.0,0.0,4.1288,4.123,0.0,0.0,0.0,0.0,4.1969,4.0126,3.8238,3.6432,3.4944,3.4944,3.4944,3.4638,3.3234,3.2822,3.2837,3.2851,3.31,3.3377,3.3713,3.408,3.4388,3.4651,3.471,3.471,3.471,3.471,3.471,3.471,3.471,3.471,3.471,3.471,3.4841,3.5255,3.5533,3.587,3.6275,3.6846,3.7329,3.7651,3.7973,3.8265,3.8462,3.8491,3.8491,3.8491,3.8491,3.8491,3.8491,3.855,3.8594,3.8594,3.8667,3.8696,3.8696,3.8959,3.9129,3.9143,3.9392,3.9509,3.9509,3.9509,3.9509,3.9509,3.9509,3.9363,3.9129,3.9129,3.8968,3.8696,3.8696,3.8696,3.8696,0.0,0.0,0.0,0.0,0.0,0.0,0.0,3.8611,3.863,3.8669,3.9004,3.9434,3.9902,4.0684,0.0,0.0,0.0,0.0,0.0,0.0,0.0,0.0,0.0,0.0,0.0,0.0,0.0,4.1211,4.1211,0.0,0.0,0.0,0.0,0.0,0.0,4.1405,4.1734,4.1366,0.0,0.0,0.0,0.0,0.0,0.0,0.0,0.0,0.0,4.0041,3.8195,3.6345,3.4566,3.3073,3.3073,3.3073,3.3029,3.2852,3.2822,3.2837,3.3084,3.3391,3.3713,3.4095,3.4417,3.4666,3.4695,3.471,3.471,3.471,3.471,3.471,3.471,3.471,3.471,3.471,3.471,3.4914,3.5562,3.5665,3.6031,3.689,3.7314,3.7716,3.8039,3.8309,3.8448,3.8477,3.8491,3.8491,3.8491,3.8491,3.8491,3.8491,3.8769,3.893,3.893,3.9275,3.9421,3.9421,3.9451,3.9465,3.9465,3.9495,3.9509,3.9509,3.9509,3.9509,3.9509,3.9509,3.9495,3.9465,3.9465,3.9451,3.9421,3.9421,3.9421,3.9421,0.0,0.0,0.0,0.0,0.0,0.0,0.0,3.8611,3.8611,3.8611,3.8945,3.9375,3.9844,4.043,4.0879,0.0,0.0,0.0,0.0,0.0,0.0,0.0,0.0,0.0,0.0,0.0,4.1211,4.1211,4.1211,0.0,0.0,0.0,0.0,0.0,0.0,4.1657,4.1773,4.1618,0.0,0.0,0.0,0.0,0.0,0.0,0.0,0.0,0.0,0.0,3.6475,3.5711,3.4319,3.2822,3.2822,3.2822,3.2822,3.2822,3.2822,3.2837,3.3114,3.3435,3.3757,3.4139,3.4461,3.471,3.471,3.471,3.471,3.471,3.471,3.471,3.471,3.471,3.471,3.471,3.471,3.4929,3.5606,3.5694,3.6061,3.6978,3.7373,3.7709,3.8083,3.8353,3.8491,3.8491,3.8667,3.8784,3.8784,3.8784,3.8784,3.8784,3.9143,3.9319,3.9319,3.9451,3.9509,3.9509,3.9714,3.9802,3.9816,4.0007,4.0095,4.0095,4.0095,4.0095,4.0095,4.0095,3.9977,3.9802,3.9802,3.9685,3.9509,3.9509,3.9296,3.9014,0.0,0.0,0.0,0.0,0.0,0.0,3.8683,3.8611,3.8611,3.8611,3.8828,3.9238,3.9824,4.0156,4.0566,4.1172,0.0,0.0,0.0,0.0,0.0,0.0,0.0,0.0,0.0,0.0,4.1211,4.1211,4.1211,4.1152,0.0,0.0,4.0976,4.1015,0.0,0.0,0.0,0.0,0.0,0.0,0.0,0.0,0.0,0.0,0.0,0.0,0.0,0.0,0.0,0.0,0.0,3.2822,3.2822,3.2822,3.2837,3.288,3.2851,3.288,3.3348,3.3581,3.3786,3.4256,3.4534,3.471,3.471,3.471,3.471,3.471,3.471,3.471,3.471,3.471,3.471,3.471,3.4783,3.5031,3.5621,3.5767,3.6192,3.7124,3.7446,3.7739,3.8163,3.8412,3.8521,3.8623,3.8895,3.907,3.9158,3.926,3.9275,3.9173,3.948,3.9656,3.9656,3.9758,3.9802,3.9802,4.0036,4.0138,4.0153,4.0387,4.049,4.049,4.0326,4.0216,4.0202,4.0052,3.9838,3.9636,3.9636,3.9452,3.925,3.925,3.898,3.8696,0.0,0.0,0.0,0.0,0.0,0.0,0.0,3.8611,3.8611,3.8611,3.8611,3.8962,3.9805,3.9902,4.0254,4.1132,0.0,0.0,0.0,0.0,0.0,0.0,0.0,0.0,0.0,0.0,4.1211,4.1211,4.1211,4.0957,4.0489,4.0489,4.0489,4.0527,0.0,0.0,0.0,0.0,0.0,0.0,0.0,0.0,0.0,0.0,0.0,0.0,0.0,0.0,0.0,0.0,0.0,0.0,0.0,3.2822,3.2837,3.3099,3.3012,3.2983,3.3949,3.3932,3.3844,3.4534,3.4695,3.471,3.471,3.471,3.471,3.471,3.471,3.471,3.471,3.471,3.471,3.471,3.5006,3.5313,3.565,3.5909,3.648,3.7461,3.7628,3.7826,3.8418,3.8491,3.8623,3.8944,3.9026,3.9173,3.9495,3.9816,3.9846,3.9524,3.9831,3.9992,3.9992,4.0314,4.049,4.049,4.049,4.049,4.049,4.049,4.049,4.0475,3.9859,3.9585,3.9585,3.8967,3.8692,3.8692,3.8692,3.8692,3.8692,3.8692,3.8692,3.8692,0.0,0.0,0.0,0.0,0.0,0.0,0.0,3.8611,3.8611,3.8611,3.8828,3.9238,3.9824,4.0156,4.0547,4.1172,0.0,0.0,0.0,0.0,0.0,0.0,0.0,0.0,0.0,0.0,0.0,0.0,4.0449,4.0234,4.0098,4.0098,4.0192,4.0456,4.1187,4.1824,0.0,0.0,0.0,0.0,0.0,0.0,3.8975,0.0,0.0,0.0,0.0,0.0,0.0,0.0,0.0,0.0,0.0,0.0,0.0,3.3422,3.3304,3.3261,3.4007,3.4139,3.4168,3.4592,3.471,3.471,3.471,3.471,3.471,3.471,3.471,3.471,3.471,3.471,3.471,3.471,3.4783,3.5031,3.5621,3.5782,3.628,3.7431,3.7958,3.8309,3.8462,3.8681,3.8909,3.8959,3.9436,3.9729,3.9846,4.0153,4.0182,3.986,4.0168,4.0329,4.0329,4.0446,4.049,4.049,4.0078,3.9873,3.9859,3.9461,3.9256,3.9256,3.9091,3.8967,3.8967,3.8761,3.8692,3.8692,3.8692,3.8692,3.8692,3.8692,3.8417,3.8142,0.0,0.0,0.0,0.0,0.0,0.0,0.0,3.8611,3.8669,3.8789,3.9043,3.9434,4.0059,4.0371,4.0703,4.1172,0.0,0.0,0.0,0.0,0.0,0.0,0.0,0.0,0.0,0.0,0.0,0.0,0.0,0.0,3.9629,3.9798,3.9965,4.0226,4.1065,4.1742,0.0,0.0,0.0,0.0,0.0,0.0,3.7765,0.0,0.0,0.0,0.0,0.0,0.0,0.0,0.0,0.0,0.0,0.0,0.0,0.0,3.3537,3.3523,3.4227,3.4314,3.43,3.4622,3.471,3.471,3.471,3.471,3.471,3.471,3.471,3.471,3.471,3.471,3.471,3.471,3.4797,3.5061,3.5621,3.5797,3.631,3.7431,3.8148,3.8491,3.8491,3.8784,3.9017,3.9202,3.9699,4.0051,4.0182,4.0373,4.0387,4.0197,4.0387,4.049,4.049,4.0271,4.0147,4.0147,3.953,3.9256,3.9242,3.8843,3.8692,3.8692,3.8472,3.8335,0.0,3.8142,3.8046,3.8046,3.8046,3.8046,3.8046,3.8046,3.777,3.7494,0.0,0.0,0.0,0.0,0.0,0.0,0.0,0.0,0.0,0.0,3.9258,3.9609,4.0391,4.0508,4.0723,0.0,0.0,0.0,0.0,0.0,0.0,0.0,0.0,0.0,0.0,0.0,0.0,3.9844,3.9824,3.957,3.916,0.0,3.977,3.9844,4.0675,4.1534,0.0,0.0,0.0,0.0,0.0,0.0,0.0,0.0,0.0,0.0,0.0,0.0,0.0,0.0,0.0,0.0,0.0,0.0,0.0,0.0,0.0,0.0,0.0,3.4475,3.4329,3.4622,3.471,3.471,3.471,3.471,0.0,3.471,3.471,3.471,3.471,3.471,3.471,3.471,3.4944,3.5299,3.565,3.5983,3.6553,3.7475,3.8148,3.8491,3.8491,3.8798,3.9187,3.9495,3.9777,4.0113,4.042,4.042,4.0351,4.0351,4.0351,4.042,4.042,3.9859,3.953,3.953,3.8912,3.8637,3.8623,3.8569,3.8569,3.8541,3.7991,3.7715,3.7715,3.7149,3.6885,3.6885,3.6885,3.6885,3.6885,3.6885,3.6885,3.6885,0.0,0.0,0.0,0.0,0.0,0.0,0.0,0.0,0.0,0.0,3.9785,4.0255,4.0469,4.082,0.0,0.0,0.0,0.0,0.0,0.0,0.0,0.0,0.0,0.0,0.0,0.0,0.0,3.9355,3.9043,3.8865,3.8767,3.9132,0.0,0.0,0.0,0.0,0.0,0.0,0.0,0.0,0.0,0.0,0.0,0.0,0.0,0.0,3.2676,3.2822,0.0,0.0,0.0,0.0,0.0,0.0,0.0,0.0,3.3684,3.383,3.4534,0.0,3.4607,3.468,3.471,3.471,0.0,3.471,3.471,3.471,3.471,3.471,3.471,3.471,3.471,3.471,3.4768,3.5002,3.5621,3.6617,3.7314,3.7548,3.8148,3.8491,3.8491,3.9056,3.9436,3.9509,3.9603,3.9718,3.9804,3.938,3.9105,3.9105,3.9105,3.9311,3.9804,3.9187,3.8912,3.8912,3.8321,3.7991,3.7991,3.7563,3.7314,3.7314,3.7162,3.7093,3.7093,3.6941,3.6885,3.6885,3.6885,3.6885,3.6885,3.6885,3.6885,3.6885,0.0,0.0,0.0,0.0,0.0,0.0,0.0,0.0,0.0,0.0,0.0,0.0,0.0,0.0,0.0,0.0,0.0,0.0,0.0,0.0,0.0,0.0,0.0,0.0,0.0,0.0,0.0,0.0,0.0,3.8683,0.0,0.0,0.0,0.0,0.0,0.0,0.0,0.0,0.0,0.0,3.7015,0.0,0.0,0.0,0.0,0.0,3.2661,3.2822,0.0,3.2822,3.2822,3.2822,0.0,0.0,0.0,0.0,3.3684,3.383,3.4534,3.471,3.471,3.471,3.471,3.471,3.471,3.471,3.471,3.471,3.471,3.471,3.471,3.471,3.471,3.471,3.4827,3.5192,3.6017,3.6948,3.7636,3.7782,3.8236,3.8491,3.8491,3.9129,3.9403,3.9136,3.939,3.9461,3.9187,3.8898,3.8692,3.8692,3.8417,3.8596,3.9187,3.861,3.8266,3.8266,3.7701,3.737,3.737,3.7065,3.6885,3.6885,3.6885,3.6885,3.6885,3.6885,3.6885,3.6885,3.6885,3.6885,3.6885,3.6885,3.6885,3.6885,0.0,0.0,0.0,0.0,0.0,0.0,0.0,0.0,0.0,0.0,0.0,0.0,0.0,0.0,0.0,0.0,0.0,0.0,0.0,0.0,0.0,0.0,0.0,0.0,0.0,0.0,0.0,0.0,0.0,0.0,0.0,0.0,4.0004,0.0,0.0,0.0,0.0,0.0,0.0,0.0,3.6293,0.0,0.0,0.0,0.0,0.0,0.0,0.0,0.0,3.2822,3.2822,3.2822,3.2822,0.0,0.0,0.0,0.0,0.0,3.4534,3.471,3.471,3.471,3.471,3.471,3.471,3.471,3.471,3.471,3.471,3.471,3.471,3.471,3.471,3.471,3.5002,3.5606,3.648,3.7168,3.7695,3.8083,3.8339,3.8491,3.8387,3.897,3.9136,3.8533,3.901,3.9091,3.861,3.8486,3.8417,3.8417,3.7922,3.7922,3.8417,3.7922,3.7646,3.7646,3.7149,3.6885,3.6885,3.6885,3.6885,3.6885,3.6885,3.6885,3.6885,3.6885,3.6885,3.6885,3.6885,3.6885,3.6885,3.6885,3.6885,3.6885,0.0,0.0,0.0,0.0,0.0,0.0,0.0,0.0,0.0,0.0,0.0,0.0,0.0,0.0,0.0,0.0,0.0,0.0,0.0,0.0,0.0,0.0,4.0703,4.0254,3.9902,3.9375,0.0,0.0,0.0,0.0,3.8703,3.9423,4.0404,0.0,0.0,0.0,0.0,0.0,0.0,0.0,3.5042,0.0,0.0,0.0,0.0,0.0,0.0,0.0,0.0,3.2822,3.2822,3.2822,3.2822,0.0,0.0,0.0,0.0,0.0,3.4534,3.471,3.471,3.471,3.471,3.471,3.471,3.471,3.471,3.471,3.471,3.471,3.471,3.471,3.471,3.471,3.524,3.5855,3.6509,3.7168,3.7695,3.8083,3.8339,3.8335,3.7852,3.8374,3.8533,3.7944,3.8043,3.8046,3.7922,3.7439,3.7162,3.7162,3.7093,3.7093,3.7162,3.7093,3.7065,3.7065,3.6941,3.6885,3.6885,3.6885,3.6885,3.6885,3.6885,3.6885,3.6885,3.6885,3.6885,3.6885,3.6885,3.6885,3.6885,3.6885,3.6885,3.6885,0.0,0.0,0.0,0.0,0.0,0.0,0.0,0.0,0.0,0.0,0.0,0.0,0.0,0.0,0.0,0.0,0.0,0.0,0.0,0.0,0.0,0.0,4.0976,4.0664,4.0234,3.9805,0.0,0.0,0.0,3.9389,3.9611,4.0179,4.0758,4.1346,0.0,0.0,0.0,0.0,0.0,0.0,0.0,0.0,0.0,0.0,0.0,0.0,0.0,0.0,0.0,0.0,3.2822,3.2822,3.2822,0.0,0.0,0.0,0.0,0.0,3.3431,3.4071,3.4212,3.393,3.432,3.471,3.471,3.471,3.471,3.471,3.471,3.471,3.471,3.471,3.4812,3.5163,3.5504,3.5934,3.6578,3.6918,3.7192,3.7423,3.7557,3.7539,3.7277,3.779,3.7944,3.7353,3.7647,3.7646,3.7341,3.7038,3.6885,3.6885,3.6885,3.6885,3.6885,3.6885,3.6885,3.6885,3.6885,3.6885,3.6885,3.6885,3.6885,3.6885,3.6885,3.6885,3.6885,3.6885,3.6885,3.6885,3.6885,3.6885,3.6885,3.6885,3.6885,3.6885,0.0,0.0,0.0,0.0,0.0,0.0,0.0,0.0,0.0,0.0,0.0,0.0,0.0,0.0,0.0,0.0,0.0,0.0,0.0,0.0,4.1211,4.1211,4.1211,4.0976,4.0489,4.0215,4.0,3.9902,3.9902,4.0092,4.0415,4.0848,4.1021,0.0,0.0,0.0,0.0,0.0,0.0,0.0,0.0,0.0,0.0,0.0,0.0,0.0,0.0,0.0,0.0,0.0,0.0,0.0,0.0,0.0,0.0,3.1555,3.0465,2.9259,3.2371,3.3196,3.3196,3.321,3.3944,3.4663,3.4554,3.4601,3.471,3.471,3.471,3.471,3.471,3.4674,3.4813,3.5414,3.5536,3.5771,3.6441,3.6604,3.6706,3.6893,3.6911,3.6859,3.6701,3.7259,3.7353,3.6774,3.7291,3.737,3.6941,3.6885,3.6885,3.6885,3.6885,3.6885,3.6885,3.6885,3.6885,3.6885,3.6885,3.6885,3.6885,3.6885,3.6885,3.6885,3.6885,3.6885,3.6885,3.6885,3.6885,3.6885,3.6885,3.6885,3.6885,3.6885,3.6885,3.6885,0.0,0.0,0.0,0.0,0.0,0.0,0.0,0.0,0.0,0.0,0.0,0.0,0.0,0.0,0.0,0.0,0.0,0.0,0.0,0.0,4.1211,4.1211,4.1211,4.0976,4.0489,4.045,4.0293,3.9902,3.9902,4.0098,4.0507,4.0907,4.1144,4.119,0.0,0.0,0.0,0.0,0.0,0.0,0.0,0.0,0.0,0.0,0.0,0.0,0.0,0.0,0.0,0.0,0.0,0.0,0.0,0.0,2.9176,2.9486,2.8065,2.7427,3.1995,3.2131,3.1394,3.2819,3.3944,3.4554,3.4056,3.4352,3.471,3.471,3.471,3.471,3.471,3.4566,3.4536,3.4914,3.5033,3.5243,3.5888,3.6224,3.6532,3.6869,3.6911,3.6701,3.6138,3.6634,3.672,3.618,3.6675,3.6941,3.6885,3.6885,3.6885,3.6885,3.6885,3.6885,3.6885,3.6885,3.6885,3.6885,3.6885,3.6885,3.6885,3.6885,3.6885,3.6885,3.6885,3.6885,3.6885,3.6885,3.6885,3.6885,3.6885,3.6885,3.6885,3.6885,3.6885,3.6885,0.0,0.0,0.0,0.0,0.0,0.0,0.0,0.0,0.0,0.0,0.0,0.0,0.0,0.0,0.0,0.0,0.0,0.0,0.0,0.0,4.1211,4.1211,4.1211,4.1132,4.0937,4.0918,4.0859,4.0684,4.0684,4.0781,4.0918,4.1072,0.0,0.0,0.0,0.0,0.0,0.0,0.0,0.0,0.0,0.0,0.0,0.0,0.0,0.0,0.0,0.0,0.0,0.0,3.1996,3.0753,2.952,2.7311,2.5685,2.8152,2.7298,2.6553,3.1057,3.2016,3.186,3.2171,3.3035,3.3789,3.3869,3.4056,3.4305,3.4601,3.4179,3.3799,3.3998,3.3936,3.4081,3.4575,3.4844,3.5098,3.5355,3.5648,3.5847,3.5834,3.5823,3.577,3.5507,3.6046,3.6342,3.6126,3.662,3.6885,3.6885,3.6885,3.6885,3.6885,3.6885,3.6885,3.6885,3.6885,3.6885,3.6885,3.6885,3.6885,3.6885,3.6885,3.6885,3.6885,3.6885,3.6885,3.6885,3.6885,3.6885,3.6885,3.6885,3.6885,3.6885,3.6885,3.6885,3.6885,0.0,0.0,0.0,0.0,0.0,0.0,0.0,0.0,0.0,0.0,0.0,0.0,0.0,0.0,0.0,0.0,0.0,0.0,0.0,4.1211,4.1211,4.1211,4.1211,4.1211,4.1211,4.1211,4.1211,4.1211,4.1211,4.1211,4.1211,0.0,0.0,0.0,0.0,0.0,0.0,0.0,0.0,0.0,0.0,0.0,0.0,0.0,0.0,0.0,0.0,0.0,0.0,0.0,3.1818,3.0262,2.852,2.6337,2.4859,2.6841,2.638,2.6155,3.0514,3.1555,3.1447,3.1664,3.2469,3.3257,3.3398,3.354,3.3775,3.4132,3.3733,3.3373,3.3583,3.3649,3.3768,3.4185,3.4549,3.4817,3.4819,3.5175,3.533,3.523,3.5191,3.5191,3.5191,3.5645,3.5979,3.6059,3.654,3.6834,3.6885,3.6885,3.6885,3.6885,3.6885,3.6885,3.6885,3.6885,3.6885,3.6885,3.6885,3.6885,3.6885,3.6885,3.6885,3.6885,3.6885,3.6885,3.6885,3.6885,3.6885,3.6885,3.6885,3.6885,3.6885,3.6885,3.6885,3.6885,0.0,0.0,0.0,0.0,0.0,0.0,0.0,0.0,0.0,0.0,0.0,0.0,0.0,0.0,0.0,0.0,0.0,0.0,4.1211,4.1211,4.1211,4.1211,4.1211,4.1211,4.1211,4.1211,4.1211,4.1211,4.1211,4.1211,4.1211,4.1211,0.0,0.0,0.0,0.0,0.0,0.0,0.0,0.0,3.2163,3.228,0.0,0.0,0.0,0.0,0.0,0.0,0.0,0.0,3.2409,3.1226,2.6885,2.6725,2.7655,2.5533,2.5068,2.6155,3.0514,3.0531,2.9708,3.1318,3.2469,3.3035,3.2502,3.28,3.3177,3.3177,3.3415,3.3577,3.3577,3.3657,3.3691,3.3691,3.4051,3.4322,3.4322,3.483,3.5191,3.5191,3.5191,3.5191,3.5191,3.5458,3.5752,3.6046,3.634,3.6592,3.6885,3.6885,3.6885,3.6885,3.6885,3.6885,3.6885,3.6885,3.6885,3.6885,3.6885,3.6885,3.6885,3.6885,3.6885,3.6885,3.6885,3.6885,3.6885,3.6885,3.6885,3.6885,3.6885,3.6885,3.6885,3.6885,3.6885,3.6885,0.0,0.0,0.0,0.0,0.0,0.0,0.0,0.0,0.0,0.0,0.0,0.0,0.0,0.0,0.0,0.0,0.0,0.0,4.1211,4.1211,4.1211,4.1211,4.1211,4.1211,4.1211,4.1211,4.1211,4.1211,4.1211,4.1211,0.0,0.0,0.0,3.8566,0.0,0.0,0.0,0.0,0.0,0.0,3.2544,3.2676,0.0,0.0,0.0,0.0,0.0,0.0,0.0,0.0,0.0,0.0,2.7913,2.6826,2.6398,2.711,2.7415,2.8176,3.0959,3.1379,3.108,3.1569,3.1901,3.209,3.1948,3.228,3.2618,3.2456,3.2805,3.314,3.3176,3.321,3.3368,3.3748,3.4117,3.4389,3.4603,3.4963,3.5191,3.5191,3.5191,3.5191,3.5191,3.5458,3.5752,3.6046,3.634,3.6592,3.6885,3.6885,3.6885,3.6885,3.6885,3.6885,3.6885,3.6885,3.6885,3.6885,3.6885,3.6885,3.6885,3.6885,3.6885,3.6885,3.6885,3.6885,3.6885,3.6885,3.6885,3.6885,3.6885,3.6885,3.6885,3.6885,3.6885,3.6885,0.0,0.0,0.0,0.0,0.0,0.0,0.0,0.0,0.0,0.0,4.0372,0.0,0.0,0.0,0.0,0.0,0.0,0.0,0.0,0.0,4.1211,4.1211,4.1211,4.1211,4.1211,4.1211,4.1211,4.1211,4.1211,0.0,0.0,0.0,0.0,3.7686,0.0,3.4638,3.3229,0.0,3.2397,3.2544,3.2734,3.2822,3.2822,0.0,0.0,0.0,0.0,0.0,0.0,0.0,0.0,0.0,2.8473,2.7955,2.7828,2.8208,2.902,3.0115,3.1379,3.1711,3.1711,3.1711,3.1711,3.1711,3.1711,3.1901,3.2124,3.2086,3.2439,3.2813,3.2991,3.3066,3.3307,3.3801,3.4135,3.4429,3.4775,3.5017,3.5191,3.5191,3.5191,3.5191,3.5191,3.5351,3.5631,3.6046,3.6233,3.65,3.6901,3.6885,3.6885,3.6885,3.6885,3.6885,3.6885,3.6885,3.6885,3.6885,3.6885,3.6885,3.6885,3.6885,3.6885,3.6885,3.6885,3.6885,3.6885,3.6885,3.6885,3.6885,3.6885,3.6885,3.6885,3.6885,3.6885,3.6885,0.0,0.0,0.0,0.0,0.0,0.0,0.0,0.0,0.0,0.0,4.0234,4.0644,0.0,0.0,0.0,0.0,0.0,0.0,0.0,0.0,4.1211,4.1211,4.1211,4.1211,4.1211,4.1211,4.1211,4.1211,4.1211,0.0,0.0,0.0,3.7806,3.6208,0.0,3.3357,3.228,3.231,3.25,3.2822,3.2822,3.2822,3.2822,3.2822,0.0,0.0,0.0,0.0,0.0,0.0,0.0,0.0,2.8953,2.9659,3.0848,2.9143,3.0101,3.1711,3.1711,3.1711,3.1711,3.1711,3.1711,3.1711,3.1711,3.1738,3.1797,3.2078,3.2433,3.2728,3.3009,3.324,3.3521,3.3868,3.4148,3.4429,3.4815,3.503,3.5191,3.5191,3.5191,3.5191,3.5191,3.5191,3.5444,3.6032,3.6072,3.6326,3.6845,3.6885,3.6885,3.6885,3.6885,3.6885,3.6885,3.6885,3.6885,3.6885,3.6885,3.6885,3.6885,3.6885,3.6885,3.6885,3.6885,3.6885,3.6885,3.6885,3.6885,3.6885,3.6885,3.6885,3.6885,3.6885,3.6885,3.6885,0.0,0.0,0.0,0.0,0.0,0.0,0.0,0.0,0.0,0.0,0.0,0.0,0.0,0.0,0.0,0.0,0.0,0.0,0.0,0.0,4.1211,4.1211,4.1211,4.1211,4.1211,4.1211,4.1211,4.1211,4.1211,0.0,0.0,0.0,0.0,3.4467,0.0,3.3788,3.2295,3.2602,3.2749,3.2822,3.2822,3.2822,3.2822,3.2822,3.2542,0.0,0.0,0.0,0.0,0.0,0.0,0.0,3.0644,3.0836,3.1182,3.1017,3.1326,3.1711,3.1711,3.1711,3.1711,3.1711,3.1711,3.1711,3.1711,3.1851,3.2091,3.2433,3.2728,3.2973,3.3267,3.3374,3.3587,3.4135,3.4282,3.4509,3.503,3.5151,3.5191,3.5191,3.5191,3.5191,3.5191,3.5191,3.5444,3.6032,3.6072,3.6326,3.6845,3.6885,3.6885,3.6885,3.6885,3.6885,3.6885,3.6885,3.6885,3.6885,3.6885,3.6885,3.6885,3.6885,3.6885,3.6885,3.6885,3.6885,3.6885,3.6885,3.6885,3.6885,3.6885,3.6885,3.6885,3.6885,3.6885,3.6885,0.0,0.0,0.0,0.0,0.0,0.0,0.0,0.0,0.0,0.0,0.0,0.0,0.0,0.0,0.0,0.0,0.0,0.0,0.0,0.0,0.0,4.1211,4.1211,4.0802,3.9982,3.9943,0.0,0.0,3.8848,0.0,0.0,0.0,0.0,3.4377,0.0,3.3254,3.2573,3.2749,3.2822,3.2822,3.2822,3.2645,3.2409,3.2409,3.2185,3.1867,3.1643,0.0,0.0,0.0,0.0,0.0,0.0,0.0,3.1463,3.1671,3.1711,3.1711,3.1711,3.1711,3.1711,3.1711,3.1711,3.1711,3.1711,3.2045,3.2407,3.2567,3.2822,3.3066,3.336,3.3534,3.3788,3.4242,3.4442,3.4683,3.5137,3.5191,3.5191,3.5191,3.5191,3.5191,3.5191,3.5191,3.5444,3.6032,3.6072,3.6326,3.6845,3.6885,3.6885,3.6885,3.6885,3.6885,3.6885,3.6885,3.6885,3.6885,3.6885,3.6885,3.6885,3.6885,3.6885,3.6885,3.6885,3.6885,3.6885,3.6885,3.6885,3.6885,3.6885,3.6885,3.6885,3.6885,3.6885,3.6885,0.0,0.0,0.0,0.0,0.0,0.0,0.0,0.0,0.0,0.0,0.0,0.0,0.0,0.0,0.0,0.0,0.0,0.0,0.0,0.0,0.0,0.0,4.0763,3.9943,3.821,0.0,0.0,0.0,0.0,0.0,0.0,0.0,0.0,3.4385,0.0,3.2515,3.2822,3.2822,3.2778,3.2689,3.2748,3.2452,0.0,0.0,0.0,3.168,3.1331,3.1268,3.1348,3.0987,0.0,0.0,0.0,0.0,3.1711,3.1711,3.1711,3.1711,3.1711,3.1711,3.1711,3.1711,3.1711,3.1711,3.1711,3.2166,3.2594,3.2594,3.2862,3.3133,3.3374,3.3668,3.3975,3.4269,3.4576,3.487,3.5151,3.5191,3.5191,3.5191,3.5191,3.5191,3.5191,3.5191,3.5444,3.6032,3.6072,3.6326,3.6845,3.6885,3.6885,3.6885,3.6885,3.6885,3.6885,3.6885,3.6885,3.6885,3.6885,3.6885,3.6885,3.6885,3.6885,3.6885,3.6885,3.6885,3.6885,3.6885,3.6885,3.6885,3.6885,3.6885,3.6885,3.6885,3.6885,3.6885,0.0,0.0,0.0,0.0,0.0,0.0,0.0,0.0,0.0,0.0,4.0536,4.0988,0.0,0.0,0.0,0.0,0.0,0.0,0.0,0.0,0.0,3.9001,3.8961,3.8112,3.6396,0.0,0.0,0.0,3.4957,3.4674,3.5466,3.4971,0.0,3.2629,0.0,0.0,3.2822,3.2822,3.2542,3.2128,3.24,3.2231,0.0,0.0,0.0,0.0,0.0,3.1215,3.0928,3.1089,3.1196,0.0,0.0,0.0,3.1711,3.1711,3.1711,3.1711,3.1711,3.1711,3.1711,3.1711,3.1711,3.1711,3.1711,3.2166,3.2594,3.2594,3.2973,3.336,3.34,3.3668,3.3975,3.4269,3.4576,3.487,3.5151,3.5191,3.5191,3.5191,3.5191,3.5191,3.5191,3.5191,3.5444,3.6032,3.6072,3.6326,3.6845,3.6885,3.6885,3.6885,3.6885,3.6885,3.6885,3.6885,3.6885,3.6885,3.6885,3.6885,3.6885,3.6885,3.6885,3.6885,3.6885,3.6885,3.6885,3.6885,3.6885,3.6885,3.6885,3.6885,3.6885,3.6885,3.6885,3.6885,0.0,0.0,0.0,0.0,0.0,0.0,0.0,0.0,0.0,0.0,0.0,4.1124,0.0,0.0,0.0,0.0,4.1211,4.1211,0.0,0.0,0.0,3.8645,3.7675,3.6316,3.4595,3.4711,0.0,3.3578,3.3183,3.3135,3.3466,3.3664,3.3318,0.0,0.0,0.0,0.0,3.2954,3.2729,3.231,3.267,0.0,0.0,0.0,0.0,0.0,0.0,0.0,3.1303,3.1436,3.1476,3.149,3.1623,0.0,0.0,0.0,3.1711,3.1711,3.1711,3.1711,3.1711,3.1711,3.1711,3.1711,3.1711,3.2166,3.2594,3.2594,3.3013,3.3414,3.3414,3.3801,3.4175,3.4295,3.471,3.5057,3.5177,3.5191,3.5191,3.5191,3.5191,3.5191,3.5191,3.5191,3.5444,3.6032,3.6072,3.6326,3.6845,3.6885,3.6885,3.6885,3.6885,3.6885,3.6885,3.6885,3.6885,3.6885,3.6885,3.6885,3.6885,3.6885,3.6885,3.6885,3.6885,3.6885,3.6885,3.6885,3.6885,3.6885,3.6885,3.6885,3.6885,3.6885,3.6885,3.6885,0.0,0.0,0.0,0.0,0.0,0.0,0.0,0.0,0.0,0.0,0.0,0.0,0.0,0.0,0.0,0.0,4.1211,4.1211,4.1211,0.0,0.0,3.8076,3.6477,3.4777,3.3037,3.326,3.2758,3.1563,3.2046,3.2324,3.2412,3.2705,3.2822,0.0,3.2822,3.2866,0.0,0.0,0.0,0.0,0.0,0.0,0.0,0.0,0.0,0.0,0.0,0.0,0.0,3.1711,3.1711,3.1711,3.1711,3.1711,0.0,0.0,0.0,3.1711,3.1711,3.1711,3.1711,3.1711,3.1711,3.1738,3.1805,3.2219,3.2621,3.2688,3.3053,3.3414,3.3414,3.3908,3.4322,3.4322,3.4817,3.5191,3.5191,3.5191,3.5191,3.5191,3.5191,3.5191,3.5191,3.5191,3.5444,3.6032,3.6072,3.6326,3.6845,3.6885,3.6885,3.6885,3.6885,3.6885,3.6885,3.6885,3.6885,3.6885,3.6885,3.6885,3.6885,3.6885,3.6885,3.6885,3.6885,3.6885,3.6885,3.6885,3.6885,3.6885,3.6885,3.6885,3.6885,3.6885,3.6885,3.6885,0.0,0.0,0.0,0.0,0.0,0.0,0.0,0.0,0.0,0.0,0.0,0.0,0.0,0.0,4.1211,4.1211,4.1211,4.1211,4.1211,3.9867,3.833,3.6688,3.5252,0.0,3.191,3.1882,3.2001,3.2237,3.2266,3.2441,3.2793,3.2808,3.2822,3.2822,3.2822,3.2939,3.3127,0.0,0.0,0.0,0.0,0.0,0.0,0.0,0.0,0.0,0.0,0.0,0.0,0.0,3.1711,3.1711,3.1711,3.1711,3.1711,0.0,0.0,0.0,3.1711,3.1711,3.1711,3.1711,3.1711,3.1791,3.2011,3.2367,3.2674,3.2955,3.32,3.3414,3.3414,3.3908,3.4322,3.4322,3.4817,3.5191,3.5191,3.5191,3.5191,3.5191,3.5191,3.5191,3.5191,3.5191,3.5444,3.6032,3.6072,3.6326,3.6845,3.6885,3.6885,3.6885,3.6885,3.6885,3.6885,3.6885,3.6885,3.6885,3.6885,3.6885,3.6885,3.6885,3.6885,3.6885,3.6885,3.6885,3.6885,3.6885,3.6885,3.6885,3.6885,3.6885,3.6885,3.6885,3.6885,3.6885,0.0,0.0,0.0,0.0,0.0,0.0,0.0,0.0,0.0,0.0,0.0,0.0,0.0,0.0,4.1581,4.1602,4.0747,4.024,4.024,3.7614,3.58,3.5175,3.3595,3.2425,3.1798,3.2002,3.2163,3.228,3.2544,3.2705,3.2822,3.2822,3.288,3.3071,3.3071,3.2965,3.2781,3.3016,0.0,0.0,0.0,0.0,0.0,0.0,0.0,0.0,0.0,3.1711,3.1711,3.1711,0.0,0.0,0.0,3.1711,3.1711,3.1711,3.1711,3.1711,3.1711,3.1711,3.1764,3.1904,3.1944,3.2024,3.2367,3.2661,3.2902,3.2959,3.3213,3.3414,3.3414,3.3908,3.4322,3.4322,3.4817,3.5191,3.5191,3.5191,3.5191,3.5191,3.5191,3.5191,3.5191,3.5191,3.5444,3.6032,3.6072,3.6326,3.6845,3.6885,3.6885,3.6885,3.6885,3.6885,3.6885,3.6885,3.6885,3.6885,3.6885,3.6885,3.6885,3.6885,3.6885,3.6885,3.6885,3.6885,3.6885,3.6885,3.6885,3.6885,3.6885,3.6885,3.6885,3.6885,3.6885,3.6885,0.0,0.0,0.0,0.0,0.0,0.0,0.0,0.0,0.0,0.0,0.0,0.0,0.0,0.0,0.0,4.0219,3.9327,3.8776,3.8776,3.6141,3.4578,3.4578,3.3024,3.212,3.212,3.2339,3.2485,3.2485,3.2705,3.2822,3.2822,3.288,3.3041,3.3216,3.3254,3.3115,3.2839,3.3115,3.2785,3.2087,3.2151,0.0,3.1711,0.0,0.0,3.1797,3.1751,3.1778,3.1797,3.1751,0.0,0.0,0.0,0.0,0.0,3.2019,3.2019,3.2019,3.2019,3.2019,3.2059,3.2198,3.2251,3.2332,3.2674,3.2888,3.3013,3.3106,3.328,3.3414,3.3414,3.3828,3.4202,3.4309,3.4736,3.5084,3.5177,3.5191,3.5191,3.5191,3.5191,3.5191,3.5191,3.5191,3.5444,3.6032,3.6072,3.6326,3.6845,3.6885,3.6885,3.6885,3.6885,3.6885,3.6885,3.6885,3.6885,3.6885,3.6885,3.6885,3.6885,3.6885,3.6885,3.6885,3.6885,3.6885,3.6885,3.6885,3.6885,3.6885,3.6885,3.6885,3.6885,3.6885,3.6885,3.6885,0.0,0.0,0.0,0.0,0.0,0.0,0.0,0.0,0.0,0.0,0.0,0.0,0.0,0.0,0.0,3.7166,3.6992,3.6968,3.6968,3.5603,3.483,3.483,3.3538,0.0,0.0,3.2822,3.2822,3.2822,3.2822,3.2822,3.2837,3.31,3.3216,3.326,3.343,3.3486,3.3454,3.2915,3.257,3.2327,3.1914,3.1724,3.1711,3.1724,3.1851,3.2051,3.1784,3.1864,3.2064,3.1784,3.1738,0.0,0.0,0.0,0.0,0.0,0.0,3.2594,0.0,0.0,0.0,3.2607,3.2607,3.2688,3.2969,3.2986,3.3066,3.336,3.3414,3.3414,3.3414,3.3668,3.3975,3.4269,3.4576,3.487,3.5151,3.5191,3.5191,3.5191,3.5191,3.5191,3.5191,3.5191,3.5431,3.6019,3.6072,3.6326,3.6845,3.6885,3.6885,3.6885,3.6885,3.6885,3.6885,3.6885,3.6885,3.6885,3.6885,3.6885,3.6885,3.6885,3.6885,3.6885,3.6885,3.6885,3.6885,3.6885,3.6885,3.6885,3.6817,3.6817,3.6885,3.6817,3.6817,3.6817,0.0,0.0,0.0,0.0,0.0,0.0,0.0,0.0,0.0,0.0,0.0,0.0,0.0,0.0,0.0,0.0,3.6519,3.5913,3.5913,3.4337,3.3364,3.3364,3.3028,3.2822,3.2822,3.2822,3.2822,3.2822,3.2822,3.2895,3.307,3.3158,3.345,3.3903,3.3631,3.3414,3.3239,3.2708,3.2245,3.1914,3.1938,3.1851,3.1738,3.1904,3.1904,3.181,3.1931,3.2038,3.2118,3.23,3.2353,3.2367,0.0,0.0,0.0,0.0,0.0,0.0,3.2594,0.0,0.0,0.0,0.0,0.0,3.3227,3.3293,3.332,3.3387,3.3414,3.3414,3.3414,3.348,3.3708,3.4242,3.4576,3.487,3.5151,3.5191,3.5191,3.5191,3.5191,3.5191,3.5191,3.5191,3.5351,3.5725,3.5952,3.6233,3.6607,3.6779,3.6885,3.6885,3.6885,3.6885,3.6885,3.6885,3.6885,3.6885,3.6885,3.6885,3.6885,3.6885,3.6885,3.6885,3.6885,3.6885,3.6885,3.6885,3.6885,3.6733,3.4971,3.5374,3.6664,3.4971,3.429,3.429,0.0,0.0,0.0,0.0,0.0,0.0,0.0,0.0,0.0,0.0,0.0,0.0,0.0,0.0,0.0,0.0,3.485,3.4362,3.4362,3.3382,0.0,0.0,3.2822,0.0,3.2822,3.2822,3.2837,3.2968,3.2968,3.3129,3.3406,3.3537,0.0,0.0,3.3522,3.3196,3.2847,3.245,3.2137,3.1851,3.1904,3.1971,3.2086,3.2091,3.2144,3.2273,3.2265,3.2372,3.2478,3.2581,3.2674,0.0,0.0,0.0,0.0,0.0,0.0,0.0,0.0,0.0,0.0,3.312,0.0,0.0,3.3374,3.3414,3.3414,3.3414,3.3414,3.3414,3.3414,3.3414,3.3574,3.4055,3.4389,3.4723,3.5137,3.5191,3.5191,3.5191,3.5191,3.5191,3.5191,3.5191,3.5311,3.5551,3.5912,3.6259,3.6647,3.6834,3.6885,3.6885,3.6885,3.6885,3.6885,3.6885,3.6387,3.5374,3.5374,3.4847,3.3887,3.3887,3.3887,3.3887,3.3887,3.3887,3.3887,3.3887,3.4501,3.5181,3.2744,3.2656,3.3707,3.2319,3.1802,3.1802,0.0,0.0,0.0,0.0,0.0,0.0,0.0,0.0,0.0,0.0,0.0,0.0,0.0,0.0,0.0,0.0,3.2822,3.2822,3.2822,0.0,0.0,0.0,0.0,0.0,0.0,3.2822,3.2983,3.326,3.326,3.3421,3.3696,0.0,0.0,0.0,0.0,3.2861,3.2429,3.2176,3.2144,3.2171,3.1917,3.2152,3.2567,3.2291,3.2505,3.2955,3.2728,3.2808,3.2995,3.2768,3.2862,3.3026,0.0,0.0,0.0,0.0,3.3414,0.0,0.0,0.0,0.0,0.0,3.3414,0.0,3.3414,3.3414,3.3414,3.3414,3.3414,3.3414,3.3414,3.3414,3.3521,3.3841,3.4135,3.4509,3.507,3.5177,3.5191,3.5191,3.5191,3.5191,3.5191,3.5191,3.5311,3.5565,3.5885,3.6326,3.6845,3.6885,3.6761,3.654,3.6484,3.6387,3.6083,3.6083,3.5027,3.288,3.288,3.1791,2.9706,2.9706,2.9706,2.9706,2.9706,2.9706,2.9706,2.9424,3.0722,3.2656,3.026,2.9434,2.965,2.9424,2.9311,2.9311,0.0,0.0,0.0,0.0,0.0,0.0,0.0,0.0,0.0,0.0,0.0,0.0,0.0,0.0,0.0,0.0,0.0,3.2822,0.0,0.0,0.0,0.0,0.0,0.0,0.0,3.3114,3.326,3.3596,3.3596,3.3574,3.3525,3.3596,0.0,0.0,3.2772,3.264,3.2777,3.2318,3.2372,3.2799,3.2746,3.2701,3.2607,3.2795,3.2781,3.2701,3.2875,3.2982,3.3,3.3187,3.328,3.3334,3.3334,3.336,3.3414,3.3414,0.0,0.0,0.0,0.0,0.0,3.3414,3.3414,0.0,3.3414,3.3414,3.3414,3.3414,3.3414,3.3414,3.3414,3.3414,3.3521,3.3841,3.4135,3.4442,3.4803,3.5044,3.5191,3.5191,3.5191,3.5191,3.5191,3.5191,3.5217,3.5271,3.5778,3.6326,3.6845,3.6885,3.5985,3.4079,3.4011,3.3092,3.1116,3.1116,3.0846,3.0384,3.0384,3.0169,2.9706,2.9706,2.9706,2.9706,2.9706,2.9706,2.9526,2.762,2.8234,3.0169,2.777,2.8017,2.9434,2.7496,2.6813,2.6813,0.0,0.0,0.0,0.0,0.0,0.0,0.0,0.0,0.0,0.0,0.0,0.0,0.0,0.0,0.0,0.0,0.0,0.0,0.0,0.0,0.0,0.0,0.0,0.0,0.0,0.0,3.3596,3.3932,3.3703,3.3631,3.3701,3.3467,3.3164,0.0,3.2714,3.2579,3.2502,3.2557,3.2706,3.3009,3.2875,3.2902,3.2973,3.2973,3.2973,3.3,3.3146,3.32,3.3213,3.336,3.3414,3.3414,3.3414,3.3414,3.3414,3.3414,3.3414,3.3414,0.0,3.3414,3.3414,3.3414,3.3414,0.0,0.0,3.3414,3.3414,3.3414,3.3414,3.3414,3.3414,3.3414,3.3467,3.3627,3.3908,3.4202,3.4496,3.4923,3.5191,3.5191,3.5191,3.5191,3.5191,3.5191,3.5257,3.5404,3.5819,3.6259,3.6687,3.6805,3.5793,3.3396,3.3272,3.2139,2.9706,2.9706,2.9095,2.7894,2.7894,2.7279,2.6082,2.6082,2.6082,2.6082,2.6082,2.6082,2.6044,2.4786,2.5024,2.5987,2.4786,2.5063,2.5977,2.4729,2.4327,2.4327,0.0,0.0,0.0,0.0,0.0,0.0,0.0,0.0,0.0,0.0,0.0,0.0,0.0,0.0,0.0,0.0,0.0,0.0,0.0,0.0,0.0,0.0,0.0,3.3576,0.0,0.0,3.3657,3.4022,3.3618,3.3528,3.3672,3.3308,3.291,3.2457,3.2702,3.2659,3.2305,3.2772,3.3013,3.304,3.2848,3.2986,3.3387,3.3146,3.32,3.3414,3.3414,3.3414,3.3414,3.3414,3.3414,3.3414,3.3414,3.3414,3.3414,3.3414,3.3414,3.3414,3.3414,3.3414,3.3414,3.3414,3.3414,3.3414,0.0,0.0,0.0,3.3414,3.3414,3.3414,3.3414,3.3414,3.3387,3.3334,3.3641,3.3948,3.4122,3.471,3.5137,3.5191,3.5191,3.5191,3.5191,3.5191,3.5311,3.5551,3.5912,3.6206,3.65,3.6739,3.5583,3.2724,3.26,3.124,2.8348,2.8291,2.7335,2.5406,2.5406,2.4385,2.253,2.253,2.253,2.253,2.253,2.253,2.253,2.253,2.253,2.253,2.253,2.253,2.253,2.253,2.253,2.253,4.2101,4.2695,0.0,0.0,0.0,0.0,0.0,0.0,0.0,3.6031,0.0,0.0,0.0,0.0,0.0,0.0,0.0,0.0,3.3201,0.0,0.0,0.0,0.0,0.0,3.3521,0.0,0.0,3.3309,3.3262,3.3133,3.301,3.2962,3.2824,3.2598,3.2624,3.2737,3.2879,3.2946,3.3133,3.336,3.332,3.336,3.3414,3.3374,3.3387,3.3414,3.3414,3.3414,3.3414,3.3414,3.3414,3.3414,3.3414,3.3414,3.3414,3.3414,3.3414,3.3414,3.3414,3.3414,3.3414,3.3414,3.3414,3.3414,3.3414,0.0,3.3414,3.3414,0.0,3.3414,3.3414,0.0,0.0,3.3066,3.3507,3.3801,3.3547,3.4269,3.491,3.5164,3.5191,3.5191,3.5191,3.5191,3.5311,3.5551,3.5912,3.6206,3.65,3.6739,3.4779,3.026,3.0102,2.7894,2.3369,2.3328,2.3205,2.2925,2.2925,2.2744,2.253,2.253,2.253,2.253,2.253,2.253,2.253,2.253,2.253,2.253,2.253,2.253,2.253,2.253,2.253,2.253,0.0,4.0704,0.0,0.0,3.9747,0.0,0.0,0.0,3.4784,3.4011,3.3293,0.0,0.0,0.0,0.0,0.0,0.0,3.3476,0.0,0.0,0.0,0.0,0.0,0.0,0.0,0.0,0.0,3.3429,3.3158,3.3071,3.3133,3.2843,3.2668,3.2607,3.2768,3.2915,3.2986,3.316,3.3293,3.3414,3.3414,3.3414,3.3414,3.3414,3.3414,3.3414,3.3414,3.3414,3.3414,3.3414,3.3414,3.3414,3.3414,3.3414,3.3414,3.3414,3.3414,3.3414,3.3414,3.3414,3.3414,3.3414,3.3414,3.3414,3.3414,3.3414,3.3414,3.3414,0.0,0.0,0.0,0.0,0.0,0.0,3.344,3.3627,3.3681,3.4015,3.4429,3.4883,3.5097,3.5191,3.5191,3.5191,3.5244,3.5364,3.4489,3.4011,3.4137,3.454,3.26,2.777,2.8971,2.7402,2.253,2.253,2.253,2.253,2.253,2.253,2.253,2.253,2.253,2.253,2.253,2.253,2.253,2.253,2.253,2.253,2.253,2.253,2.253,2.253,2.253,2.253,0.0,0.0,0.0,0.0,3.7809,3.6837,3.5046,3.3631,3.2852,3.2895,3.2895,3.3027,3.3304,3.3198,0.0,0.0,3.3437,3.3366,0.0,0.0,3.3374,0.0,0.0,0.0,0.0,0.0,0.0,3.3319,3.2996,3.2953,3.319,3.2861,3.2755,3.2835,3.3,3.3093,3.3106,3.332,3.3414,3.3414,3.3414,3.3467,3.3534,3.344,3.3414,3.3414,3.3414,3.3414,3.3414,3.3414,3.3414,3.3414,3.3414,3.3414,3.3414,3.3414,3.3414,3.3414,3.3414,3.3414,3.3414,3.3414,3.3414,3.3414,3.3414,3.3414,3.3414,3.3414,3.3414,0.0,0.0,0.0,3.3387,3.3307,0.0,3.3467,3.3614,3.3788,3.4108,3.4748,3.5017,3.5191,3.5191,3.5191,3.5191,3.5191,3.4012,3.3045,3.241,3.291,3.1004,2.6263,2.777,2.6719,2.253,2.253,2.253,2.253,2.253,2.253,2.253,2.253,2.253,2.253,2.253,2.253,2.253,2.253,2.253,2.253,2.253,2.253,2.253,2.253,2.253,2.253,3.564,3.7036,0.0,3.8195,3.6751,3.4959,3.3161,3.2852,3.288,3.3143,3.3187,3.3304,3.364,3.3259,0.0,0.0,0.0,3.2747,3.2747,0.0,3.321,0.0,0.0,3.2907,0.0,0.0,0.0,3.2629,3.2629,3.2728,3.3009,3.3009,3.312,3.3387,3.3387,3.34,3.34,3.3414,3.3414,3.3414,3.3414,3.3601,3.3841,3.3534,3.3414,3.3414,3.3414,3.3414,3.3414,3.3414,3.3414,3.3414,3.3414,3.3414,3.3414,3.3414,3.3414,3.3414,3.3414,3.3414,3.3414,3.3414,3.3414,3.3414,3.3414,3.3414,3.3414,3.3414,3.3414,3.3414,3.3414,3.3414,0.0,0.0,3.3227,0.0,0.0,3.3521,3.4108,3.4748,3.5017,3.5191,3.5191,3.5191,3.5191,3.5191,3.5365,3.4611,3.2495,3.273,3.0845,2.6234,2.6196,2.5006,2.253,2.253,2.253,2.253,2.253,2.253,2.253,2.253,2.253,2.253,2.253,2.253,2.253,2.253,2.253,2.253,2.253,2.253,2.253,2.253,2.253,2.253,0.0,0.0,0.0,3.4656,3.4099,3.3574,3.3145,3.3276,3.3451,3.3508,3.3251,3.3199,3.3516,3.3115,3.2877,0.0,0.0,3.2868,3.2539,3.2829,0.0,0.0,0.0,3.2689,0.0,0.0,0.0,0.0,3.2875,3.2986,3.3267,3.3267,3.332,3.3414,3.3414,3.3414,3.3414,3.3414,3.3534,3.3748,3.3935,3.4082,3.4135,3.3841,3.3841,3.4015,3.4015,3.4015,3.4015,3.4015,3.4015,3.4015,3.4015,3.4015,3.4015,3.4015,3.4015,3.4015,3.4015,3.4015,3.4015,3.4015,3.4015,3.4015,3.4015,3.4015,3.4015,3.4015,3.3855,3.3721,3.3721,0.0,0.0,0.0,0.0,0.0,0.0,3.3627,3.4028,3.4429,3.4736,3.499,3.5177,3.5191,3.5191,3.5191,3.3994,3.2296,3.013,3.0332,2.8438,2.3886,2.5244,2.4967,2.253,2.253,2.253,2.253,2.253,2.253,2.253,2.253,2.253,2.253,2.253,2.253,2.253,2.253,2.253,2.253,2.253,2.253,2.253,2.253,2.253,2.253,3.3085,3.3276,3.3274,3.2997,3.3027,3.3188,3.3348,3.3416,3.3499,3.3615,3.3217,3.3009,3.3368,3.293,3.2672,3.2913,3.2752,3.2557,3.2334,3.2524,0.0,3.23,3.2594,0.0,0.0,0.0,0.0,0.0,0.0,3.3227,3.3414,3.3414,3.3467,3.3574,3.3574,3.3641,3.3734,3.3734,3.3855,3.4055,3.4242,3.4389,3.4456,3.4269,3.4242,3.4322,3.4322,3.4322,3.4322,3.4322,3.4322,3.4322,3.4322,3.4322,3.4322,3.4322,3.4322,3.4322,3.4322,3.4322,3.4322,3.4322,3.4322,3.4322,3.4322,3.4322,3.4322,3.4322,3.4175,3.4042,3.4042,0.0,0.0,0.0,0.0,0.0,0.0,3.3587,3.3868,3.4269,3.4589,3.4936,3.5164,3.5191,3.5191,3.5191,3.3145,3.0998,2.893,2.8258,2.6259,2.2629,2.3983,2.4049,2.253,2.253,2.253,2.253,2.253,2.253,2.253,2.253,2.253,2.253,2.253,2.253,2.253,2.253,2.253,2.253,2.253,2.253,2.253,2.253,2.253,2.253,3.3625,3.3698,3.358,3.3273,3.3463,3.3667,3.3667,3.3271,3.3111,3.3425,3.3022,3.2794,3.3135,3.2705,3.2388,3.2388,3.1988,3.1824,3.2104,3.2144,0.0,0.0,3.2888,3.3,3.3,0.0,0.0,0.0,0.0,3.3414,3.3427,3.3427,3.3601,3.3908,3.3806,3.3902,3.4116,3.4116,3.4219,3.4349,3.4362,3.4536,3.479,3.4724,3.4551,3.4362,3.4362,3.4362,3.4362,3.4362,3.4362,3.4362,3.4362,3.4362,3.4362,3.4362,3.4362,3.4362,3.4362,3.4362,3.4362,3.4362,3.4362,3.4362,3.4362,3.4362,3.4362,3.4362,3.4349,3.4336,3.4336,3.4336,0.0,0.0,0.0,0.0,3.3494,3.3454,3.3681,3.4269,3.4589,3.4936,3.5164,3.5191,3.5138,3.5032,3.2982,3.0781,2.8754,2.659,2.4504,2.2563,2.253,2.253,2.253,2.253,2.253,2.253,2.253,2.253,2.253,2.253,2.253,2.253,2.253,2.253,2.253,2.253,2.253,2.253,2.253,2.253,2.253,2.253,2.253,2.253,3.3669,3.3613,3.3493,3.3265,3.3397,3.3403,3.3005,3.3078,3.3154,3.3286,3.2816,3.2514,3.2597,3.2327,3.2176,3.2176,3.2294,3.2407,0.0,0.0,0.0,3.2915,3.3146,3.3293,3.3293,3.3374,0.0,3.3414,0.0,3.3534,3.3761,3.3761,3.3921,3.4099,3.2428,3.173,3.1741,3.1741,3.2864,3.467,3.4883,3.5017,3.5084,3.5084,3.503,3.4977,3.4977,3.4977,3.4977,3.4977,3.4977,3.4977,3.4977,3.4977,3.4977,3.4977,3.4977,3.4977,3.4977,3.4977,3.4977,3.4977,3.4977,3.4977,3.4977,3.4977,3.4977,3.4977,3.4803,3.4643,3.4643,3.4469,3.4295,0.0,0.0,0.0,0.0,3.4082,3.4229,3.4603,3.4762,3.4936,3.5164,3.5191,3.4491,3.2717,3.2066,3.0134,2.645,2.5691,2.4504,2.2563,2.253,2.253,2.253,2.253,2.253,2.253,2.253,2.253,2.253,2.253,2.253,2.253,2.253,2.253,2.253,2.253,2.253,2.253,2.253,2.253,2.253,2.253,2.253,2.253,3.4124,3.3883,3.3539,3.3128,3.3027,3.3019,3.2911,3.2863,3.2888,3.3074,3.2613,3.2334,3.2456,3.2391,3.234,3.234,3.25,3.2648,3.2781,0.0,0.0,3.316,3.332,3.3414,3.3414,3.3547,0.0,3.3614,0.0,3.3895,3.4068,3.4068,3.3702,3.2928,3.1653,3.1139,3.1247,3.1247,3.1542,3.207,3.3184,3.3684,0.0,3.4953,3.5378,3.5245,3.4325,3.4488,3.5191,3.5191,3.5191,3.5191,3.5191,3.5191,3.5191,3.5191,3.5191,3.5191,3.5191,3.5191,3.5191,3.5191,3.5191,3.5191,3.5191,3.5191,3.5191,3.5191,3.507,3.495,3.495,3.4817,3.4656,3.4536,0.0,0.0,0.0,3.4322,3.4429,3.4775,3.4815,3.4504,3.3765,3.4597,3.4227,3.1906,3.0774,2.8782,2.557,2.4435,2.344,2.2506,2.253,2.253,2.253,2.253,2.253,2.253,2.253,2.253,2.253,2.253,2.253,2.253,2.253,2.253,2.253,2.253,2.253,2.253,2.253,2.253,2.253,2.253,2.253,2.253,3.4508,3.4171,3.361,3.2983,3.2613,3.2578,3.3052,3.2693,3.2491,3.2839,3.2447,3.2251,3.2567,3.2621,3.2648,3.2648,3.2688,3.2808,3.3013,3.304,3.3146,3.34,3.3454,3.3467,3.3467,3.3788,0.0,0.0,0.0,3.3704,3.3485,3.3434,3.2524,3.0869,3.0605,3.0563,3.0828,3.0828,2.9822,2.8565,3.0821,3.1754,3.2028,3.4336,3.519,3.4895,3.2707,3.3376,3.5258,3.4927,3.5046,3.5311,3.5311,3.5311,3.5311,3.5311,3.5311,3.5311,3.5311,3.5311,3.5311,3.5311,3.5284,3.5257,3.5257,3.5231,3.5191,3.5191,3.5191,3.5191,3.5191,3.5191,3.511,3.4909,3.4603,3.4326,3.4016,3.3964,3.3953,3.3941,3.4229,0.0,3.1456,3.3631,3.4108,3.1468,2.9424,2.7479,2.5514,2.3147,2.2107,2.2506,2.253,2.253,2.253,2.253,2.253,2.253,2.253,2.253,2.253,2.253,2.253,2.253,2.253,2.253,2.253,2.253,2.253,2.253,2.253,2.253,2.253,2.253,2.253,2.253,3.3913,3.3559,3.3271,3.2743,3.2619,3.2592,3.2676,3.2377,3.2276,3.2619,3.2562,3.2541,3.2581,3.2808,3.2955,3.2955,3.312,3.328,3.3334,3.3334,3.336,3.3414,3.3668,3.3801,3.3801,3.4095,3.3304,0.0,0.0,3.0653,2.8999,2.8946,2.8921,2.8725,2.6789,2.5954,2.5984,2.5984,2.7006,2.875,3.1144,3.2193,3.2332,3.2816,3.2937,3.2677,3.0306,3.2253,3.5643,3.3593,3.4255,3.5925,3.5925,3.5925,3.5925,3.5925,3.5925,3.5925,3.5925,3.5925,3.5925,3.5925,3.5738,3.5551,3.5551,3.5364,3.5191,3.5191,3.5191,3.5191,3.5191,3.5191,3.5177,3.5124,3.507,3.44,3.2409,3.2144,3.1455,2.9689,3.1089,3.1367,2.9102,3.2717,3.3472,2.921,2.8511,2.7479,2.5514,2.3147,2.2107,2.2506,2.253,2.253,2.253,2.253,2.253,2.253,2.253,2.253,2.253,2.253,2.253,2.253,2.253,2.253,2.253,2.253,2.253,2.253,2.253,2.253,2.253,2.253,2.253,2.253,3.3546,3.336,3.3219,3.2893,3.2701,3.2701,3.2946,3.2879,3.2786,3.2822,3.2955,3.3053,3.3276,3.3507,3.3668,3.3668,3.3801,3.3881,3.3881,3.3881,3.3881,3.3881,3.4028,3.4108,3.4108,3.4402,3.3434,3.1103,0.0,0.0,0.0,2.8081,2.749,2.6417,2.5288,2.4201,2.3268,2.4476,2.5018,2.5336,2.7746,2.8723,2.8896,3.0309,3.0785,3.0519,2.8212,2.9697,3.2728,3.2494,3.3186,3.4408,3.568,3.6072,3.6072,3.6072,3.6072,3.6072,3.6072,3.6072,3.6072,3.6072,3.5965,3.5859,3.5859,3.5752,3.5645,3.5645,3.4605,3.3584,3.3445,3.3354,3.379,3.498,3.5191,3.4385,3.2013,3.1681,3.0828,2.8565,2.9274,2.9048,2.6688,2.9596,3.0186,2.6742,2.7606,2.6935,2.3746,2.2482,2.2107,2.2506,2.253,2.253,2.253,2.253,2.253,2.253,2.253,2.253,2.253,2.253,2.253,2.253,2.253,2.253,2.253,2.253,2.253,2.253,2.253,2.253,2.253,2.253,2.253,2.253,3.3469,3.3364,3.3277,3.3125,3.2982,3.3036,3.344,3.3561,3.3494,3.3213,3.3427,3.3694,3.3948,3.4189,3.4322,3.4322,3.4322,3.4322,3.4322,3.4322,3.4322,3.4322,3.4376,3.4416,3.4416,3.4228,3.2984,0.0,0.0,2.9026,2.6778,2.6819,2.5841,2.412,2.4165,2.3283,2.1876,2.3637,2.3473,2.2154,2.4536,2.5525,2.5787,2.7841,2.8596,2.8326,2.6149,2.6538,2.8456,3.0421,3.1754,3.295,3.4859,3.5866,3.6259,3.6259,3.6259,3.6259,3.6259,3.6259,3.6259,3.6259,3.6206,3.6057,3.5556,3.5341,3.518,3.4625,3.2917,3.14,3.1134,3.1052,3.1659,3.3496,3.3776,3.2929,3.056,3.0239,2.9371,2.711,2.7272,2.6634,2.431,2.6634,2.7141,2.4374,2.6325,2.6176,2.2811,2.2194,2.2131,2.2464,2.253,2.253,2.253,2.253,2.253,2.253,2.253,2.253,2.253,2.253,2.253,2.253,2.253,2.253,2.253,2.253,2.253,2.253,2.253,2.253,2.253,2.253,2.253,2.253,3.365,3.3507,3.3383,3.336,3.3587,3.3774,3.3841,3.4068,3.4135,3.3841,3.4055,3.4242,3.4282,3.4295,3.4322,3.4322,3.4322,3.4322,3.4322,3.4322,3.4322,3.4322,3.4576,3.4775,3.4775,3.2965,3.0846,0.0,0.0,2.4163,2.1799,2.1967,2.2024,2.2024,2.2134,2.2048,2.1912,2.2129,2.2179,2.2383,2.4811,2.5855,2.6035,2.6329,2.6396,2.6111,2.3705,2.2991,2.355,2.5873,2.9585,3.3268,3.3491,3.5049,3.6805,3.6805,3.6805,3.6805,3.6805,3.6805,3.6805,3.6805,3.6647,3.5887,3.3678,3.2962,3.2137,2.9943,2.9316,2.9084,2.9052,2.8967,2.8934,2.9152,2.9084,2.8145,2.5767,2.5442,2.4582,2.229,2.3874,2.4201,2.1932,2.5713,2.6552,2.2323,2.41,2.5287,2.5068,2.3206,2.2253,2.2464,2.253,2.253,2.253,2.253,2.253,2.253,2.253,2.253,2.253,2.253,2.253,2.253,2.253,2.253,2.253,2.253,2.253,2.253,2.253,2.253,2.253,2.253,2.253,2.253,3.3795,3.3765,3.3748,3.3921,3.4068,3.4148,3.4148,3.4402,3.4603,3.467,3.4616,3.4576,3.4589,3.4897,3.511,3.511,3.5271,3.5378,3.5378,3.5378,3.5378,3.5378,3.406,3.3349,3.3349,3.1118,2.8825,2.6544,0.0,2.3933,2.1556,2.1676,2.1741,2.1831,2.1896,2.1945,2.2082,2.2082,2.2188,2.2481,2.3439,2.3883,2.3943,2.3943,2.3943,2.3828,2.2867,2.253,2.2645,2.3607,2.6196,2.9243,3.0666,3.2812,3.4749,3.4749,3.5793,3.6885,3.6885,3.5861,3.4749,3.4749,3.4648,3.3974,3.1518,3.2006,3.2281,2.9818,2.809,2.6962,2.6767,2.6723,2.715,2.8516,2.8671,2.7786,2.5498,2.5176,2.4283,2.1996,2.2471,2.271,2.182,2.336,2.3737,2.1926,2.3867,2.4652,2.3519,2.2659,2.2277,2.2464,2.253,2.253,2.253,2.253,2.253,2.253,2.253,2.253,2.253,2.253,2.253,2.253,2.253,2.253,2.253,2.253,2.253,2.253,2.253,2.253,2.253,2.253,2.253,2.253,3.3975,3.4015,3.4082,3.4282,3.4469,3.4576,3.4576,3.4897,3.527,3.5431,3.5271,3.5137,3.5203,3.5511,3.5765,3.5765,3.5952,3.6072,3.6072,3.6072,3.5789,3.5017,3.3349,3.207,3.1359,2.9051,2.7015,2.5422,2.4706,2.3513,2.1847,2.1856,2.1953,2.1961,2.2066,2.2172,2.2277,2.2277,2.24,2.253,2.253,2.253,2.253,2.253,2.253,2.253,2.253,2.253,2.253,2.253,2.3607,2.5463,2.7894,3.0316,3.2263,3.2263,3.3428,3.4779,3.4779,3.3552,3.2263,3.2263,3.2263,3.1589,2.9187,2.9978,3.0508,2.8074,2.6139,2.4761,2.456,2.4488,2.5012,2.6604,2.6823,2.6201,2.4585,2.437,2.3772,2.2089,2.188,2.188,2.188,2.188,2.1896,2.2001,2.3367,2.3652,2.2286,2.2237,2.2342,2.253,2.253,2.253,2.253,2.253,2.253,2.253,2.253,2.253,2.253,2.253,2.253,2.253,2.253,2.253,2.253,2.253,2.253,2.253,2.253,2.253,2.253,2.253,2.253,2.253,3.4309,3.4322,3.4322,3.4322,3.4803,3.5191,3.5191,3.5685,3.6113,3.6113,3.6113,3.6059,3.6059,3.6113,3.6072,3.6072,3.6126,3.6072,3.6072,3.6072,3.5017,3.2531,3.241,3.1293,2.8896,2.6626,2.5422,2.5422,2.3108,2.1855,2.1716,2.1847,2.2017,2.2188,2.2383,2.2464,2.253,2.253,2.253,2.253,2.253,2.253,2.253,2.253,2.253,2.253,2.253,2.253,2.253,2.253,2.253,2.2991,2.5397,2.777,2.9763,2.9763,2.9763,2.9774,2.9774,2.9763,2.9763,2.9763,2.9763,2.9095,2.67,2.6139,2.552,2.3089,2.2588,2.253,2.253,2.2375,2.2253,2.2253,2.2098,2.1993,2.1936,2.1936,2.1936,2.188,2.188,2.188,2.188,2.188,2.2001,2.2172,2.2196,2.2196,2.2188,2.2359,2.253,2.253,2.253,2.253,2.253,2.253,2.253,2.253,2.253,2.253,2.253,2.253,2.253,2.253,2.253,2.253,2.253,2.253,2.253,2.253,2.253,2.253,2.253,2.253,2.253,2.253,3.4589,3.4776,3.4977,3.5125,3.5538,3.5792,3.5792,3.6006,3.6139,3.634,3.6366,3.6433,3.6647,3.6473,3.6366,3.6366,3.5045,3.4208,3.4208,3.2674,3.1393,3.06,2.8965,2.7738,2.7005,2.4654,2.3428,2.3428,2.2694,2.2277,2.2269,2.2277,2.2318,2.2383,2.2448,2.253,2.253,2.253,2.253,2.253,2.253,2.253,2.253,2.253,2.253,2.253,2.253,2.253,2.253,2.253,2.253,2.2645,2.3426,2.5301,2.7279,2.7279,2.8415,2.9706,2.9706,2.8507,2.7279,2.7279,2.7279,2.6605,2.4221,2.3647,2.3426,2.2645,2.253,2.253,2.253,2.2424,2.2383,2.2383,2.2342,2.2302,2.2302,2.2302,2.2302,2.2302,2.2302,2.2302,2.2302,2.2302,2.2318,2.2383,2.2383,2.2383,2.2383,2.2481,2.253,2.253,2.253,2.253,2.253,2.253,2.253,2.253,2.253,2.253,2.253,2.253,2.253,2.253,2.253,2.253,2.253,2.253,2.253,2.253,2.253,2.253,2.253,2.253,2.253,2.253,3.5191,3.5404,3.5578,3.5765,3.6046,3.6233,3.6233,3.6326,3.6473,3.6647,3.589,3.5348,3.5528,3.4585,3.4293,3.5215,3.3243,3.1926,3.1926,3.0564,2.9311,2.8415,2.688,2.5683,2.4786,2.327,2.253,2.253,2.253,2.253,2.253,2.253,2.253,2.253,2.253,2.253,2.253,2.253,2.253,2.253,2.253,2.253,2.253,2.253,2.253,2.253,2.253,2.253,2.253,2.253,2.253,2.253,2.253,2.355,2.4729,2.4729,2.5806,2.7004,2.7004,2.592,2.4729,2.4729,2.4729,2.4327,2.2867,2.253,2.253,2.253,2.253,2.253,2.253,2.253,2.253,2.253,2.253,2.253,2.253,2.253,2.253,2.253,2.253,2.253,2.253,2.253,2.253,2.253,2.253,2.253,2.253,2.253,2.253,2.253,2.253,2.253,2.253,2.253,2.253,2.253,2.253,2.253,2.253,2.253,2.253,2.253,2.253,2.253,2.253,2.253,2.253,2.253,2.253,2.253,2.253,2.253,2.253,2.253,3.6019,3.6086,3.6153,3.6153,3.634,3.654,3.654,3.6754,3.6817,3.6664,3.4693,3.3216,3.306,3.0902,3.0327,3.26,3.0722,2.9434,2.9434,2.9311,2.8178,2.5959,2.5863,2.4786,2.253,2.253,2.253,2.253,2.253,2.253,2.253,2.253,2.253,2.253,2.253,2.253,2.253,2.253,2.253,2.253,2.253,2.253,2.253,2.253,2.253,2.253,2.253,2.253,2.253,2.253,2.253,2.253,2.253,2.253,2.253,2.253,2.253,2.253,2.253,2.253,2.253,2.253,2.253,2.253,2.253,2.253,2.253,2.253,2.253,2.253,2.253,2.253,2.253,2.253,2.253,2.253,2.253,2.253,2.253,2.253,2.253,2.253,2.253,2.253,2.253,2.253,2.253,2.253,2.253,2.253,2.253,2.253,2.253,2.253,2.253,2.253,2.253,2.253,2.253,2.253,2.253,2.253,2.253,2.253,2.253,2.253,2.253,2.253,2.253,2.253,2.253,2.253,2.253,2.253,2.253,2.253,3.6059,3.6246,3.6393,3.6393,3.6647,3.6834,3.6834,3.6845,3.6263,3.4414,3.3676,3.26,3.0722,2.8415,2.7155,2.777,2.7279,2.6937,2.6937,2.5244,2.3952,2.3369,2.3369,2.3089,2.253,2.253,2.253,2.253,2.253,2.253,2.253,2.253,2.253,2.253,2.253,2.253,2.253,2.253,2.253,2.253,2.253,2.253,2.253,2.253,2.253,2.253,2.253,2.253,2.253,2.253,2.253,2.253,2.253,2.253,2.253,2.253,2.253,2.253,2.253,2.253,2.253,2.253,2.253,2.253,2.253,2.253,2.253,2.253,2.253,2.253,2.253,2.253,2.253,2.253,2.253,2.253,2.253,2.253,2.253,2.253,2.253,2.253,2.253,2.253,2.253,2.253,2.253,2.253,2.253,2.253,2.253,2.253,2.253,2.253,2.253,2.253,2.253,2.253,2.253,2.253,2.253,2.253,2.253,2.253,2.253,2.253,2.253,2.253,2.253,2.253,2.253,2.253,2.253,2.253,2.253,2.253,3.6433,3.658,3.6687,3.6687,3.6779,3.6885,3.6885,3.5985,3.4779,3.3484,3.1397,2.9491,2.8178,2.592,2.4442,2.4442,2.4442,2.4442,2.4442,2.3205,2.253,2.253,2.253,2.253,2.253,2.253,2.253,2.253,2.253,2.253,2.253,2.253,2.253,2.253,2.253,2.253,2.253,2.253,2.253,2.253,2.253,2.253,2.253,2.253,2.253,2.253,2.253,2.253,2.253,2.253,2.253,2.253,2.253,2.253,2.253,2.253,2.253,2.253,2.253,2.253,2.253,2.253,2.253,2.253,2.253,2.253,2.253,2.253,2.253,2.253,2.253,2.253,2.253,2.253,2.253,2.253,2.253,2.253,2.253,2.253,2.253,2.253,2.253,2.253,2.253,2.253,2.253,2.253,2.253,2.253,2.253,2.253,2.253,2.253,2.253,2.253,2.253,2.253,2.253,2.253,2.253,2.253,2.253,2.253,2.253,2.253,2.253,2.253,2.253,2.253,2.253,2.253,2.253,2.253,2.253,2.253,3.6845,3.6885,3.6885,3.6885,3.6885,3.6761,3.6416,3.4624,3.306,3.2319,2.8631,2.5959,2.5587,2.3705,2.253,2.253,2.253,2.253,2.253,2.253,2.253,2.253,2.253,2.253,2.253,2.253,2.253,2.253,2.253,2.253,2.253,2.253,2.253,2.253,2.253,2.253,2.253,2.253,2.253,2.253,2.253,2.253,2.253,2.253,2.253,2.253,2.253,2.253,2.253,2.253,2.253,2.253,2.253,2.253,2.253,2.253,2.253,2.253,2.253,2.253,2.253,2.253,2.253,2.253,2.253,2.253,2.253,2.253,2.253,2.253,2.253,2.253,2.253,2.253,2.253,2.253,2.253,2.253,2.253,2.253,2.253,2.253,2.253,2.253,2.253,2.253,2.253,2.253,2.253,2.253,2.253,2.253,2.253,2.253,2.253,2.253,2.253,2.253,2.253,2.253,2.253,2.253,2.253,2.253,2.253,2.253,2.253,2.253,2.253,2.253,2.253,2.253,2.253,2.253,2.253,2.253,3.6885,3.6885,3.6885,3.6885,3.6885,3.6207,3.4166,3.3552,3.1858,2.777,2.6595,2.534,2.327,2.2744,2.253,2.253,2.253,2.253,2.253,2.253,2.253,2.253,2.253,2.253,2.253,2.253,2.253,2.253,2.253,2.253,2.253,2.253,2.253,2.253,2.253,2.253,2.253,2.253,2.253,2.253,2.253,2.253,2.253,2.253,2.253,2.253,2.253,2.253,2.253,2.253,2.253,2.253,2.253,2.253,2.253,2.253,2.253,2.253,2.253,2.253,2.253,2.253,2.253,2.253,2.253,2.253,2.253,2.253,2.253,2.253,2.253,2.253,2.253,2.253,2.253,2.253,2.253,2.253,2.253,2.253,2.253,2.253,2.253,2.253,2.253,2.253,2.253,2.253,2.253,2.253,2.253,2.253,2.253,2.253,2.253,2.253,2.253,2.253,2.253,2.253,2.253,2.253,2.253,2.253,2.253,2.253,2.253,2.253,2.253,2.253,2.253,2.253,2.253,2.253,2.253,2.253,3.6885,3.6885,3.6885,3.6885,3.6885,3.6083,3.3676,3.2195,3.0102,2.6538,2.4939,2.3762,2.2645,2.253,2.2513,2.2594,2.2594,2.2635,2.274,2.2578,2.253,2.253,2.253,2.2513,2.2594,2.2571,2.2571,2.2594,2.2571,2.253,2.253,2.253,2.253,2.253,2.253,2.253,2.253,2.253,2.253,2.253,2.253,2.253,2.253,2.253,2.253,2.253,2.253,2.253,2.253,2.253,2.253,2.253,2.253,2.253,2.253,2.253,2.253,2.253,2.253,2.253,2.253,2.253,2.253,2.253,2.253,2.253,2.253,2.253,2.253,2.253,2.253,2.253,2.253,2.253,2.253,2.253,2.253,2.253,2.253,2.253,2.253,2.253,2.253,2.253,2.253,2.253,2.253,2.253,2.253,2.253,2.253,2.253,2.253,2.253,2.253,2.253,2.253,2.253,2.253,2.253,2.253,2.253,2.253,2.253,2.253,2.253,2.253,2.253,2.253,2.253,2.253,2.253,2.253,2.253,2.253,2.253,3.6885,3.6885,3.6885,3.6885,3.6416,3.525,3.2812,3.0384,2.8017,2.5587,2.3647,2.2489,2.2529,2.2529,2.2594,2.2765,2.2789,2.2846,2.3,2.274,2.2594,2.2594,2.2594,2.2659,2.2789,2.2659,2.2659,2.2789,2.2659,2.2594,2.2594,2.2594,2.2594,2.2594,2.2594,2.2578,2.2529,2.2529,2.2513,2.253,2.253,2.253,2.253,2.253,2.253,2.253,2.253,2.253,2.253,2.253,2.253,2.253,2.253,2.253,2.253,2.253,2.253,2.253,2.253,2.253,2.253,2.253,2.253,2.253,2.253,2.253,2.253,2.253,2.253,2.253,2.253,2.253,2.253,2.253,2.253,2.253,2.253,2.253,2.253,2.253,2.253,2.253,2.253,2.253,2.253,2.253,2.253,2.253,2.253,2.253,2.253,2.253,2.253,2.253,2.253,2.253,2.253,2.253,2.253,2.253,2.253,2.253,2.253,2.253,2.253,2.253,2.253,2.253,2.253,2.253,2.253,2.253,2.253,2.253,2.253,2.253,3.6885,3.6885,3.6885,3.6885,3.5027,3.2756,3.0327,2.7894,2.552,2.3089,2.2588,2.2529,2.2675,2.27,2.2781,2.296,2.2976,2.2976,2.3,2.2976,2.296,2.296,2.296,2.296,2.2976,2.296,2.296,2.2976,2.296,2.296,2.296,2.296,2.296,2.296,2.296,2.287,2.27,2.27,2.2618,2.253,2.253,2.253,2.253,2.253,2.253,2.253,2.253,2.253,2.253,2.253,2.253,2.253,2.253,2.253,2.253,2.253,2.253,2.253,2.253,2.253,2.253,2.253,2.253,2.253,2.253,2.253,2.253,2.253,2.253,2.253,2.253,2.253,2.253,2.253,2.253,2.253,2.253,2.253,2.253,2.253,2.253,2.253,2.253,2.253,2.253,2.253,2.253,2.253,2.253,2.253,2.253,2.253,2.253,2.253,2.253,2.253,2.253,2.253,2.253,2.253,2.253,2.253,2.253,2.253,2.253,2.253,2.253,2.253,2.253,2.253,2.253,2.253,2.253,2.253,2.253,2.253,3.6885,3.6885,3.6885,3.6885,3.4903,3.2535,3.0252,2.783,2.5424,2.3132,2.2805,2.283,2.2895,2.2895,2.296,2.3146,2.3206,2.3211,2.3317,2.3341,2.3236,2.3,2.3,2.3041,2.3206,2.3065,2.3041,2.3206,2.3041,2.3,2.3,2.3,2.3,2.3,2.3,2.296,2.2895,2.2895,2.2854,2.2805,2.2805,2.2805,2.2805,2.2805,2.2724,2.2618,2.2618,2.2553,2.253,2.253,2.253,2.253,2.253,2.253,2.253,2.253,2.253,2.253,2.253,2.253,2.253,2.253,2.253,2.253,2.253,2.253,2.253,2.253,2.253,2.253,2.253,2.253,2.253,2.253,2.253,2.253,2.253,2.253,2.253,2.253,2.253,2.253,2.253,2.253,2.253,2.253,2.253,2.253,2.253,2.253,2.253,2.253,2.253,2.253,2.253,2.253,2.253,2.253,2.253,2.253,2.253,2.253,2.253,2.253,2.253,2.253,2.253,2.253,2.253,2.253,2.253,2.253,2.253,2.253,2.253,2.253,3.7048,3.7088,3.681,3.6108,3.3976,3.1636,2.9287,2.6904,2.4768,2.322,2.3,2.3016,2.3065,2.3081,2.3146,2.3377,2.3341,2.3406,2.3468,2.3528,2.3422,2.3171,2.3171,2.3211,2.3341,2.3236,2.3236,2.3341,2.3236,2.3171,2.3171,2.3171,2.3171,2.3171,2.3171,2.313,2.3081,2.3081,2.3041,2.3,2.3,2.3,2.3,2.3,2.2911,2.2805,2.2805,2.27,2.2553,2.2553,2.2513,2.253,2.253,2.253,2.253,2.253,2.253,2.253,2.253,2.253,2.253,2.253,2.253,2.253,2.253,2.253,2.253,2.253,2.253,2.253,2.253,2.253,2.253,2.253,2.253,2.253,2.253,2.253,2.253,2.253,2.253,2.253,2.253,2.253,2.253,2.253,2.253,2.253,2.253,2.253,2.253,2.253,2.253,2.253,2.253,2.253,2.253,2.253,2.253,2.253,2.253,2.253,2.253,2.253,2.253,2.253,2.253,2.253,2.253,2.253,2.253,2.253,2.253,2.253,2.253,2.253,3.7342,3.7382,3.6675,3.4395,3.1976,2.9538,2.6988,2.4556,2.3,2.3,2.3,2.3065,2.3295,2.3312,2.3341,2.3512,2.3528,2.3528,2.3528,2.3528,2.3528,2.3528,2.3528,2.3528,2.3528,2.3528,2.3528,2.3528,2.3528,2.3528,2.3528,2.3528,2.3528,2.3528,2.3528,2.3422,2.3312,2.3312,2.3206,2.3,2.3,2.3,2.3,2.3,2.3,2.3,2.3,2.287,2.2724,2.2724,2.2618,2.253,2.253,2.253,2.253,2.253,2.253,2.253,2.253,2.253,2.253,2.253,2.253,2.253,2.253,2.253,2.253,2.253,2.253,2.253,2.253,2.253,2.253,2.253,2.253,2.253,2.253,2.253,2.253,2.253,2.253,2.253,2.253,2.253,2.253,2.253,2.253,2.253,2.253,2.253,2.253,2.253,2.253,2.253,2.253,2.253,2.253,2.253,2.253,2.253,2.253,2.253,2.253,2.253,2.253,2.253,2.253,2.253,2.253,2.253,2.253,2.253,2.253,2.253,2.253,2.253,3.7676,3.7676,3.6923,3.4432,3.1976,2.96,2.7189,2.4765,2.3236,2.3358,2.3382,2.3382,2.3447,2.3447,2.3463,2.3528,2.3528,2.3528,2.3528,2.3528,2.3528,2.3528,2.3528,2.3528,2.3528,2.3528,2.3528,2.3528,2.3528,2.3528,2.3528,2.3528,2.3528,2.3528,2.3528,2.3504,2.3447,2.3447,2.3422,2.3382,2.3382,2.3382,2.3382,2.3382,2.3293,2.323,2.323,2.3065,2.2911,2.2911,2.2789,2.2618,2.2513,2.253,2.253,2.253,2.253,2.253,2.253,2.253,2.253,2.253,2.253,2.253,2.253,2.253,2.253,2.253,2.253,2.253,2.253,2.253,2.253,2.253,2.253,2.253,2.253,2.253,2.253,2.253,2.253,2.253,2.253,2.253,2.253,2.253,2.253,2.253,2.253,2.253,2.253,2.253,2.253,2.253,2.253,2.253,2.253,2.253,2.253,2.2529,2.2635,2.2635,2.2724,2.283,2.27,2.2635,2.2635,2.2571,2.253,2.253,2.253,2.253,2.253,2.253,2.253,2.253,3.7969,3.7172,3.5742,3.3291,3.0803,2.8345,2.5942,2.4324,2.3406,2.3512,2.3528,2.3528,2.3528,2.3528,2.3528,2.3528,2.3528,2.3528,2.3528,2.3528,2.3528,2.3528,2.3528,2.3528,2.3528,2.3528,2.3528,2.3528,2.3528,2.3528,2.3528,2.3528,2.3528,2.3528,2.3528,2.3528,2.3528,2.3528,2.3528,2.3528,2.3528,2.3528,2.3528,2.3528,2.3463,2.3358,2.3358,2.3252,2.3106,2.3106,2.2976,2.2805,2.2618,2.257,2.2553,2.2546,2.253,2.253,2.253,2.253,2.253,2.253,2.253,2.253,2.253,2.253,2.253,2.253,2.253,2.253,2.253,2.253,2.253,2.253,2.253,2.253,2.253,2.253,2.253,2.253,2.253,2.253,2.253,2.253,2.253,2.253,2.253,2.253,2.253,2.253,2.253,2.253,2.253,2.253,2.253,2.253,2.253,2.253,2.253,2.2553,2.2724,2.2724,2.283,2.3,2.287,2.2789,2.2666,2.2618,2.2529,2.253,2.253,2.253,2.253,2.253,2.253,2.253,3.7963,3.5948,3.3455,3.1181,2.8812,2.6423,2.389,2.3528,2.3528,2.3528,2.3528,2.3528,2.3528,2.3528,2.3528,2.3528,2.3528,2.3528,2.3528,2.3528,2.3528,2.3528,2.3528,2.3528,2.3528,2.3528,2.3528,2.3528,2.3528,2.3528,2.3528,2.3528,2.3528,2.3528,2.3528,2.3528,2.3528,2.3528,2.3528,2.3528,2.3528,2.3528,2.3528,2.3528,2.3528,2.3528,2.3528,2.3422,2.3336,2.3312,2.3206,2.3,2.2805,2.274,2.2724,2.2529,2.2546,2.2546,2.253,2.253,2.253,2.253,2.253,2.253,2.253,2.253,2.253,2.253,2.253,2.253,2.253,2.253,2.253,2.253,2.253,2.253,2.253,2.253,2.253,2.253,2.253,2.253,2.253,2.253,2.253,2.253,2.253,2.253,2.253,2.253,2.253,2.253,2.253,2.253,2.253,2.253,2.253,2.253,2.2489,2.2578,2.274,2.2765,2.287,2.3041,2.3016,2.2911,2.274,2.2724,2.2618,2.253,2.253,2.253,2.253,2.253,2.253,2.253,3.5642,3.3572,3.1052,2.8563,2.7679,2.6423,2.389,2.3528,2.3528,2.3528,2.3528,2.3528,2.3528,2.3528,2.3528,2.3528,2.3528,2.3528,2.3528,2.3528,2.3528,2.3528,2.3528,2.3528,2.3528,2.3528,2.3528,2.3528,2.3528,2.3528,2.3528,2.3528,2.3528,2.3528,2.3528,2.3528,2.3528,2.3528,2.3528,2.3528,2.3528,2.3528,2.3528,2.3528,2.3528,2.3528,2.3528,2.3504,2.3447,2.336,2.3295,2.323,2.3,2.2935,2.2895,2.2724,2.2659,2.2635,2.2513,2.253,2.253,2.253,2.253,2.253,2.253,2.253,2.253,2.253,2.253,2.253,2.253,2.253,2.253,2.253,2.253,2.253,2.253,2.253,2.253,2.253,2.253,2.253,2.253,2.253,2.253,2.253,2.253,2.253,2.253,2.253,2.253,2.253,2.253,2.253,2.253,2.253,2.253,2.253,2.2594,2.2765,2.2935,2.3081,2.3236,2.3398,2.3252,2.3106,2.2935,2.2781,2.2618,2.253,2.253,2.253,2.253,2.253,2.253,2.253,3.3112,3.1047,2.8851,2.755,2.6321,2.5027,2.3701,2.3528,2.3528,2.3528,2.3528,2.3528,2.3528,2.3528,2.3528,2.3528,2.3528,2.3528,2.3528,2.3528,2.3528,2.3528,2.3528,2.3528,2.3528,2.3528,2.3528,2.3528,2.3528,2.3528,2.3528,2.3528,2.3528,2.3528,2.3528,2.3528,2.3528,2.3528,2.3528,2.3528,2.3528,2.3528,2.3528,2.3528,2.3528,2.3528,2.3528,2.3528,2.3512,2.3422,2.3382,2.3358,2.323,2.313,2.3081,2.2911,2.2789,2.27,2.2618,2.2529,2.253,2.253,2.253,2.253,2.253,2.253,2.253,2.253,2.253,2.253,2.253,2.253,2.253,2.253,2.253,2.253,2.253,2.253,2.253,2.253,2.253,2.253,2.253,2.253,2.253,2.253,2.253,2.253,2.253,2.253,2.253,2.253,2.253,2.253,2.253,2.253,2.253,2.253,2.2635,2.283,2.3,2.323,2.3358,2.3528,2.3422,2.3276,2.3106,2.2935,2.274,2.2578,2.2546,2.253,2.253,2.253,2.253,2.253,3.0465,2.8395,2.6671,2.6671,2.4898,2.3528,2.3528,2.3528,2.3528,2.3528,2.3528,2.3528,2.3528,2.3528,2.3528,2.3528,2.3528,2.3528,2.3528,2.3528,2.3528,2.3528,2.3528,2.3528,2.3528,2.3528,2.3528,2.3528,2.3528,2.3528,2.3528,2.3528,2.3528,2.3528,2.3528,2.3528,2.3528,2.3528,2.3528,2.3528,2.3528,2.3528,2.3528,2.3528,2.3528,2.3528,2.3528,2.3528,2.3528,2.3528,2.3528,2.3504,2.3358,2.336,2.3276,2.3081,2.2935,2.2805,2.2781,2.2635,2.2513,2.2513,2.2546,2.253,2.253,2.253,2.253,2.253,2.253,2.253,2.253,2.253,2.253,2.253,2.253,2.253,2.253,2.253,2.253,2.253,2.253,2.253,2.253,2.253,2.253,2.253,2.253,2.253,2.253,2.253,2.253,2.253,2.253,2.253,2.253,2.253,2.253,2.253,2.2675,2.2846,2.3,2.3211,2.3382,2.3528,2.3528,2.3422,2.3295,2.3065,2.2895,2.27,2.2529,2.253,2.253,2.253,2.253,2.253,2.7808,2.5772,2.4011,2.4011,2.3761,2.3528,2.3528,2.3528,2.3528,2.3528,2.3528,2.3528,2.3528,2.3528,2.3528,2.3528,2.3528,2.3528,2.3528,2.3528,2.3528,2.3528,2.3528,2.3528,2.3528,2.3528,2.3528,2.3528,2.3528,2.3528,2.3528,2.3528,2.3528,2.3528,2.3528,2.3528,2.3528,2.3528,2.3528,2.3528,2.3528,2.3528,2.3528,2.3528,2.3528,2.3528,2.3528,2.3528,2.3528,2.3528,2.3528,2.3528,2.3504,2.3487,2.3463,2.3276,2.3211,2.3206,2.3,2.283,2.2675,2.2675,2.2578,2.253,2.253,2.253,2.253,2.253,2.253,2.253,2.253,2.253,2.253,2.253,2.253,2.253,2.253,2.253,2.253,2.253,2.253,2.253,2.253,2.253,2.253,2.253,2.253,2.253,2.253,2.253,2.253,2.253,2.253,2.253,2.253,2.253,2.253,2.253,2.2805,2.2976,2.3016,2.3341,2.3504,2.3528,2.3528,2.3422,2.3295,2.3065,2.2895,2.27,2.2529,2.253,2.253,2.253,2.253,2.253,2.519,2.4244,2.3528,2.3528,2.3528,2.3528,2.3528,2.3528,2.3528,2.3528,2.3528,2.3528,2.3528,2.3528,2.3528,2.3528,2.3528,2.3528,2.3528,2.3528,2.3528,2.3528,2.3528,2.3528,2.3528,2.3528,2.3528,2.3528,2.3528,2.3528,2.3528,2.3528,2.3528,2.3528,2.3528,2.3528,2.3528,2.3528,2.3528,2.3528,2.3528,2.3528,2.3528,2.3528,2.3528,2.3468,2.3113,2.2984,2.2924,2.2561,2.244,2.244,2.244,2.244,2.2417,2.2355,2.2254,2.2273,2.2508,2.224,2.1872,2.224,2.1931,2.1565,2.1565,2.1487,2.1549,2.1887,2.225,2.2407,2.2003,2.225,2.253,2.253,2.253,2.253,2.253,2.253,2.253,2.253,2.253,2.253,2.253,2.253,2.2349,2.1945,2.1945,2.1764,2.1483,2.1426,2.1426,2.1426,2.1764,2.1945,2.1945,2.1945,2.2126,2.253,2.2486,2.2654,2.3016,2.3358,2.3528,2.3528,2.3528,2.3487,2.3382,2.3106,2.296,2.2846,2.2578,2.253,2.253,2.253,2.253,2.253]},{"header":{"parameterUnit":"m.s-1","parameterCategory":1,"la1":30.6,"la2":28.766,"lo1":-90.7593,"lo2":-88.6598,"dy":0.0162,"dx":0.0183,"nx":116,"ny":114,"refTime":"2023-11-09T18:00:00:Z","depth":0,"parameterNumber":3,"parameterNumberName":"V-component_of_WINDS"},"data":[0.0,0.0,0.0,0.0,0.0,0.0,0.0,0.0,0.0,0.0,0.0,0.0,0.0,0.0,0.0,0.0,0.0,0.0,0.0,0.0,0.0,0.0,0.0,0.0,0.0,0.0,0.0,0.0,0.0,0.0,0.0,0.0,0.0,0.0,0.0,0.0,0.0,0.0,0.0,0.0,0.0,0.0,0.0,0.0,0.0,0.0,0.0,0.0,0.0,0.0,0.0,0.0,0.0,0.0,0.0,0.0,0.0,0.0,0.0,0.0,0.0,0.0,0.0,0.0,0.0,0.0,0.0,0.0,0.0,0.0,0.0,0.0,0.0,0.0,0.0,0.0,0.0,0.0,0.0,0.0,0.0,0.0,0.0,0.0,0.0,0.0,0.0,0.0,0.0,0.0,0.0,0.0,0.0,0.0,0.0,0.0,0.0,0.0,0.0,0.0,0.0,0.0,0.0,0.0,0.0,0.0,0.0,0.0,0.0,0.0,0.0,0.0,0.0,0.0,0.0,0.0,0.0,0.0,0.0,0.0,0.0,0.0,0.0,0.0,0.0,0.0,0.0,0.0,0.0,0.0,0.0,0.0,0.0,0.0,0.0,0.0,0.0,0.0,0.0,0.0,0.0,0.0,0.0,0.0,0.0,0.0,0.0,0.0,0.0,0.0,0.0,0.0,0.0,0.0,0.0,0.0,0.0,0.0,0.0,0.0,0.0,0.0,0.0,0.0,0.0,0.0,0.0,0.0,0.0,0.0,0.0,0.0,0.0,0.0,0.0,0.0,0.0,0.0,0.0,0.0,0.0,0.0,0.0,0.0,0.0,0.0,0.0,0.0,0.0,0.0,0.0,0.0,0.0,0.0,0.0,0.0,0.0,0.0,0.0,0.0,0.0,0.0,0.0,0.0,0.0,0.0,0.0,0.0,0.0,0.0,0.0,0.0,0.0,0.0,0.0,0.0,0.0,0.0,0.0,0.0,0.0,0.0,0.0,0.0,0.0,0.0,0.0,0.0,0.0,0.0,0.0,0.0,0.0,0.0,0.0,0.0,0.0,0.0,0.0,0.0,0.0,0.0,0.0,0.0,0.0,0.0,0.0,0.0,0.0,0.0,0.0,0.0,0.0,0.0,0.0,0.0,0.0,0.0,0.0,0.0,0.0,0.0,0.0,0.0,0.0,0.0,0.0,0.0,0.0,0.0,0.0,0.0,0.0,0.0,0.0,0.0,0.0,0.0,0.0,0.0,0.0,0.0,0.0,0.0,0.0,0.0,0.0,0.0,0.0,0.0,0.0,0.0,0.0,0.0,0.0,0.0,0.0,0.0,0.0,0.0,0.0,0.0,0.0,0.0,0.0,0.0,0.0,0.0,0.0,0.0,0.0,0.0,0.0,0.0,0.0,0.0,0.0,0.0,0.0,0.0,0.0,0.0,0.0,0.0,0.0,0.0,0.0,0.0,0.0,0.0,0.0,0.0,0.0,0.0,0.0,0.0,0.0,0.0,0.0,0.0,0.0,0.0,0.0,0.0,0.0,0.0,0.0,0.0,0.0,0.0,0.0,0.0,0.0,0.0,0.0,0.0,0.0,0.0,0.0,0.0,0.0,0.0,0.0,0.0,0.0,0.0,0.0,0.0,0.0,0.0,0.0,0.0,0.0,0.0,0.0,0.0,0.0,0.0,0.0,0.0,0.0,0.0,0.0,0.0,0.0,0.0,0.0,0.0,0.0,0.0,0.0,0.0,0.0,0.0,0.0,0.0,0.0,0.0,0.0,0.0,0.0,0.0,0.0,0.0,0.0,0.0,0.0,0.0,0.0,0.0,0.0,0.0,0.0,0.0,0.0,0.0,0.0,0.0,0.0,0.0,0.0,0.0,0.0,0.0,0.0,0.0,0.0,0.0,0.0,0.0,0.0,0.0,0.0,0.0,0.0,0.0,0.0,0.0,0.0,0.0,0.0,0.0,0.0,0.0,0.0,0.0,0.0,0.0,0.0,0.0,0.0,0.0,0.0,0.0,0.0,0.0,0.0,0.0,0.0,0.0,0.0,0.0,0.0,0.0,0.0,0.0,0.0,0.0,0.0,0.0,0.0,0.0,0.0,0.0,0.0,0.0,0.0,0.0,0.0,0.0,0.0,0.0,0.0,0.0,0.0,0.0,0.0,0.0,0.0,0.0,0.0,0.0,0.0,0.0,0.0,0.0,0.0,0.0,0.0,0.0,0.0,0.0,0.0,0.0,0.0,0.0,0.0,0.0,0.0,0.0,0.0,0.0,0.0,0.0,0.0,0.0,0.0,0.0,0.0,0.0,0.0,0.0,0.0,0.0,0.0,0.0,0.0,0.0,0.0,0.0,0.0,0.0,0.0,0.0,0.0,0.0,0.0,0.0,0.0,0.0,0.0,0.0,0.0,0.0,0.0,0.0,0.0,0.0,0.0,0.0,0.0,0.0,0.0,0.0,0.0,0.0,0.0,0.0,0.0,0.0,0.0,0.0,0.0,0.0,0.0,0.0,0.0,0.0,0.0,0.0,0.0,0.0,0.0,0.0,0.0,0.0,0.0,0.0,0.0,0.0,0.0,0.0,0.0,0.0,0.0,0.0,0.0,0.0,0.0,0.0,0.0,0.0,0.0,0.0,0.0,0.0,0.0,0.0,0.0,0.0,0.0,0.0,0.0,0.0,0.0,0.0,0.0,0.0,0.0,0.0,0.0,0.0,0.0,0.0,0.0,0.0,0.0,0.0,0.0,0.0,0.0,0.0,0.0,0.0,0.0,0.0,0.0,0.0,0.0,0.0,0.0,0.0,0.0,0.0,0.0,0.0,0.0,0.0,0.0,0.0,0.0,0.0,0.0,0.0,0.0,0.0,0.0,0.0,0.0,0.0,0.0,0.0,0.0,0.0,0.0,0.0,0.0,0.0,0.0,0.0,0.0,0.0,0.0,0.0,0.0,0.0,0.0,0.0,0.0,0.0,0.0,0.0,0.0,0.0,0.0,0.0,0.0,0.0,0.0,0.0,0.0,0.0,0.0,0.0,0.0,0.0,0.0,0.0,0.0,0.0,0.0,0.0,0.0,0.0,0.0,0.0,0.0,0.0,0.0,0.0,0.0,0.0,0.0,0.0,0.0,0.0,0.0,0.0,0.0,0.0,0.0,0.0,0.0,0.0,0.0,0.0,0.0,0.0,0.0,0.0,0.0,0.0,0.0,0.0,0.0,0.0,0.0,0.0,0.0,0.0,0.0,0.0,0.0,0.0,0.0,0.0,0.0,0.0,0.0,0.0,0.0,0.0,0.0,0.0,0.0,0.0,0.0,0.0,0.0,0.0,0.0,0.0,0.0,0.0,0.0,0.0,0.0,0.0,0.0,0.0,0.0,0.0,0.0,0.0,0.0,0.0,0.0,0.0,0.0,0.0,0.0,0.0,0.0,0.0,0.0,0.0,0.0,0.0,0.0,0.0,0.0,0.0,0.0,0.0,0.0,0.0,0.0,0.0,0.0,0.0,0.0,0.0,0.0,0.0,0.0,0.0,0.0,0.0,0.0,0.0,0.0,0.0,0.0,0.0,0.0,0.0,0.0,0.0,0.0,0.0,0.0,0.0,0.0,0.0,0.0,0.0,0.0,0.0,0.0,0.0,0.0,0.0,0.0,0.0,0.0,0.0,0.0,0.0,0.0,0.0,0.0,0.0,0.0,0.0,0.0,0.0,0.0,0.0,0.0,0.0,0.0,0.0,0.0,0.0,0.0,0.0,0.0,0.0,0.0,0.0,0.0,0.0,0.0,0.0,0.0,0.0,0.0,0.0,0.0,0.0,0.0,0.0,0.0,0.0,0.0,0.0,0.0,0.0,0.0,0.0,0.0,0.0,0.0,0.0,0.0,0.0,0.0,0.0,0.0,0.0,0.0,0.0,0.0,0.0,0.0,0.0,0.0,0.0,0.0,0.0,0.0,0.0,0.0,0.0,0.0,0.0,0.0,0.0,0.0,0.0,0.0,0.0,0.0,0.0,0.0,0.0,0.0,0.0,0.0,0.0,0.0,0.0,0.0,0.0,0.0,0.0,0.0,0.0,0.0,0.0,0.0,0.0,0.0,0.0,0.0,0.0,0.0,0.0,0.0,0.0,0.0,0.0,0.0,0.0,0.0,0.0,0.0,0.0,0.0,0.0,0.0,0.0,0.0,0.0,0.0,0.0,0.0,0.0,0.0,0.0,0.0,0.0,0.0,0.0,0.0,0.0,0.0,0.0,0.0,0.0,0.0,0.0,0.0,0.0,0.0,0.0,0.0,0.0,0.0,0.0,0.0,0.0,0.0,0.0,0.0,0.0,0.0,0.0,0.0,0.0,0.0,0.0,0.0,0.0,0.0,0.0,0.0,0.0,0.0,0.0,0.0,0.0,0.0,0.0,0.0,0.0,0.0,0.0,0.0,0.0,0.0,0.0,0.0,0.0,0.0,0.0,0.0,0.0,0.0,0.0,0.0,0.0,0.0,0.0,0.0,0.0,0.0,0.0,0.0,0.0,0.0,0.0,0.0,0.0,0.0,0.0,0.0,0.0,0.0,0.0,0.0,0.0,0.0,0.0,0.0,0.0,0.0,0.0,0.0,0.0,0.0,0.0,0.0,0.0,0.0,0.0,0.0,0.0,0.0,0.0,0.0,0.0,0.0,0.0,0.0,0.0,0.0,0.0,0.0,0.0,0.0,0.0,0.0,0.0,0.0,0.0,0.0,0.0,0.0,0.0,0.0,0.0,0.0,0.0,0.0,0.0,0.0,0.0,0.0,0.0,0.0,0.0,0.0,0.0,0.0,0.0,0.0,0.0,0.0,0.0,0.0,0.0,0.0,0.0,0.0,0.0,0.0,0.0,0.0,0.0,0.0,0.0,0.0,0.0,0.0,0.0,0.0,0.0,0.0,0.0,0.0,0.0,0.0,0.0,0.0,0.0,0.0,0.0,0.0,0.0,0.0,0.0,0.0,0.0,0.0,0.0,0.0,0.0,0.0,0.0,0.0,0.0,0.0,0.0,0.0,0.0,0.0,0.0,0.0,0.0,0.0,0.0,0.0,0.0,0.0,0.0,0.0,0.0,0.0,0.0,0.0,0.0,0.0,0.0,0.0,0.0,0.0,0.0,0.0,0.0,0.0,0.0,0.0,0.0,0.0,0.0,0.0,0.0,0.0,0.0,0.0,0.0,0.0,0.0,0.0,0.0,0.0,0.0,0.0,0.0,0.0,0.0,0.0,0.0,0.0,0.0,0.0,0.0,0.0,0.0,0.0,0.0,0.0,0.0,0.0,0.0,0.0,0.0,0.0,0.0,0.0,0.0,0.0,0.0,0.0,0.0,0.0,0.0,0.0,0.0,0.0,0.0,0.0,0.0,0.0,0.0,0.0,0.0,0.0,0.0,0.0,0.0,0.0,0.0,0.0,0.0,0.0,0.0,0.0,0.0,0.0,0.0,0.0,0.0,0.0,0.0,0.0,0.0,0.0,0.0,0.0,0.0,0.0,0.0,0.0,0.0,0.0,0.0,0.0,0.0,0.0,0.0,0.0,0.0,0.0,0.0,0.0,0.0,0.0,0.0,0.0,0.0,0.0,0.0,0.0,0.0,0.0,0.0,0.0,0.0,0.0,0.0,0.0,0.0,0.0,0.0,0.0,0.0,0.0,0.0,0.0,0.0,0.0,0.0,0.0,0.0,0.0,0.0,0.0,0.0,0.0,0.0,0.0,0.0,0.0,0.0,0.0,0.0,0.0,0.0,0.0,0.0,0.0,0.0,0.0,0.0,0.0,0.0,0.0,0.0,0.0,0.0,0.0,0.0,0.0,0.0,0.0,0.0,0.0,0.0,0.0,0.0,0.0,0.0,0.0,0.0,0.0,0.0,0.0,0.0,0.0,0.0,0.0,0.0,0.0,0.0,0.0,0.0,0.0,0.0,0.0,0.0,0.0,0.0,0.0,0.0,0.0,0.0,0.0,0.0,0.0,0.0,0.0,0.0,0.0,0.0,0.0,0.0,0.0,0.0,0.0,0.0,0.0,0.0,0.0,0.0,0.0,0.0,0.0,0.0,0.0,0.0,0.0,0.0,0.0,0.0,0.0,0.0,0.0,0.0,5.9396,5.8899,0.0,0.0,0.0,0.0,0.0,0.0,0.0,0.0,0.0,0.0,0.0,0.0,0.0,0.0,0.0,0.0,0.0,0.0,0.0,0.0,0.0,0.0,0.0,0.0,0.0,0.0,0.0,0.0,0.0,0.0,0.0,0.0,0.0,0.0,0.0,0.0,0.0,0.0,6.24,6.24,6.2381,6.1951,6.1971,6.2341,0.0,0.0,0.0,0.0,0.0,0.0,0.0,0.0,0.0,0.0,0.0,0.0,0.0,0.0,0.0,0.0,0.0,0.0,0.0,0.0,0.0,0.0,0.0,0.0,0.0,0.0,0.0,0.0,0.0,0.0,0.0,0.0,0.0,0.0,0.0,0.0,0.0,0.0,0.0,0.0,0.0,0.0,0.0,0.0,0.0,0.0,0.0,0.0,0.0,0.0,0.0,0.0,0.0,0.0,0.0,0.0,0.0,0.0,0.0,0.0,0.0,0.0,0.0,0.0,0.0,0.0,0.0,0.0,0.0,0.0,6.0291,5.996,0.0,0.0,0.0,0.0,0.0,0.0,0.0,0.0,0.0,0.0,0.0,0.0,0.0,0.0,0.0,0.0,0.0,0.0,0.0,0.0,0.0,0.0,0.0,0.0,6.24,6.24,6.24,6.24,0.0,0.0,0.0,0.0,0.0,0.0,0.0,6.24,6.24,6.24,6.24,6.24,6.2381,6.1595,6.1574,6.207,6.0546,0.0,0.0,0.0,0.0,0.0,0.0,0.0,0.0,0.0,0.0,0.0,0.0,0.0,0.0,0.0,0.0,0.0,0.0,0.0,0.0,0.0,0.0,0.0,0.0,0.0,0.0,0.0,0.0,0.0,0.0,0.0,0.0,0.0,0.0,0.0,0.0,0.0,0.0,0.0,0.0,0.0,0.0,0.0,0.0,0.0,0.0,0.0,0.0,0.0,0.0,0.0,0.0,0.0,0.0,0.0,0.0,0.0,0.0,0.0,0.0,0.0,0.0,0.0,6.1119,6.1185,6.1285,6.1285,6.1351,6.1483,6.1483,6.1351,6.1119,6.1119,0.0,0.0,0.0,0.0,0.0,0.0,0.0,0.0,0.0,0.0,0.0,0.0,0.0,0.0,0.0,0.0,0.0,0.0,0.0,0.0,0.0,6.24,6.24,6.24,6.24,6.24,0.0,0.0,0.0,0.0,0.0,0.0,6.24,6.24,6.24,6.24,6.24,6.24,6.24,6.2282,6.185,6.1152,6.0924,6.0376,5.9565,0.0,0.0,0.0,0.0,0.0,0.0,0.0,0.0,0.0,0.0,0.0,0.0,0.0,0.0,0.0,0.0,0.0,0.0,0.0,0.0,0.0,0.0,0.0,0.0,0.0,0.0,0.0,0.0,0.0,0.0,0.0,0.0,0.0,0.0,0.0,0.0,0.0,0.0,0.0,0.0,0.0,6.1119,6.1119,0.0,0.0,0.0,0.0,0.0,0.0,0.0,0.0,0.0,0.0,0.0,0.0,0.0,6.1119,6.1119,6.1119,6.1119,6.1119,6.1119,6.145,6.2034,6.2034,6.2399,6.2996,6.2996,0.0,6.1119,6.1119,0.0,0.0,0.0,0.0,0.0,0.0,0.0,0.0,0.0,0.0,0.0,0.0,0.0,0.0,0.0,0.0,0.0,0.0,0.0,0.0,0.0,6.24,6.24,6.24,6.24,6.24,6.24,6.24,0.0,0.0,0.0,6.24,6.24,6.24,6.24,6.24,6.24,6.24,6.24,6.24,6.2203,6.181,6.181,6.0694,5.8773,5.8249,0.0,0.0,0.0,0.0,0.0,0.0,0.0,0.0,0.0,0.0,0.0,0.0,0.0,0.0,0.0,0.0,0.0,0.0,0.0,0.0,0.0,0.0,0.0,0.0,0.0,0.0,0.0,0.0,0.0,0.0,0.0,0.0,0.0,0.0,0.0,0.0,0.0,0.0,0.0,6.1119,6.1119,6.1119,6.1119,6.1251,0.0,0.0,0.0,0.0,0.0,0.0,0.0,0.0,0.0,6.2366,6.2366,6.2366,6.2366,6.2366,6.2366,6.2366,6.2366,6.2562,6.2967,6.2967,6.3251,6.3679,6.3679,6.3345,6.2724,6.2577,6.2502,6.2523,0.0,0.0,0.0,0.0,6.3105,6.3023,0.0,0.0,0.0,0.0,0.0,0.0,0.0,0.0,0.0,0.0,0.0,0.0,6.24,6.24,6.24,6.24,6.24,6.24,6.24,6.24,0.0,0.0,6.24,6.24,6.24,6.24,6.24,6.24,6.24,6.24,6.24,6.24,6.2282,6.203,6.181,6.0525,5.8501,5.7817,5.7234,5.681,0.0,0.0,0.0,0.0,0.0,0.0,0.0,0.0,0.0,0.0,0.0,0.0,0.0,0.0,0.0,0.0,0.0,0.0,0.0,0.0,0.0,0.0,0.0,0.0,0.0,0.0,0.0,0.0,0.0,0.0,0.0,0.0,0.0,0.0,0.0,0.0,0.0,6.155,6.1649,6.1649,6.1649,6.1881,0.0,0.0,0.0,0.0,0.0,0.0,6.3294,6.3294,6.3294,6.3294,6.3294,6.3294,6.3294,6.3358,6.338,6.338,6.3444,6.3651,6.3945,6.3945,6.4152,6.4543,6.4543,6.4543,6.4488,6.393,6.37,6.3721,6.3974,6.4057,6.4099,6.4306,6.4285,6.4182,0.0,0.0,0.0,0.0,0.0,0.0,0.0,0.0,0.0,0.0,0.0,6.24,6.24,6.24,6.24,6.24,6.24,6.24,6.24,6.24,6.24,6.24,6.24,6.24,6.24,6.24,6.24,6.24,6.24,6.24,6.24,6.24,6.1931,6.1028,6.0129,5.9653,5.9521,5.9455,5.8432,5.681,5.681,0.0,0.0,0.0,0.0,0.0,0.0,0.0,0.0,0.0,0.0,0.0,0.0,0.0,0.0,0.0,0.0,0.0,0.0,0.0,0.0,0.0,0.0,0.0,0.0,0.0,0.0,0.0,0.0,0.0,0.0,0.0,0.0,0.0,0.0,0.0,0.0,0.0,0.0,6.3194,6.3194,0.0,0.0,0.0,0.0,6.3294,6.3294,6.3294,6.3294,6.3294,6.3294,6.3294,6.3294,6.3294,6.3294,6.3487,6.3594,6.3594,6.3826,6.43,6.4914,6.4914,6.5304,6.5995,6.5995,6.5995,6.5895,6.4522,6.3986,6.4007,6.4203,6.4272,6.4327,6.4532,6.4593,6.4573,0.0,0.0,0.0,0.0,0.0,0.0,0.0,0.0,6.24,6.24,6.24,6.24,6.24,6.24,6.24,6.24,6.24,6.24,6.24,6.24,6.24,6.24,6.24,6.24,6.24,6.24,6.2618,6.3125,6.3125,6.3362,6.3802,6.3802,6.364,6.3301,6.2958,6.2143,6.0815,5.8698,5.7393,5.681,5.681,5.681,0.0,0.0,0.0,0.0,0.0,0.0,0.0,0.0,0.0,0.0,0.0,0.0,0.0,0.0,0.0,0.0,0.0,0.0,0.0,0.0,0.0,0.0,0.0,0.0,0.0,0.0,0.0,0.0,0.0,0.0,0.0,0.0,0.0,0.0,0.0,0.0,0.0,6.3294,6.3294,0.0,6.3902,6.399,6.4188,6.463,6.4664,6.4862,6.5326,6.5359,6.568,6.6324,6.6324,6.639,6.6601,6.6667,6.6711,6.6711,6.6799,6.7008,6.7374,6.7374,6.7629,6.8029,6.8029,6.8029,6.7996,6.749,6.6629,6.5648,6.5825,6.593,6.593,6.5993,6.6034,6.6034,0.0,0.0,0.0,0.0,0.0,0.0,0.0,0.0,6.24,6.24,6.24,6.24,6.24,6.24,6.24,6.24,6.24,6.24,6.24,6.24,6.2516,6.2753,6.299,6.3125,6.3125,6.3125,6.3396,6.3849,6.3849,6.414,6.4613,6.4613,6.4613,6.4593,6.4272,6.343,6.201,5.916,5.7773,5.7463,5.7463,5.7463,5.7432,0.0,0.0,0.0,0.0,0.0,0.0,0.0,0.0,0.0,0.0,0.0,0.0,0.0,0.0,0.0,0.0,0.0,0.0,0.0,0.0,0.0,0.0,0.0,0.0,0.0,0.0,0.0,0.0,0.0,0.0,0.0,0.0,0.0,0.0,6.4089,6.4365,6.4365,6.4597,6.4929,6.537,6.5459,6.5657,6.6099,6.6132,6.6363,6.686,6.6951,6.732,6.7967,6.8091,6.8204,6.8417,6.8451,6.8495,6.8495,6.8618,6.8829,6.922,6.922,6.9454,6.9857,6.9857,6.9863,6.9893,6.9893,6.9215,6.82,6.8048,6.7986,6.8027,6.8323,6.8425,6.8425,0.0,0.0,0.0,0.0,0.0,0.0,0.0,6.24,6.24,6.24,6.24,6.24,6.24,6.24,6.24,6.24,6.24,6.2415,6.2434,6.2434,6.2753,6.3511,6.4241,6.4613,6.4613,6.4613,6.4613,6.4647,6.4647,6.4647,6.4681,6.4681,6.4681,6.464,6.3709,6.3304,6.312,6.1285,5.9871,5.8949,5.8843,5.8818,5.8726,0.0,0.0,0.0,0.0,0.0,0.0,0.0,0.0,0.0,0.0,0.0,0.0,0.0,0.0,0.0,0.0,0.0,0.0,0.0,0.0,0.0,0.0,0.0,0.0,0.0,0.0,0.0,0.0,0.0,0.0,0.0,0.0,0.0,6.4785,6.569,6.6529,6.6529,6.7158,6.7589,6.7589,6.7589,6.7589,6.7589,6.7622,6.7622,6.7655,6.7931,6.809,6.8123,6.8405,6.8574,6.8574,6.8763,6.884,6.884,6.9105,6.962,7.0319,7.0319,7.0725,7.1424,7.1424,7.1445,7.1525,7.1525,7.1638,7.1658,7.0714,7.0338,7.0439,7.1307,7.1612,7.1612,0.0,0.0,0.0,0.0,0.0,0.0,0.0,6.24,6.24,6.24,6.24,6.24,6.24,6.24,6.24,6.24,6.24,6.2618,6.3139,6.3193,6.3531,6.4275,6.4478,6.4613,6.4613,6.4613,6.485,6.5392,6.5392,6.5662,6.6203,6.6203,6.6203,6.6183,6.5918,6.5416,6.4675,6.4162,6.333,6.2197,5.9781,5.8818,5.8787,0.0,0.0,0.0,0.0,0.0,0.0,0.0,0.0,0.0,0.0,0.0,0.0,0.0,0.0,0.0,0.0,0.0,0.0,0.0,0.0,0.0,0.0,0.0,0.0,0.0,0.0,0.0,0.0,0.0,0.0,0.0,6.8069,6.7869,6.71,6.7196,6.7291,6.7291,6.7489,6.7589,6.7589,6.7589,6.7589,6.7589,6.7773,6.812,6.8652,6.9438,7.0203,7.0901,7.1507,7.1892,7.2099,7.2145,7.219,7.219,7.227,7.2417,7.2586,7.2586,7.3039,7.3841,7.3841,7.4243,7.4886,7.4886,7.4923,7.4701,7.2221,7.1249,7.1287,7.1517,7.1612,7.1663,0.0,0.0,0.0,0.0,0.0,0.0,0.0,6.24,6.24,6.24,6.24,6.24,6.24,6.2685,6.2854,6.2854,6.3125,6.3497,6.3937,6.4241,6.4613,6.5019,6.5358,6.5527,6.5527,6.5527,6.573,6.617,6.617,6.6373,6.6791,6.6791,6.6791,6.6791,6.6791,6.6482,6.5877,6.5504,6.472,6.3606,6.167,6.09,6.082,6.0127,6.0101,6.049,6.049,6.049,6.0619,6.1472,0.0,0.0,0.0,0.0,0.0,0.0,0.0,0.0,0.0,0.0,0.0,0.0,0.0,0.0,0.0,0.0,0.0,0.0,0.0,0.0,0.0,0.0,0.0,0.0,6.9689,6.9812,7.0101,6.9033,6.8261,6.8375,6.8549,6.8858,6.9274,6.933,6.9463,6.9763,6.9903,7.0196,7.063,7.1299,7.1887,7.2464,7.2995,7.3337,7.35,7.35,7.3673,7.4048,7.4048,7.4386,7.5094,7.5094,7.5539,7.6312,7.6312,7.6662,7.7225,7.7225,7.7208,7.7034,0.0,0.0,0.0,0.0,7.458,7.4651,0.0,0.0,0.0,0.0,0.0,0.0,0.0,6.24,6.24,6.24,6.2448,6.2516,6.2516,6.3193,6.3612,6.3612,6.4241,6.4647,6.4715,6.5392,6.5797,6.5797,6.644,6.6791,6.6791,6.6791,6.6791,6.6791,6.6791,6.6791,6.6791,6.6791,6.6791,6.6791,6.6791,6.6791,6.6749,6.5833,6.4957,6.4147,6.4096,6.3909,6.3497,6.2101,6.214,6.2913,6.2913,6.2978,6.3163,6.384,0.0,0.0,0.0,0.0,0.0,0.0,0.0,0.0,0.0,0.0,0.0,0.0,0.0,0.0,0.0,0.0,0.0,0.0,0.0,0.0,0.0,0.0,0.0,0.0,7.1965,7.2163,7.2989,7.1051,6.9628,6.9846,7.023,7.085,7.1721,7.1811,7.2079,7.2749,7.284,7.2806,7.2806,7.311,0.0,0.0,0.0,7.3898,7.3898,7.4013,7.4444,7.5211,7.5211,7.5985,7.7421,7.7421,7.7849,7.8565,7.8565,7.8665,7.8891,7.8891,7.8907,7.8886,7.7935,7.7551,7.7644,7.8421,7.8702,7.8702,0.0,0.0,0.0,0.0,0.0,0.0,0.0,6.24,6.24,6.24,6.2922,6.3294,6.3294,6.3971,6.4377,6.4377,6.4512,6.485,6.5446,6.617,6.6609,6.6609,6.6724,6.6791,6.6791,6.6791,6.6791,6.6791,6.6791,6.6791,6.6791,6.6791,6.6791,6.6791,6.6791,6.6791,6.6791,6.6588,6.6397,6.6215,6.5978,6.4551,6.2656,6.3115,6.3462,6.3626,6.3626,6.3982,6.4643,6.5575,6.6334,6.7023,6.7826,6.8182,0.0,0.0,0.0,0.0,0.0,0.0,0.0,0.0,0.0,0.0,0.0,0.0,0.0,0.0,0.0,0.0,0.0,0.0,0.0,7.2845,7.2855,7.2899,7.308,7.264,7.2287,7.217,7.2233,7.2367,7.2581,7.2581,7.2648,7.2782,7.2949,7.3043,7.3043,7.3841,7.4296,7.4296,7.5664,7.6403,7.6403,7.7107,7.7544,7.7713,7.7713,0.0,7.8174,7.8174,7.867,7.9522,7.9487,7.988,8.0605,8.0605,8.0623,8.0495,7.9015,7.8456,7.8473,7.865,7.8702,7.8702,0.0,0.0,0.0,0.0,0.0,0.0,0.0,6.326,6.3497,6.3497,6.3835,6.4072,6.4072,6.4715,6.5155,6.5155,6.5493,6.5865,6.6237,6.6609,6.6791,6.6791,6.6791,6.6791,6.6791,6.6791,6.696,6.7354,6.7354,6.7557,6.7963,6.7963,6.7963,6.7963,6.7963,6.7963,6.7963,6.7963,6.7671,6.7256,6.7602,6.6637,6.5017,6.5512,6.5999,6.6442,6.6442,6.6674,6.7074,6.758,6.8026,6.8451,6.8926,6.935,6.9654,0.0,0.0,0.0,0.0,0.0,0.0,0.0,0.0,0.0,0.0,0.0,0.0,0.0,0.0,7.35,7.35,0.0,7.3426,7.3797,7.3841,7.3999,7.4371,7.4404,7.4087,7.3228,7.302,7.313,7.3642,7.371,7.4057,7.4875,7.5013,7.531,7.5736,7.6248,7.6694,7.7095,7.7919,7.8563,7.8946,7.9387,7.983,8.0243,8.0243,8.0521,8.0938,8.0938,8.1188,8.1642,8.1606,8.1866,8.2287,8.2287,8.2287,8.2215,8.1418,8.0621,7.9897,7.9897,7.9897,7.9897,0.0,0.0,0.0,0.0,0.0,0.0,0.0,6.4241,6.4613,6.4613,6.4715,6.4816,6.4816,6.5459,6.5899,6.5899,6.6474,6.6791,6.6791,6.6791,6.6791,6.6791,6.6948,6.6994,6.6994,6.7163,6.7557,6.8132,6.8132,6.847,6.9113,6.9113,6.9113,6.9113,6.9113,6.9113,6.9113,6.9113,6.8628,6.7967,6.8929,6.8808,6.8122,6.8255,6.8641,6.9113,6.9113,6.918,6.9316,6.9316,6.9417,6.9519,6.9519,6.9925,7.0432,7.0567,7.1041,0.0,0.0,0.0,0.0,0.0,0.0,0.0,0.0,7.3713,7.3747,7.3883,7.394,7.394,7.394,7.394,7.4119,7.4728,7.496,7.5281,7.5892,7.6114,7.5787,7.4582,7.4114,7.4259,7.523,7.5344,7.5903,7.7239,7.7512,7.7876,7.8588,7.8771,7.9178,7.9831,7.9979,8.0401,8.1056,8.1224,8.1693,8.2369,8.2369,8.2773,8.3501,8.3501,8.3501,8.3501,8.3501,8.3501,8.3501,8.3501,8.3501,8.3501,8.3501,8.2722,8.1563,8.1563,8.1563,8.1563,0.0,0.0,0.0,0.0,0.0,0.0,0.0,0.0,6.4613,6.4613,6.5155,6.5581,6.5581,6.6237,6.6677,6.6677,6.6757,6.6791,6.6791,6.6791,6.6791,6.6791,6.7421,6.7793,6.7793,6.847,6.8876,6.8977,6.8977,6.9011,6.9113,6.9113,6.9113,6.9113,6.9113,6.9113,6.9113,6.9113,6.9047,6.9016,6.9745,7.0016,6.9995,7.0648,7.014,6.9113,6.9113,6.9519,7.0082,7.0082,7.05,7.1052,7.1052,7.1086,7.1312,7.1954,7.2225,7.2428,7.3071,7.324,7.3274,7.3364,7.3466,7.3646,0.0,7.4492,7.4661,7.5303,7.5439,7.5439,7.5439,7.5439,7.5473,7.5574,7.629,7.6859,7.6928,7.7624,7.8034,7.7881,7.7141,7.6999,7.7901,7.7964,7.8042,7.8252,7.8904,7.9353,7.9459,8.0148,8.0569,8.0661,8.1428,8.1849,8.1956,8.2773,8.3243,8.3336,8.3336,8.3409,8.3501,8.3501,8.3501,8.3501,8.3501,8.3501,8.3501,8.3501,8.3501,8.3501,8.3501,8.3392,8.3247,8.3247,8.3247,8.3247,0.0,0.0,0.0,0.0,0.0,0.0,0.0,0.0,0.0,6.5878,6.617,6.6339,6.6339,6.6643,6.696,6.7421,6.7028,6.696,6.7421,6.7455,6.7455,6.7455,6.8199,6.8605,6.8605,6.8944,6.9316,6.9722,6.9722,6.9958,7.0376,7.0376,7.0376,7.0376,7.0376,7.0376,7.0376,7.0376,7.0376,7.0432,7.0737,7.0838,7.0872,7.1188,7.0939,7.0376,7.0376,7.0601,0.0,7.0838,7.1075,7.1289,7.1289,7.1594,7.1988,7.2326,7.2699,7.3105,7.3432,7.3815,7.4153,7.4153,7.4458,7.4864,7.5168,7.5236,7.5337,7.5642,7.5709,7.5865,7.6415,7.6508,7.6656,7.7207,7.7589,7.7883,7.7883,7.8168,7.8606,7.9114,7.924,7.9057,7.8454,7.8806,7.9316,7.9808,8.0613,8.1297,8.1829,8.219,8.2584,8.3049,8.3398,8.3824,8.4292,8.4708,8.5112,8.5547,8.5547,8.5801,8.6235,8.6235,8.6235,8.6235,8.6235,8.6235,8.6199,8.5728,8.5547,8.5511,8.504,8.4895,8.4786,8.3863,8.3501,8.3501,0.0,0.0,0.0,0.0,0.0,0.0,0.0,0.0,0.0,0.0,6.6791,6.6791,6.6791,6.696,6.732,6.7861,6.7624,6.7658,6.8199,6.8233,6.8233,6.8233,6.8977,6.9417,6.9417,6.9586,6.9958,7.05,7.05,7.077,7.1289,7.1289,7.1289,7.1289,7.1289,7.1289,7.1289,7.1289,7.1289,7.1289,7.1289,7.1289,7.1289,7.1289,7.1289,7.1289,7.1289,7.1424,7.1594,7.1594,7.1751,7.1921,7.1921,7.2259,7.2732,7.2935,7.351,7.4109,7.4109,7.4492,7.4897,7.4897,7.5516,7.6101,7.6101,7.6277,7.645,7.645,7.645,7.6656,7.7317,7.7449,7.7667,7.8315,7.8627,7.877,7.877,7.917,7.9728,8.0348,8.1141,8.1123,7.9924,8.0324,8.0941,8.1568,8.2359,8.3097,8.379,8.4026,8.4497,8.5293,8.533,8.5728,8.6525,8.6525,8.6795,8.7339,8.7339,8.7628,8.8208,8.8208,8.8208,8.8208,8.8208,8.8208,8.8135,8.7556,8.7339,8.7266,8.6742,8.6525,8.638,8.5221,8.4533,8.4135,0.0,0.0,0.0,0.0,0.0,0.0,0.0,0.0,0.0,0.0,0.0,0.0,0.0,6.7455,6.7895,6.7895,6.8605,6.9045,6.9079,6.9079,6.9079,6.9079,6.9755,7.0184,7.0184,7.0872,7.1222,7.1255,7.1255,7.1289,7.1289,7.1289,7.1289,7.1289,7.1289,7.1289,7.1289,7.1289,7.1289,7.1289,7.1289,7.1289,7.1289,7.1289,7.1289,7.1289,7.1289,7.1751,7.236,7.236,7.2834,7.3432,7.3432,7.3466,7.3635,7.4322,7.5067,7.5642,7.5642,7.5642,7.5676,7.5676,7.6369,7.7075,7.7075,7.7732,7.8336,7.8336,7.8336,7.8336,7.8357,7.8378,7.8378,7.8419,7.915,7.9718,7.9682,8.114,8.2179,8.2233,8.2921,8.341,8.3355,8.3355,8.3391,8.3428,8.4188,8.4623,8.4642,8.5402,8.6163,8.6904,8.694,8.7302,8.8135,8.8135,8.8135,8.8171,8.8171,8.8171,8.8208,8.8208,8.8208,8.8208,8.8208,8.8208,8.8208,8.8171,8.8171,8.8171,8.8135,8.8135,8.8135,8.8099,8.7085,8.5837,0.0,0.0,0.0,0.0,0.0,0.0,0.0,0.0,0.0,0.0,0.0,0.0,0.0,0.0,0.0,0.0,6.9214,6.9316,6.9789,6.9823,6.9823,6.9823,7.0534,7.0939,7.0939,7.1154,7.1289,7.1289,7.1289,7.1289,7.1289,7.1289,7.1289,7.1289,7.1289,7.1289,7.1289,7.1289,7.1289,7.1289,7.1289,7.1289,7.1289,7.1289,7.1289,7.1357,0.0,7.2191,7.2462,7.2969,7.3274,7.35,7.35,7.3815,7.439,7.51,7.5506,7.5709,7.5709,7.6171,7.6622,7.6622,7.7295,7.7955,7.7955,7.8189,7.8419,7.8419,7.8806,7.938,7.9954,8.0055,8.0254,8.089,8.1229,8.1451,8.1433,8.2395,8.3102,8.3102,8.3827,8.4298,8.4298,8.4298,8.4298,8.4298,8.5511,8.6235,8.6235,8.6977,8.7556,8.7809,8.7809,8.7918,8.8208,8.8208,8.8461,8.9024,9.0074,9.0851,9.1358,9.1358,9.1358,9.1358,9.1358,9.1068,9.0545,9.0002,8.9495,8.8951,8.8425,8.8208,8.8208,8.8208,8.7882,8.7411,0.0,0.0,0.0,0.0,0.0,0.0,0.0,0.0,0.0,0.0,0.0,0.0,0.0,0.0,0.0,0.0,0.0,7.0094,7.0567,7.0601,7.0601,7.0601,7.1075,7.1289,7.1289,7.1289,7.1289,7.1289,7.1289,7.1289,7.1289,7.1289,7.1289,7.1289,7.1289,7.1289,7.1289,7.1289,7.1289,7.1289,7.1289,7.1289,7.1289,7.1289,7.1458,0.0,7.2529,7.2969,7.3274,7.3713,7.4052,7.4312,7.4312,7.4593,7.51,7.5574,7.5936,7.6218,7.6218,7.6861,7.7559,7.7559,7.8266,7.8872,7.8872,7.9114,7.9369,7.9369,7.9993,8.0741,8.1303,8.165,8.2037,8.2613,8.274,8.274,8.274,8.3428,8.3936,8.3936,8.4642,8.5221,8.5511,8.5511,8.5511,8.5511,8.6433,8.7121,8.7411,8.7918,8.8461,8.9041,8.9041,8.933,8.991,8.991,9.0163,9.069,9.174,9.2501,9.3008,9.3008,9.3008,9.3008,9.3008,9.2718,9.2211,9.1668,9.1161,9.0654,9.0127,8.991,8.991,8.991,8.991,8.9765,0.0,0.0,0.0,0.0,0.0,0.0,0.0,0.0,0.0,0.0,0.0,0.0,0.0,0.0,0.0,0.0,0.0,0.0,7.1289,7.1289,7.1289,7.1289,7.1289,7.1289,7.1289,7.1289,7.1289,7.1289,7.1289,7.1289,7.1289,7.1289,7.1289,7.1289,7.1289,7.1289,7.1289,7.1289,7.1289,7.1289,7.1289,7.1289,7.1289,7.1289,7.1751,7.2496,7.324,7.395,7.4627,7.4661,7.5134,7.5709,7.5709,7.5757,7.5747,7.5747,7.6439,7.7152,7.7152,7.7819,7.8482,7.8482,7.917,7.987,7.985,8.0509,8.1147,8.1219,8.1853,8.2414,8.2414,8.3066,8.3573,8.3573,8.3573,8.3573,8.3573,8.4262,8.4786,8.4786,8.5475,8.6271,8.6977,8.7049,8.7085,8.7194,8.7158,8.7483,8.828,8.8353,8.9077,9.0654,9.0726,9.1451,9.3008,9.3008,9.3044,9.306,9.306,9.308,9.3117,9.3117,9.3117,9.3117,9.3117,9.3117,9.306,9.306,9.3044,9.3008,9.3008,9.3008,9.3008,9.3008,9.3008,9.2553,0.0,0.0,0.0,0.0,0.0,0.0,0.0,0.0,0.0,0.0,0.0,0.0,0.0,0.0,0.0,0.0,0.0,0.0,7.1289,7.1289,7.1289,7.1289,7.1289,7.1289,7.1289,7.1289,7.1289,7.1289,7.1289,7.1289,7.1289,7.1289,7.1289,7.1289,7.1289,7.1289,7.1289,7.1289,7.1289,7.1289,7.1289,7.1289,7.1289,7.1289,7.1751,7.2496,7.324,7.395,7.4671,7.5236,7.554,7.5709,7.5709,7.6194,7.6759,7.6759,7.7361,7.8062,7.8062,7.8709,7.9373,7.9444,8.0099,8.0911,8.1489,8.1834,8.2143,8.2758,8.3537,8.4098,8.4098,8.4262,8.4388,8.4388,8.4388,8.4388,8.4388,8.5076,8.5801,8.6325,8.6578,8.7013,8.7809,8.7882,8.8389,8.9603,8.9133,8.9133,8.9966,9.0581,9.1342,9.2356,9.2392,9.261,9.3008,9.3008,9.3277,9.3893,9.3893,9.4203,9.4783,9.4783,9.4783,9.4783,9.4783,9.4457,9.3893,9.3893,9.3531,9.3008,9.3008,9.3008,9.3008,9.3008,9.3008,9.2899,0.0,0.0,0.0,0.0,0.0,0.0,0.0,0.0,0.0,0.0,0.0,0.0,0.0,0.0,0.0,0.0,0.0,0.0,0.0,7.1289,7.1289,7.1289,7.1289,7.1289,7.1289,7.1289,7.1289,7.1289,7.1289,7.1289,7.1289,7.1289,7.1289,7.1289,7.1289,7.1289,7.1289,7.1289,7.1289,0.0,0.0,7.1289,7.1289,7.1289,7.1954,7.2935,7.3364,7.4187,7.5205,7.6058,7.6054,7.5747,7.6194,7.6691,7.7175,7.7559,7.8294,7.9029,7.9029,7.9643,8.0397,8.0811,8.1254,8.1817,8.2632,8.2849,8.2958,8.3428,8.4135,8.4678,8.4678,8.4968,8.5221,8.5221,8.5221,8.5221,8.5221,8.5909,8.6561,8.694,8.7302,8.799,8.9149,8.9258,8.991,9.1523,9.0581,9.0436,9.1595,9.2102,9.2718,9.3494,9.3531,9.3696,9.4058,9.4058,9.4276,9.4746,9.4746,9.4964,9.5419,9.5419,9.5419,9.5419,9.5419,9.5145,9.4746,9.4746,9.4457,9.4058,9.4058,9.4058,9.4058,9.4058,9.4058,9.4058,0.0,0.0,0.0,0.0,0.0,0.0,0.0,0.0,0.0,0.0,0.0,0.0,0.0,0.0,0.0,0.0,0.0,0.0,0.0,0.0,7.1289,7.1289,7.1289,7.1289,7.1289,7.1289,7.1289,7.1289,7.1289,7.1289,7.1289,7.1289,7.1289,7.1289,7.1289,7.1289,7.1289,7.1289,7.1289,7.1289,7.1289,7.1289,7.1289,0.0,7.2293,7.3534,7.3737,7.4687,7.6007,7.6827,7.6554,7.6054,7.6973,7.7352,7.7615,7.8357,7.923,7.9966,7.9966,8.0618,8.1418,8.2124,8.2378,8.2668,8.3501,8.3682,8.3682,8.3791,8.437,8.4859,8.4859,8.5438,8.5909,8.5909,8.5909,8.5945,8.6018,8.6578,8.7085,8.7302,8.8027,8.9113,9.0618,9.0871,9.1559,9.3044,9.1885,9.1704,9.306,9.3132,9.3531,9.4348,9.4384,9.4674,9.5383,9.5419,9.5419,9.5419,9.5419,9.5419,9.5419,9.5419,9.5419,9.5419,9.5419,9.5419,9.5419,9.5419,9.5419,9.5419,9.5419,9.5419,9.5419,9.5419,9.5419,9.5419,0.0,0.0,0.0,0.0,0.0,0.0,0.0,0.0,0.0,0.0,6.8605,0.0,0.0,0.0,0.0,0.0,0.0,0.0,0.0,0.0,0.0,7.1289,7.1289,7.1289,7.1289,7.1289,7.1289,7.1289,7.1289,7.1289,7.1289,7.1289,7.1289,7.1289,7.1289,7.1289,7.1289,7.1289,7.1289,7.1289,7.1289,7.1289,7.1357,7.1988,0.0,0.0,7.4864,7.5979,7.6895,7.7053,7.7008,7.6996,7.7891,7.8723,7.9365,7.9467,8.0156,8.0876,8.0876,8.1473,8.2124,8.2269,8.2813,8.3501,8.4316,8.4497,8.4678,8.533,8.5583,8.5692,8.5692,8.5801,8.5909,8.5909,8.5909,8.6126,8.6723,8.6904,8.7483,8.8843,8.9676,9.0545,9.1487,9.2211,9.2972,9.3929,9.3712,9.3675,9.3965,9.3965,9.4348,9.5166,9.5181,9.5274,9.5419,9.5419,9.5419,9.5419,9.5419,9.5419,9.5419,9.5419,9.5419,9.5419,9.5419,9.5419,9.5419,9.5419,9.5419,9.5419,9.5419,9.5419,9.5419,9.5419,9.5419,9.5419,0.0,0.0,0.0,0.0,0.0,0.0,0.0,0.0,0.0,0.0,6.8605,6.9383,0.0,0.0,0.0,0.0,0.0,0.0,0.0,0.0,0.0,0.0,7.1289,7.1289,7.1289,7.1289,7.1289,7.1289,0.0,7.1289,7.1289,7.1289,7.1289,7.1289,7.1289,7.1289,7.1289,7.1289,7.1289,7.1289,7.1289,7.1289,7.1323,0.0,0.0,0.0,7.5168,7.6277,7.7152,7.7624,7.8062,7.8523,7.8953,7.9408,7.9853,8.0288,8.0749,8.1111,8.1111,8.1672,8.2414,8.2813,8.3537,8.4316,8.5149,8.533,8.5438,8.5801,8.5909,8.5909,8.5909,8.5909,8.5909,8.5909,8.5909,8.6163,8.6904,8.7375,8.8063,8.9241,9.0473,9.1559,9.2356,9.3153,9.395,9.4746,9.4819,9.4819,9.4819,9.4819,9.5,9.5383,9.5419,9.5419,9.5419,9.5419,9.5419,9.5419,9.5818,9.6035,9.6035,9.647,9.663,9.663,9.663,9.663,9.663,9.663,9.6376,9.6035,9.6035,9.5782,9.5419,9.5419,9.5419,9.5419,0.0,0.0,0.0,0.0,0.0,0.0,0.0,6.6791,6.7015,6.759,6.8368,6.9113,6.9857,7.077,0.0,0.0,0.0,0.0,0.0,0.0,0.0,0.0,0.0,0.0,7.1289,0.0,0.0,7.1289,7.1289,0.0,0.0,0.0,0.0,0.0,7.1289,7.1267,7.1222,7.1267,7.1267,0.0,0.0,7.1244,7.1323,0.0,0.0,0.0,0.0,7.6599,7.7493,7.8399,7.9254,8.0006,8.0006,8.0006,8.0139,8.0858,8.1111,8.1147,8.1309,8.1925,8.274,8.3573,8.4352,8.5112,8.5764,8.5909,8.5909,8.5909,8.5909,8.5909,8.5909,8.5909,8.5909,8.5909,8.5909,8.6235,8.7121,8.7809,8.8642,8.9785,9.1197,9.2392,9.3189,9.3986,9.471,9.5347,9.5419,9.5419,9.5419,9.5419,9.5419,9.5419,9.5564,9.5673,9.5673,9.5854,9.5926,9.5926,9.6579,9.6847,9.6883,9.7499,9.7789,9.7789,9.7789,9.7789,9.7789,9.7789,9.7427,9.6847,9.6847,9.6449,9.5926,9.5926,9.5926,9.5926,0.0,0.0,0.0,0.0,0.0,0.0,0.0,6.6791,6.6825,6.6893,6.7557,6.8301,6.9113,7.0466,0.0,0.0,0.0,0.0,0.0,0.0,0.0,0.0,0.0,0.0,0.0,0.0,0.0,7.1289,7.1289,0.0,0.0,0.0,0.0,0.0,0.0,7.1176,7.0939,7.1199,0.0,0.0,0.0,0.0,0.0,0.0,0.0,0.0,0.0,7.7537,7.8419,7.9294,8.0213,8.0967,8.0967,8.0967,8.0985,8.1056,8.1111,8.1273,8.2016,8.2776,8.3573,8.4388,8.5185,8.5801,8.5873,8.5909,8.5909,8.5909,8.5909,8.5909,8.5909,8.5909,8.5909,8.5909,8.5909,8.6416,8.7882,8.8135,8.9041,9.1306,9.2356,9.3205,9.4001,9.4819,9.5311,9.5383,9.5419,9.5419,9.5419,9.5419,9.5419,9.5419,9.6108,9.6506,9.6506,9.7209,9.7571,9.7571,9.7644,9.768,9.768,9.7752,9.7789,9.7789,9.7789,9.7789,9.7789,9.7789,9.7752,9.768,9.768,9.7644,9.7571,9.7571,9.7571,9.7571,0.0,0.0,0.0,0.0,0.0,0.0,0.0,6.6791,6.6791,6.6791,6.7455,6.8199,6.9011,7.0026,7.0804,0.0,0.0,0.0,0.0,0.0,0.0,0.0,0.0,0.0,0.0,0.0,7.1289,7.1289,7.1289,0.0,0.0,0.0,0.0,0.0,0.0,7.0984,7.0916,7.1007,0.0,0.0,0.0,0.0,0.0,0.0,0.0,0.0,0.0,0.0,7.9234,7.9624,8.0361,8.1111,8.1111,8.1111,8.1111,8.1111,8.1111,8.1273,8.2088,8.2885,8.3682,8.4497,8.5293,8.5909,8.5909,8.5909,8.5909,8.5909,8.5909,8.5909,8.5909,8.5909,8.5909,8.5909,8.5909,8.6452,8.799,8.8208,8.9113,9.1523,9.2501,9.3334,9.411,9.4927,9.5419,9.5419,9.5854,9.6144,9.6144,9.6144,9.6144,9.6144,9.6883,9.7318,9.7318,9.7644,9.7789,9.7789,9.8296,9.8513,9.8549,9.902,9.9237,9.9237,9.9237,9.9237,9.9237,9.9237,9.8948,9.8513,9.8513,9.8223,9.7789,9.7789,9.7875,9.7945,0.0,0.0,0.0,0.0,0.0,0.0,6.6749,6.6791,6.6791,6.6791,6.7252,6.7963,6.8977,6.9553,7.0263,7.1222,0.0,0.0,0.0,0.0,0.0,0.0,0.0,0.0,0.0,0.0,7.1289,7.1289,7.1289,7.1188,0.0,0.0,7.0973,7.0951,0.0,0.0,0.0,0.0,0.0,0.0,0.0,0.0,0.0,0.0,0.0,0.0,0.0,0.0,0.0,0.0,0.0,8.1111,8.1111,8.1111,8.1147,8.1382,8.1309,8.1382,8.2668,8.3247,8.3755,8.4786,8.5475,8.5909,8.5909,8.5909,8.5909,8.5909,8.5909,8.5909,8.5909,8.5909,8.5909,8.5909,8.609,8.6706,8.8027,8.8389,8.9439,9.1885,9.2682,9.3406,9.4457,9.5072,9.5492,9.5745,9.6268,9.6702,9.6919,9.7173,9.7209,9.6956,9.7716,9.8151,9.8151,9.8404,9.8513,9.8513,9.9093,9.9346,9.9382,9.9962,10.0215,10.0215,10.0281,10.0325,10.0289,10.0391,10.0014,9.9506,9.9506,9.9201,9.8692,9.8692,9.8799,9.8869,0.0,0.0,0.0,0.0,0.0,0.0,0.0,6.6791,6.6791,6.6791,6.6791,6.74,6.8944,6.9113,6.9722,7.1154,0.0,0.0,0.0,0.0,0.0,0.0,0.0,0.0,0.0,0.0,7.1289,7.1289,7.1289,7.0939,7.0217,7.0217,7.0217,7.0195,0.0,0.0,0.0,0.0,0.0,0.0,0.0,0.0,0.0,0.0,0.0,0.0,0.0,0.0,0.0,0.0,0.0,0.0,0.0,8.1111,8.1273,8.2052,8.1708,8.1635,8.4026,8.4117,8.3899,8.5475,8.5873,8.5909,8.5909,8.5909,8.5909,8.5909,8.5909,8.5909,8.5909,8.5909,8.5909,8.5909,8.6506,8.7266,8.8099,8.8879,9.0292,9.2718,9.2987,9.3624,9.5238,9.5419,9.5745,9.6542,9.6593,9.6956,9.7752,9.8549,9.8622,9.7825,9.8585,9.8984,9.8984,9.9781,10.0215,10.0215,10.0215,10.0215,10.0215,10.0215,10.0215,10.0179,10.0384,10.0492,10.0492,10.0691,10.0797,10.0797,10.0797,10.0797,10.0797,10.0797,10.0797,10.0797,0.0,0.0,0.0,0.0,0.0,0.0,0.0,6.6791,6.6791,6.6791,6.7252,6.7963,6.8977,6.9553,7.0229,7.1222,0.0,0.0,0.0,0.0,0.0,0.0,0.0,0.0,0.0,0.0,0.0,0.0,7.006,6.9688,6.9451,6.9451,6.9352,6.9198,6.9402,6.9521,0.0,0.0,0.0,0.0,0.0,0.0,7.2536,0.0,0.0,0.0,0.0,0.0,0.0,0.0,0.0,0.0,0.0,0.0,0.0,8.2722,8.2559,8.2324,8.4171,8.4497,8.4569,8.5619,8.5909,8.5909,8.5909,8.5909,8.5909,8.5909,8.5909,8.5909,8.5909,8.5909,8.5909,8.5909,8.609,8.6706,8.8027,8.8425,8.9656,9.2646,9.395,9.4819,9.5347,9.589,9.6304,9.6579,9.7608,9.8332,9.8622,9.9382,9.9455,9.8658,9.9419,9.9817,9.9817,10.0107,10.0215,10.0215,10.0297,10.042,10.0384,10.0499,10.0621,10.0621,10.0685,10.0691,10.0691,10.0813,10.0797,10.0797,10.0797,10.0797,10.0797,10.0797,10.0902,10.1007,0.0,0.0,0.0,0.0,0.0,0.0,0.0,6.6791,6.6893,6.7184,6.7624,6.8301,6.9383,6.9925,7.05,7.1222,0.0,0.0,0.0,0.0,0.0,0.0,0.0,0.0,0.0,0.0,0.0,0.0,0.0,0.0,6.8639,6.8586,6.8444,6.8291,6.8428,6.8704,0.0,0.0,0.0,0.0,0.0,0.0,7.3129,0.0,0.0,0.0,0.0,0.0,0.0,0.0,0.0,0.0,0.0,0.0,0.0,0.0,8.3139,8.3102,8.4714,8.4931,8.4895,8.5692,8.5909,8.5909,8.5909,8.5909,8.5909,8.5909,8.5909,8.5909,8.5909,8.5909,8.5909,8.5909,8.6126,8.6778,8.8027,8.8461,8.9729,9.2646,9.442,9.5419,9.5419,9.6144,9.6723,9.7028,9.826,9.9129,9.9455,9.9926,9.9962,9.9491,9.9962,10.0215,10.0215,10.0303,10.0311,10.0311,10.0514,10.0621,10.0585,10.0697,10.0797,10.0797,10.0881,10.1017,0.0,10.1007,10.1085,10.1085,10.1085,10.1085,10.1085,10.1085,10.1188,10.1291,0.0,0.0,0.0,0.0,0.0,0.0,0.0,0.0,0.0,0.0,6.7996,6.8605,7.0048,7.0251,7.0534,0.0,0.0,0.0,0.0,0.0,0.0,0.0,0.0,0.0,0.0,0.0,0.0,6.9011,6.8977,6.8538,6.7827,0.0,6.7517,6.7473,6.7113,6.7778,0.0,0.0,0.0,0.0,0.0,0.0,0.0,0.0,0.0,0.0,0.0,0.0,0.0,0.0,0.0,0.0,0.0,0.0,0.0,0.0,0.0,0.0,0.0,8.533,8.4968,8.5692,8.5909,8.5909,8.5909,8.5909,0.0,8.5909,8.5909,8.5909,8.5909,8.5909,8.5909,8.5909,8.6489,8.723,8.8099,8.906,9.0473,9.2754,9.442,9.5419,9.5419,9.618,9.6992,9.7752,9.8607,9.944,10.0201,10.0201,10.0187,10.0187,10.0187,10.0201,10.0201,10.0384,10.0514,10.0514,10.0713,10.0818,10.0782,10.0803,10.0803,10.0897,10.1106,10.1209,10.1209,10.1376,10.1514,10.1514,10.1514,10.1514,10.1514,10.1514,10.1514,10.1514,0.0,0.0,0.0,0.0,0.0,0.0,0.0,0.0,0.0,0.0,6.891,6.9811,7.0184,7.0703,0.0,0.0,0.0,0.0,0.0,0.0,0.0,0.0,0.0,0.0,0.0,0.0,0.0,6.8166,6.7624,6.7231,6.7062,6.6849,0.0,0.0,0.0,0.0,0.0,0.0,0.0,0.0,0.0,0.0,0.0,0.0,0.0,0.0,8.0496,8.1111,0.0,0.0,0.0,0.0,0.0,0.0,0.0,0.0,8.3501,8.3863,8.5475,0.0,8.5656,8.5837,8.5909,8.5909,0.0,8.5909,8.5909,8.5909,8.5909,8.5909,8.5909,8.5909,8.5909,8.5909,8.6054,8.6634,8.8027,9.0489,9.2356,9.2935,9.442,9.5419,9.5419,9.6666,9.7608,9.7789,9.9266,10.0188,10.0406,10.0615,10.0722,10.0722,10.0722,10.06,10.0406,10.0606,10.0713,10.0713,10.0981,10.1106,10.1106,10.1307,10.1315,10.1315,10.1413,10.1397,10.1397,10.1494,10.1514,10.1514,10.1514,10.1514,10.1514,10.1514,10.1514,10.1514,0.0,0.0,0.0,0.0,0.0,0.0,0.0,0.0,0.0,0.0,0.0,0.0,0.0,0.0,0.0,0.0,0.0,0.0,0.0,0.0,0.0,0.0,0.0,0.0,0.0,0.0,0.0,0.0,0.0,6.6749,0.0,0.0,0.0,0.0,0.0,0.0,0.0,0.0,0.0,0.0,7.3336,0.0,0.0,0.0,0.0,0.0,8.0459,8.1111,0.0,8.1111,8.1111,8.1111,0.0,0.0,0.0,0.0,8.3501,8.3863,8.5475,8.5909,8.5909,8.5909,8.5909,8.5909,8.5909,8.5909,8.5909,8.5909,8.5909,8.5909,8.5909,8.5909,8.5909,8.5909,8.6199,8.7104,8.9004,9.1451,9.3153,9.3515,9.4638,9.5419,9.5419,9.6847,9.7832,9.7939,9.9519,10.0499,10.0606,10.0676,10.0797,10.0797,10.0902,10.0876,10.0606,10.0912,10.1002,10.1002,10.1172,10.1295,10.1295,10.149,10.1514,10.1514,10.1514,10.1514,10.1514,10.1514,10.1514,10.1514,10.1514,10.1514,10.1514,10.1514,10.1514,10.1514,0.0,0.0,0.0,0.0,0.0,0.0,0.0,0.0,0.0,0.0,0.0,0.0,0.0,0.0,0.0,0.0,0.0,0.0,0.0,0.0,0.0,0.0,0.0,0.0,0.0,0.0,0.0,0.0,0.0,0.0,0.0,0.0,6.6331,0.0,0.0,0.0,0.0,0.0,0.0,0.0,7.3696,0.0,0.0,0.0,0.0,0.0,0.0,0.0,0.0,8.1111,8.1111,8.1111,8.1111,0.0,0.0,0.0,0.0,0.0,8.5475,8.5909,8.5909,8.5909,8.5909,8.5909,8.5909,8.5909,8.5909,8.5909,8.5909,8.5909,8.5909,8.5909,8.5909,8.5909,8.6634,8.799,9.0292,9.1994,9.3298,9.411,9.4891,9.5419,9.5461,9.6911,9.7939,9.8136,9.9669,10.0685,10.0912,10.0918,10.0902,10.0902,10.109,10.109,10.0902,10.109,10.1193,10.1193,10.1376,10.1514,10.1514,10.1514,10.1514,10.1514,10.1514,10.1514,10.1514,10.1514,10.1514,10.1514,10.1514,10.1514,10.1514,10.1514,10.1514,10.1514,0.0,0.0,0.0,0.0,0.0,0.0,0.0,0.0,0.0,0.0,0.0,0.0,0.0,0.0,0.0,0.0,0.0,0.0,0.0,0.0,0.0,0.0,7.05,6.9722,6.9113,6.8199,0.0,0.0,0.0,0.0,6.6783,6.7177,6.7913,0.0,0.0,0.0,0.0,0.0,0.0,0.0,7.4299,0.0,0.0,0.0,0.0,0.0,0.0,0.0,0.0,8.1111,8.1111,8.1111,8.1111,0.0,0.0,0.0,0.0,0.0,8.5475,8.5909,8.5909,8.5909,8.5909,8.5909,8.5909,8.5909,8.5909,8.5909,8.5909,8.5909,8.5909,8.5909,8.5909,8.5909,8.7085,8.8606,9.0364,9.1994,9.3298,9.411,9.4891,9.5482,9.5633,9.7107,9.8136,9.8365,10.0084,10.1085,10.109,10.1311,10.1413,10.1413,10.1397,10.1397,10.1413,10.1397,10.149,10.149,10.1494,10.1514,10.1514,10.1514,10.1514,10.1514,10.1514,10.1514,10.1514,10.1514,10.1514,10.1514,10.1514,10.1514,10.1514,10.1514,10.1514,10.1514,0.0,0.0,0.0,0.0,0.0,0.0,0.0,0.0,0.0,0.0,0.0,0.0,0.0,0.0,0.0,0.0,0.0,0.0,0.0,0.0,0.0,0.0,7.0973,7.0432,6.9688,6.8944,0.0,0.0,0.0,6.7966,6.7837,6.7956,6.8339,6.8897,0.0,0.0,0.0,0.0,0.0,0.0,0.0,0.0,0.0,0.0,0.0,0.0,0.0,0.0,0.0,0.0,8.1111,8.1111,8.1111,0.0,0.0,0.0,0.0,0.0,8.5828,8.608,8.6025,8.6136,8.6024,8.5909,8.5909,8.5909,8.5909,8.5909,8.5909,8.5909,8.5909,8.5909,8.6163,8.7032,8.7737,8.908,9.1683,9.2683,9.3667,9.5004,9.5497,9.5756,9.5858,9.7335,9.8365,9.8591,10.0192,10.1193,10.1389,10.1417,10.1514,10.1514,10.1514,10.1514,10.1514,10.1514,10.1514,10.1514,10.1514,10.1514,10.1514,10.1514,10.1514,10.1514,10.1514,10.1514,10.1514,10.1514,10.1514,10.1514,10.1514,10.1514,10.1514,10.1514,10.1514,10.1514,0.0,0.0,0.0,0.0,0.0,0.0,0.0,0.0,0.0,0.0,0.0,0.0,0.0,0.0,0.0,0.0,0.0,0.0,0.0,0.0,7.1289,7.1289,7.1289,7.0973,7.0217,6.9654,6.9282,6.9113,6.9113,6.9093,6.9041,6.8831,6.8864,0.0,0.0,0.0,0.0,0.0,0.0,0.0,0.0,0.0,0.0,0.0,0.0,0.0,0.0,0.0,0.0,0.0,0.0,0.0,0.0,0.0,0.0,8.3702,8.4562,8.5276,8.615,8.6338,8.6338,8.6374,8.6172,8.5928,8.593,8.5911,8.5909,8.5909,8.5909,8.5909,8.5909,8.6092,8.671,8.8068,8.865,8.9945,9.2956,9.3521,9.4236,9.5797,9.6,9.602,9.608,9.754,9.8591,9.885,10.0408,10.1295,10.1494,10.1514,10.1514,10.1514,10.1514,10.1514,10.1514,10.1514,10.1514,10.1514,10.1514,10.1514,10.1514,10.1514,10.1514,10.1514,10.1514,10.1514,10.1514,10.1514,10.1514,10.1514,10.1514,10.1514,10.1514,10.1514,10.1514,10.1514,0.0,0.0,0.0,0.0,0.0,0.0,0.0,0.0,0.0,0.0,0.0,0.0,0.0,0.0,0.0,0.0,0.0,0.0,0.0,0.0,7.1289,7.1289,7.1289,7.0973,7.0217,7.015,6.9789,6.9113,6.9113,6.9451,7.0072,6.9794,7.0198,7.1075,0.0,0.0,0.0,0.0,0.0,0.0,0.0,0.0,0.0,0.0,0.0,0.0,0.0,0.0,0.0,0.0,0.0,0.0,0.0,0.0,8.2534,8.4288,8.5265,8.5842,8.629,8.6657,8.6843,8.6482,8.6172,8.593,8.6044,8.5969,8.5909,8.5909,8.5909,8.5909,8.5909,8.664,8.7535,8.8351,8.9941,9.1661,9.3338,9.4213,9.5015,9.589,9.6,9.608,9.6335,9.7818,9.887,9.9069,10.0593,10.1494,10.1514,10.1514,10.1514,10.1514,10.1514,10.1514,10.1514,10.1514,10.1514,10.1514,10.1514,10.1514,10.1514,10.1514,10.1514,10.1514,10.1514,10.1514,10.1514,10.1514,10.1514,10.1514,10.1514,10.1514,10.1514,10.1514,10.1514,10.1514,0.0,0.0,0.0,0.0,0.0,0.0,0.0,0.0,0.0,0.0,0.0,0.0,0.0,0.0,0.0,0.0,0.0,0.0,0.0,0.0,7.1289,7.1289,7.1289,7.1154,7.0906,7.0872,7.077,7.0466,7.0466,7.0635,7.0872,7.0782,0.0,0.0,0.0,0.0,0.0,0.0,0.0,0.0,0.0,0.0,0.0,0.0,0.0,0.0,0.0,0.0,0.0,0.0,8.1356,8.1709,8.2079,8.3128,8.434,8.4907,8.5924,8.6852,8.6798,8.6783,8.6798,8.6767,8.6483,8.6192,8.6118,8.6044,8.5987,8.5911,8.608,8.6355,8.6865,8.7266,8.7922,8.9197,9.0475,9.1884,9.3625,9.4558,9.5401,9.6324,9.6453,9.6472,9.657,9.8036,9.9009,9.9088,10.0613,10.1514,10.1514,10.1514,10.1514,10.1514,10.1514,10.1514,10.1514,10.1514,10.1514,10.1514,10.1514,10.1514,10.1514,10.1514,10.1514,10.1514,10.1514,10.1514,10.1514,10.1514,10.1514,10.1514,10.1514,10.1514,10.1514,10.1514,10.1514,10.1514,0.0,0.0,0.0,0.0,0.0,0.0,0.0,0.0,0.0,0.0,0.0,0.0,0.0,0.0,0.0,0.0,0.0,0.0,0.0,7.1289,7.1289,7.1289,7.1289,7.1289,7.1289,7.1289,7.1289,7.1289,7.1289,7.1289,7.1289,0.0,0.0,0.0,0.0,0.0,0.0,0.0,0.0,0.0,0.0,0.0,0.0,0.0,0.0,0.0,0.0,0.0,0.0,0.0,8.1426,8.1892,8.2391,8.3688,8.5116,8.5454,8.6455,8.7421,8.7074,8.6993,8.699,8.6995,8.6697,8.6356,8.6302,8.6247,8.6155,8.6098,8.6465,8.6939,8.7486,8.8089,8.8837,8.9933,9.134,9.2659,9.3909,9.5027,9.5927,9.6629,9.6685,9.6685,9.6685,9.7933,9.8851,9.9071,10.0393,10.12,10.1514,10.1514,10.1514,10.1514,10.1514,10.1514,10.1514,10.1514,10.1514,10.1514,10.1514,10.1514,10.1514,10.1514,10.1514,10.1514,10.1514,10.1514,10.1514,10.1514,10.1514,10.1514,10.1514,10.1514,10.1514,10.1514,10.1514,10.1514,0.0,0.0,0.0,0.0,0.0,0.0,0.0,0.0,0.0,0.0,0.0,0.0,0.0,0.0,0.0,0.0,0.0,0.0,7.1289,7.1289,7.1289,7.1289,7.1289,7.1289,7.1289,7.1289,7.1289,7.1289,7.1289,7.1289,7.1289,7.1289,0.0,0.0,0.0,0.0,0.0,0.0,0.0,0.0,7.9607,7.9897,0.0,0.0,0.0,0.0,0.0,0.0,0.0,0.0,8.1234,8.1613,8.2898,8.3647,8.4331,8.5854,8.6885,8.7421,8.7074,8.7275,8.7517,8.7078,8.6697,8.6483,8.6643,8.6573,8.6429,8.6429,8.7049,8.7614,8.7614,8.913,9.0411,9.0411,9.261,9.4299,9.4299,9.5694,9.6685,9.6685,9.6685,9.6685,9.6685,9.7419,9.8227,9.9035,9.9842,10.0706,10.1514,10.1514,10.1514,10.1514,10.1514,10.1514,10.1514,10.1514,10.1514,10.1514,10.1514,10.1514,10.1514,10.1514,10.1514,10.1514,10.1514,10.1514,10.1514,10.1514,10.1514,10.1514,10.1514,10.1514,10.1514,10.1514,10.1514,10.1514,0.0,0.0,0.0,0.0,0.0,0.0,0.0,0.0,0.0,0.0,0.0,0.0,0.0,0.0,0.0,0.0,0.0,0.0,7.1289,7.1289,7.1289,7.1289,7.1289,7.1289,7.1289,7.1289,7.1289,7.1289,7.1289,7.1289,0.0,0.0,0.0,7.2533,0.0,0.0,0.0,0.0,0.0,0.0,8.0423,8.0748,0.0,0.0,0.0,0.0,0.0,0.0,0.0,0.0,0.0,0.0,8.3423,8.4598,8.5674,8.6311,8.7116,8.7694,8.7124,8.7098,8.7163,8.7029,8.6908,8.6838,8.6891,8.6768,8.6808,8.7536,8.774,8.8198,8.9477,9.0172,9.0905,9.2097,9.3418,9.4483,9.507,9.6061,9.6685,9.6685,9.6685,9.6685,9.6685,9.7419,9.8227,9.9035,9.9842,10.0706,10.1514,10.1514,10.1514,10.1514,10.1514,10.1514,10.1514,10.1514,10.1514,10.1514,10.1514,10.1514,10.1514,10.1514,10.1514,10.1514,10.1514,10.1514,10.1514,10.1514,10.1514,10.1514,10.1514,10.1514,10.1514,10.1514,10.1514,10.1514,0.0,0.0,0.0,0.0,0.0,0.0,0.0,0.0,0.0,0.0,7.0014,0.0,0.0,0.0,0.0,0.0,0.0,0.0,0.0,0.0,7.1289,7.1289,7.1289,7.1289,7.1289,7.1289,7.1289,7.1289,7.1289,0.0,0.0,0.0,0.0,7.3565,0.0,7.6337,7.7811,0.0,8.006,8.0423,8.0893,8.1111,8.1111,0.0,0.0,0.0,0.0,0.0,0.0,0.0,0.0,0.0,8.3728,8.4932,8.6123,8.6493,8.7048,8.746,8.7098,8.6978,8.6978,8.6978,8.6978,8.6978,8.6978,8.6908,8.7076,8.8005,8.8375,8.8945,9.0336,9.0849,9.151,9.2868,9.3786,9.4593,9.5382,9.6208,9.6685,9.6685,9.6685,9.6685,9.6685,9.7126,9.7897,9.9035,9.9548,10.0283,10.1384,10.1514,10.1514,10.1514,10.1514,10.1514,10.1514,10.1514,10.1514,10.1514,10.1514,10.1514,10.1514,10.1514,10.1514,10.1514,10.1514,10.1514,10.1514,10.1514,10.1514,10.1514,10.1514,10.1514,10.1514,10.1514,10.1514,10.1514,0.0,0.0,0.0,0.0,0.0,0.0,0.0,0.0,0.0,0.0,6.9688,7.0398,0.0,0.0,0.0,0.0,0.0,0.0,0.0,0.0,7.1289,7.1289,7.1289,7.1289,7.1289,7.1289,7.1289,7.1289,7.1289,0.0,0.0,0.0,7.3503,7.5172,0.0,7.7756,7.9897,7.9969,8.044,8.1111,8.1111,8.1111,8.1111,8.1111,0.0,0.0,0.0,0.0,0.0,0.0,0.0,0.0,8.3936,8.4931,8.5919,8.6471,8.6804,8.6978,8.6978,8.6978,8.6978,8.6978,8.6978,8.6978,8.6978,8.7051,8.7362,8.8133,8.8959,8.9767,9.0537,9.1326,9.2097,9.3051,9.3822,9.4593,9.5492,9.6245,9.6685,9.6685,9.6685,9.6685,9.6685,9.6685,9.7383,9.8998,9.9108,9.9805,10.1404,10.1514,10.1514,10.1514,10.1514,10.1514,10.1514,10.1514,10.1514,10.1514,10.1514,10.1514,10.1514,10.1514,10.1514,10.1514,10.1514,10.1514,10.1514,10.1514,10.1514,10.1514,10.1514,10.1514,10.1514,10.1514,10.1514,10.1514,0.0,0.0,0.0,0.0,0.0,0.0,0.0,0.0,0.0,0.0,0.0,0.0,0.0,0.0,0.0,0.0,0.0,0.0,0.0,0.0,7.1289,7.1289,7.1289,7.1289,7.1289,7.1289,7.1289,7.1289,7.1289,0.0,0.0,0.0,0.0,7.6071,0.0,7.8762,7.9933,8.0567,8.0929,8.1111,8.1111,8.1111,8.1111,8.1111,8.1181,0.0,0.0,0.0,0.0,0.0,0.0,0.0,8.4913,8.5591,8.5964,8.6688,8.6951,8.6978,8.6978,8.6978,8.6978,8.6978,8.6978,8.6978,8.6978,8.7509,8.8169,8.8959,8.9767,9.0592,9.14,9.1693,9.2281,9.3786,9.4189,9.4813,9.6245,9.6575,9.6685,9.6685,9.6685,9.6685,9.6685,9.6685,9.7383,9.8998,9.9108,9.9805,10.1404,10.1514,10.1514,10.1514,10.1514,10.1514,10.1514,10.1514,10.1514,10.1514,10.1514,10.1514,10.1514,10.1514,10.1514,10.1514,10.1514,10.1514,10.1514,10.1514,10.1514,10.1514,10.1514,10.1514,10.1514,10.1514,10.1514,10.1514,0.0,0.0,0.0,0.0,0.0,0.0,0.0,0.0,0.0,0.0,0.0,0.0,0.0,0.0,0.0,0.0,0.0,0.0,0.0,0.0,0.0,7.1289,7.1289,7.1479,7.1851,7.1873,0.0,0.0,7.287,0.0,0.0,0.0,0.0,7.7439,0.0,7.9666,8.0495,8.0929,8.1111,8.1111,8.1111,8.1182,8.1234,8.1234,8.1576,8.2078,8.2164,0.0,0.0,0.0,0.0,0.0,0.0,0.0,8.6444,8.6867,8.6978,8.6978,8.6978,8.6978,8.6978,8.6978,8.6978,8.6978,8.6978,8.7895,8.8886,8.9326,9.0024,9.0849,9.1657,9.2134,9.2831,9.4079,9.463,9.529,9.6539,9.6685,9.6685,9.6685,9.6685,9.6685,9.6685,9.6685,9.7383,9.8998,9.9108,9.9805,10.1404,10.1514,10.1514,10.1514,10.1514,10.1514,10.1514,10.1514,10.1514,10.1514,10.1514,10.1514,10.1514,10.1514,10.1514,10.1514,10.1514,10.1514,10.1514,10.1514,10.1514,10.1514,10.1514,10.1514,10.1514,10.1514,10.1514,10.1514,0.0,0.0,0.0,0.0,0.0,0.0,0.0,0.0,0.0,0.0,0.0,0.0,0.0,0.0,0.0,0.0,0.0,0.0,0.0,0.0,0.0,0.0,7.1501,7.1873,7.2721,0.0,0.0,0.0,0.0,0.0,0.0,0.0,0.0,7.8844,0.0,8.0476,8.1111,8.1111,8.1128,8.1164,8.1309,8.147,0.0,0.0,0.0,8.307,8.3244,8.3769,8.4405,8.4705,0.0,0.0,0.0,0.0,8.6978,8.6978,8.6978,8.6978,8.6978,8.6978,8.6978,8.6978,8.6978,8.6978,8.6978,8.8225,8.94,8.94,9.0134,9.1033,9.1693,9.2501,9.3345,9.4153,9.4997,9.5804,9.6575,9.6685,9.6685,9.6685,9.6685,9.6685,9.6685,9.6685,9.7383,9.8998,9.9108,9.9805,10.1404,10.1514,10.1514,10.1514,10.1514,10.1514,10.1514,10.1514,10.1514,10.1514,10.1514,10.1514,10.1514,10.1514,10.1514,10.1514,10.1514,10.1514,10.1514,10.1514,10.1514,10.1514,10.1514,10.1514,10.1514,10.1514,10.1514,10.1514,0.0,0.0,0.0,0.0,0.0,0.0,0.0,0.0,0.0,0.0,6.9422,7.0108,0.0,0.0,0.0,0.0,0.0,0.0,0.0,0.0,0.0,7.23,7.2321,7.2728,7.3602,0.0,0.0,0.0,7.5718,7.675,7.7935,7.8201,0.0,7.9755,0.0,0.0,8.1111,8.1111,8.1181,8.143,8.2121,8.2481,0.0,0.0,0.0,0.0,0.0,8.433,8.4685,8.5416,8.571,0.0,0.0,0.0,8.6978,8.6978,8.6978,8.6978,8.6978,8.6978,8.6978,8.6978,8.6978,8.6978,8.6978,8.8225,8.94,8.94,9.0592,9.1657,9.1767,9.2501,9.3345,9.4153,9.4997,9.5804,9.6575,9.6685,9.6685,9.6685,9.6685,9.6685,9.6685,9.6685,9.7383,9.8998,9.9108,9.9805,10.1404,10.1514,10.1514,10.1514,10.1514,10.1514,10.1514,10.1514,10.1514,10.1514,10.1514,10.1514,10.1514,10.1514,10.1514,10.1514,10.1514,10.1514,10.1514,10.1514,10.1514,10.1514,10.1514,10.1514,10.1514,10.1514,10.1514,10.1514,0.0,0.0,0.0,0.0,0.0,0.0,0.0,0.0,0.0,0.0,0.0,7.0164,0.0,0.0,0.0,0.0,7.1289,7.1289,0.0,0.0,0.0,7.249,7.2955,7.3641,7.4508,7.4971,0.0,7.6425,7.7703,7.8657,7.9323,7.9791,8.0189,0.0,0.0,0.0,0.0,8.1563,8.1906,8.2156,8.2938,0.0,0.0,0.0,0.0,0.0,0.0,0.0,8.6004,8.6371,8.6481,8.6518,8.6885,0.0,0.0,0.0,8.6978,8.6978,8.6978,8.6978,8.6978,8.6978,8.6978,8.6978,8.6978,8.8225,8.94,8.94,9.0702,9.1803,9.1803,9.2868,9.3896,9.4226,9.5364,9.6318,9.6649,9.6685,9.6685,9.6685,9.6685,9.6685,9.6685,9.6685,9.7383,9.8998,9.9108,9.9805,10.1404,10.1514,10.1514,10.1514,10.1514,10.1514,10.1514,10.1514,10.1514,10.1514,10.1514,10.1514,10.1514,10.1514,10.1514,10.1514,10.1514,10.1514,10.1514,10.1514,10.1514,10.1514,10.1514,10.1514,10.1514,10.1514,10.1514,10.1514,0.0,0.0,0.0,0.0,0.0,0.0,0.0,0.0,0.0,0.0,0.0,0.0,0.0,0.0,0.0,0.0,7.1289,7.1289,7.1289,0.0,0.0,7.3144,7.4172,7.5113,7.598,7.6607,7.729,7.8122,7.9318,8.0006,8.0223,8.0821,8.1111,0.0,8.1111,8.1219,0.0,0.0,0.0,0.0,0.0,0.0,0.0,0.0,0.0,0.0,0.0,0.0,0.0,8.6978,8.6978,8.6978,8.6978,8.6978,0.0,0.0,0.0,8.6978,8.6978,8.6978,8.6978,8.6978,8.6978,8.7051,8.7234,8.8372,8.9473,8.9657,9.0812,9.1803,9.1803,9.3161,9.4299,9.4299,9.5658,9.6685,9.6685,9.6685,9.6685,9.6685,9.6685,9.6685,9.6685,9.6685,9.7383,9.8998,9.9108,9.9805,10.1404,10.1514,10.1514,10.1514,10.1514,10.1514,10.1514,10.1514,10.1514,10.1514,10.1514,10.1514,10.1514,10.1514,10.1514,10.1514,10.1514,10.1514,10.1514,10.1514,10.1514,10.1514,10.1514,10.1514,10.1514,10.1514,10.1514,10.1514,0.0,0.0,0.0,0.0,0.0,0.0,0.0,0.0,0.0,0.0,0.0,0.0,0.0,0.0,7.1289,7.1289,7.1289,7.1289,7.1289,7.2763,7.4024,7.4808,7.6357,0.0,7.8487,7.8541,7.8957,7.9788,7.9861,8.0295,8.1038,8.1074,8.1111,8.1111,8.1111,8.1527,8.2251,0.0,0.0,0.0,0.0,0.0,0.0,0.0,0.0,0.0,0.0,0.0,0.0,0.0,8.6978,8.6978,8.6978,8.6978,8.6978,0.0,0.0,0.0,8.6978,8.6978,8.6978,8.6978,8.6978,8.7198,8.7949,8.8776,8.962,9.0391,9.1216,9.1803,9.1803,9.3161,9.4299,9.4299,9.5658,9.6685,9.6685,9.6685,9.6685,9.6685,9.6685,9.6685,9.6685,9.6685,9.7383,9.8998,9.9108,9.9805,10.1404,10.1514,10.1514,10.1514,10.1514,10.1514,10.1514,10.1514,10.1514,10.1514,10.1514,10.1514,10.1514,10.1514,10.1514,10.1514,10.1514,10.1514,10.1514,10.1514,10.1514,10.1514,10.1514,10.1514,10.1514,10.1514,10.1514,10.1514,0.0,0.0,0.0,0.0,0.0,0.0,0.0,0.0,0.0,0.0,0.0,0.0,0.0,0.0,7.13,7.1966,7.2945,7.3538,7.3538,7.5134,7.6231,7.6521,7.7611,7.8403,7.8702,7.9209,7.9607,7.9897,8.0423,8.0821,8.1111,8.1111,8.1382,8.1853,8.1853,8.2106,8.2558,8.3683,0.0,0.0,0.0,0.0,0.0,0.0,0.0,0.0,0.0,8.6978,8.6978,8.6978,0.0,0.0,0.0,8.6978,8.6978,8.6978,8.6978,8.6978,8.6978,8.6978,8.7124,8.7655,8.7766,8.7986,8.8776,8.9583,9.0244,9.0555,9.1253,9.1803,9.1803,9.3161,9.4299,9.4299,9.5658,9.6685,9.6685,9.6685,9.6685,9.6685,9.6685,9.6685,9.6685,9.6685,9.7383,9.8998,9.9108,9.9805,10.1404,10.1514,10.1514,10.1514,10.1514,10.1514,10.1514,10.1514,10.1514,10.1514,10.1514,10.1514,10.1514,10.1514,10.1514,10.1514,10.1514,10.1514,10.1514,10.1514,10.1514,10.1514,10.1514,10.1514,10.1514,10.1514,10.1514,10.1514,0.0,0.0,0.0,0.0,0.0,0.0,0.0,0.0,0.0,0.0,0.0,0.0,0.0,0.0,0.0,7.3594,7.4649,7.5288,7.5288,7.6847,7.7777,7.7777,7.8873,7.9499,7.9499,8.0042,8.0278,8.0278,8.0821,8.1111,8.1111,8.1382,8.178,8.2342,8.2958,8.3266,8.3501,8.4609,8.5408,8.5964,8.6566,0.0,8.6978,0.0,0.0,8.7362,8.7088,8.7161,8.7362,8.7088,0.0,0.0,0.0,0.0,0.0,8.7822,8.7822,8.7822,8.7822,8.7822,8.7932,8.8463,8.861,8.883,8.962,9.0207,9.0702,9.0959,9.1436,9.1803,9.1803,9.2941,9.3969,9.4263,9.5437,9.6392,9.6649,9.6685,9.6685,9.6685,9.6685,9.6685,9.6685,9.6685,9.7383,9.8998,9.9108,9.9805,10.1404,10.1514,10.1514,10.1514,10.1514,10.1514,10.1514,10.1514,10.1514,10.1514,10.1514,10.1514,10.1514,10.1514,10.1514,10.1514,10.1514,10.1514,10.1514,10.1514,10.1514,10.1514,10.1514,10.1514,10.1514,10.1514,10.1514,10.1514,0.0,0.0,0.0,0.0,0.0,0.0,0.0,0.0,0.0,0.0,0.0,0.0,0.0,0.0,0.0,7.6096,7.6268,7.6323,7.6323,7.7786,7.8691,7.8691,8.0225,0.0,0.0,8.1111,8.1111,8.1111,8.1111,8.1111,8.1147,8.1925,8.2342,8.245,8.4192,8.5009,8.5064,8.519,8.5825,8.675,8.6945,8.7014,8.6978,8.7014,8.7509,8.8059,8.7325,8.7545,8.8096,8.7325,8.7051,0.0,0.0,0.0,0.0,0.0,0.0,8.94,0.0,0.0,0.0,8.9436,8.9436,8.9657,9.0427,9.0629,9.0849,9.1657,9.1803,9.1803,9.1803,9.2501,9.3345,9.4153,9.4997,9.5804,9.6575,9.6685,9.6685,9.6685,9.6685,9.6685,9.6685,9.6685,9.7346,9.8961,9.9108,9.9805,10.1404,10.1514,10.1514,10.1514,10.1514,10.1514,10.1514,10.1514,10.1514,10.1514,10.1514,10.1514,10.1514,10.1514,10.1514,10.1514,10.1514,10.1514,10.1514,10.1514,10.1514,10.1514,10.1497,10.1497,10.1514,10.1497,10.1497,10.1497,0.0,0.0,0.0,0.0,0.0,0.0,0.0,0.0,0.0,0.0,0.0,0.0,0.0,0.0,0.0,0.0,7.8094,7.8804,7.8804,7.9801,8.0424,8.0424,8.0858,8.1111,8.1111,8.1111,8.1111,8.1111,8.1111,8.1418,8.1979,8.2197,8.2921,8.4044,8.47,8.5373,8.6028,8.619,8.6531,8.6945,8.7601,8.7509,8.7051,8.7655,8.7655,8.7399,8.7729,8.8023,8.8243,8.8592,8.8739,8.8776,0.0,0.0,0.0,0.0,0.0,0.0,8.94,0.0,0.0,0.0,0.0,0.0,9.1289,9.1473,9.1546,9.173,9.1803,9.1803,9.1803,9.1987,9.2611,9.4079,9.4997,9.5804,9.6575,9.6685,9.6685,9.6685,9.6685,9.6685,9.6685,9.6685,9.7126,9.8154,9.8778,9.9548,10.0576,10.122,10.1514,10.1514,10.1514,10.1514,10.1514,10.1514,10.1514,10.1514,10.1514,10.1514,10.1514,10.1514,10.1514,10.1514,10.1514,10.1514,10.1514,10.1514,10.1514,10.1611,10.2107,10.2009,10.1594,10.2107,10.2296,10.2296,0.0,0.0,0.0,0.0,0.0,0.0,0.0,0.0,0.0,0.0,0.0,0.0,0.0,0.0,0.0,0.0,7.9792,8.0343,8.0343,8.084,0.0,0.0,8.1111,0.0,8.1111,8.1111,8.1273,8.1599,8.1599,8.1998,8.2813,8.3139,0.0,0.0,8.5373,8.5919,8.6555,8.708,8.7404,8.7509,8.7655,8.7839,8.8005,8.8169,8.8316,8.8519,8.8647,8.894,8.9234,8.9363,8.962,0.0,0.0,0.0,0.0,0.0,0.0,0.0,0.0,0.0,0.0,9.0996,0.0,0.0,9.1693,9.1803,9.1803,9.1803,9.1803,9.1803,9.1803,9.1803,9.2244,9.3565,9.4483,9.5401,9.6539,9.6685,9.6685,9.6685,9.6685,9.6685,9.6685,9.6685,9.7016,9.7843,9.8668,9.9622,10.0686,10.12,10.1514,10.1514,10.1514,10.1514,10.1514,10.1514,10.1694,10.2009,10.2009,10.2108,10.2389,10.2389,10.2389,10.2389,10.2389,10.2389,10.2389,10.2389,10.2184,10.1993,10.2679,10.2789,10.2408,10.2895,10.3015,10.3015,0.0,0.0,0.0,0.0,0.0,0.0,0.0,0.0,0.0,0.0,0.0,0.0,0.0,0.0,0.0,0.0,8.1111,8.1111,8.1111,0.0,0.0,0.0,0.0,0.0,0.0,8.1237,8.1635,8.245,8.245,8.2849,8.3664,0.0,0.0,0.0,0.0,8.6591,8.6879,8.7806,8.8316,8.839,8.7692,8.8189,8.9326,8.872,8.9307,9.0391,8.9767,8.9987,9.0501,8.9877,9.0134,9.0739,0.0,0.0,0.0,0.0,9.1803,0.0,0.0,0.0,0.0,0.0,9.1803,0.0,9.1803,9.1803,9.1803,9.1803,9.1803,9.1803,9.1803,9.1803,9.2097,9.2978,9.3786,9.4813,9.6355,9.6649,9.6685,9.6685,9.6685,9.6685,9.6685,9.6685,9.7016,9.7713,9.8594,9.9805,10.1404,10.1514,10.1517,10.1597,10.1617,10.1694,10.1719,10.1719,10.2088,10.2717,10.2717,10.2978,10.3598,10.3598,10.3598,10.3598,10.3598,10.3598,10.3598,10.3679,10.3302,10.2789,10.3397,10.3716,10.3614,10.3679,10.3711,10.3711,0.0,0.0,0.0,0.0,0.0,0.0,0.0,0.0,0.0,0.0,0.0,0.0,0.0,0.0,0.0,0.0,0.0,8.1111,0.0,0.0,0.0,0.0,0.0,0.0,0.0,8.2088,8.245,8.3284,8.3284,8.3756,8.47,8.4882,0.0,0.0,8.65,8.7009,8.7666,8.8045,8.894,9.0115,8.9968,8.9693,8.9436,8.995,8.9913,8.9693,9.017,9.0464,9.0665,9.1179,9.1436,9.1583,9.1583,9.1657,9.1803,9.1803,0.0,0.0,0.0,0.0,0.0,9.1803,9.1803,0.0,9.1803,9.1803,9.1803,9.1803,9.1803,9.1803,9.1803,9.1803,9.2097,9.2978,9.3786,9.463,9.5621,9.6282,9.6685,9.6685,9.6685,9.6685,9.6685,9.6685,9.6759,9.6906,9.83,9.9805,10.1404,10.1514,10.1795,10.2408,10.2389,10.2608,10.3184,10.3184,10.3305,10.3402,10.3402,10.3505,10.3598,10.3598,10.3598,10.3598,10.3598,10.3598,10.3609,10.4214,10.4009,10.3505,10.4094,10.4108,10.3716,10.4207,10.4384,10.4384,0.0,0.0,0.0,0.0,0.0,0.0,0.0,0.0,0.0,0.0,0.0,0.0,0.0,0.0,0.0,0.0,0.0,0.0,0.0,0.0,0.0,0.0,0.0,0.0,0.0,0.0,8.3284,8.4117,8.4209,8.47,8.5555,8.5646,8.5974,0.0,8.7064,8.7574,8.8102,8.8997,8.9858,9.0537,9.017,9.0244,9.0592,9.0592,9.0592,9.0665,9.1069,9.1216,9.1253,9.1657,9.1803,9.1803,9.1803,9.1803,9.1803,9.1803,9.1803,9.1803,0.0,9.1803,9.1803,9.1803,9.1803,0.0,0.0,9.1803,9.1803,9.1803,9.1803,9.1803,9.1803,9.1803,9.195,9.2391,9.3161,9.3969,9.4777,9.5951,9.6685,9.6685,9.6685,9.6685,9.6685,9.6685,9.6869,9.7273,9.8411,9.9622,10.0796,10.1294,10.178,10.2592,10.2591,10.291,10.3598,10.3598,10.3812,10.4101,10.4101,10.4304,10.461,10.461,10.461,10.461,10.461,10.461,10.47,10.5005,10.4988,10.4714,10.5005,10.4899,10.4676,10.5018,10.5112,10.5112,0.0,0.0,0.0,0.0,0.0,0.0,0.0,0.0,0.0,0.0,0.0,0.0,0.0,0.0,0.0,0.0,0.0,0.0,0.0,0.0,0.0,0.0,0.0,8.3628,0.0,0.0,8.4227,8.5007,8.5209,8.5664,8.6447,8.663,8.6865,8.7244,8.7903,8.8377,8.8757,9.0041,9.0702,9.0776,9.0097,9.0629,9.173,9.1069,9.1216,9.1803,9.1803,9.1803,9.1803,9.1803,9.1803,9.1803,9.1803,9.1803,9.1803,9.1803,9.1803,9.1803,9.1803,9.1803,9.1803,9.1803,9.1803,9.1803,0.0,0.0,0.0,9.1803,9.1803,9.1803,9.1803,9.1803,9.173,9.1583,9.2427,9.3272,9.3749,9.5364,9.6539,9.6685,9.6685,9.6685,9.6685,9.6685,9.7016,9.7843,9.8668,9.9475,10.0283,10.111,10.1895,10.2808,10.2806,10.3187,10.3978,10.3994,10.4289,10.4816,10.4816,10.5099,10.5711,10.5711,10.5711,10.5711,10.5711,10.5711,10.5711,10.5711,10.5711,10.5711,10.5711,10.5711,10.5711,10.5711,10.5711,10.5711,7.3661,7.395,0.0,0.0,0.0,0.0,0.0,0.0,0.0,7.9522,0.0,0.0,0.0,0.0,0.0,0.0,0.0,0.0,8.2305,0.0,0.0,0.0,0.0,0.0,8.4828,0.0,0.0,8.6211,8.6229,8.6739,8.7704,8.7722,8.8233,8.9107,8.9181,8.9639,9.0335,9.0519,9.1033,9.1657,9.1546,9.1657,9.1803,9.1693,9.173,9.1803,9.1803,9.1803,9.1803,9.1803,9.1803,9.1803,9.1803,9.1803,9.1803,9.1803,9.1803,9.1803,9.1803,9.1803,9.1803,9.1803,9.1803,9.1803,9.1803,0.0,9.1803,9.1803,0.0,9.1803,9.1803,0.0,0.0,9.0849,9.206,9.2868,9.217,9.4153,9.5914,9.6612,9.6685,9.6685,9.6685,9.6685,9.7016,9.7843,9.8668,9.9475,10.0283,10.111,10.209,10.3397,10.3484,10.4101,10.5409,10.5498,10.5485,10.5587,10.5587,10.5586,10.5711,10.5711,10.5711,10.5711,10.5711,10.5711,10.5711,10.5711,10.5711,10.5711,10.5711,10.5711,10.5711,10.5711,10.5711,10.5711,0.0,7.5952,0.0,0.0,7.7381,0.0,0.0,0.0,8.0118,8.0492,8.0876,0.0,0.0,0.0,0.0,0.0,0.0,8.3248,0.0,0.0,0.0,0.0,0.0,0.0,0.0,0.0,0.0,8.7085,8.7231,8.7723,8.8618,8.8726,8.8998,8.9436,8.9877,9.028,9.0629,9.1106,9.1473,9.1803,9.1803,9.1803,9.1803,9.1803,9.1803,9.1803,9.1803,9.1803,9.1803,9.1803,9.1803,9.1803,9.1803,9.1803,9.1803,9.1803,9.1803,9.1803,9.1803,9.1803,9.1803,9.1803,9.1803,9.1803,9.1803,9.1803,9.1803,9.1803,0.0,0.0,0.0,0.0,0.0,0.0,9.1877,9.2391,9.2537,9.3455,9.4593,9.5841,9.6428,9.6685,9.6685,9.6685,9.6832,9.7163,9.876,9.9834,10.0204,10.1387,10.2806,10.4094,10.3806,10.4312,10.5711,10.5711,10.5711,10.5711,10.5711,10.5711,10.5711,10.5711,10.5711,10.5711,10.5711,10.5711,10.5711,10.5711,10.5711,10.5711,10.5711,10.5711,10.5711,10.5711,10.5711,10.5711,0.0,0.0,0.0,0.0,7.8606,7.9109,8.0004,8.0694,8.1183,8.1418,8.1418,8.1744,8.2559,8.2686,0.0,0.0,8.381,8.4301,0.0,0.0,8.5683,0.0,0.0,0.0,0.0,0.0,0.0,8.8089,8.8252,8.8726,8.9514,8.9676,8.984,9.006,9.0665,9.0922,9.0959,9.1546,9.1803,9.1803,9.1803,9.195,9.2134,9.1877,9.1803,9.1803,9.1803,9.1803,9.1803,9.1803,9.1803,9.1803,9.1803,9.1803,9.1803,9.1803,9.1803,9.1803,9.1803,9.1803,9.1803,9.1803,9.1803,9.1803,9.1803,9.1803,9.1803,9.1803,9.1803,0.0,0.0,0.0,9.173,9.151,0.0,9.195,9.2354,9.2831,9.3712,9.5308,9.6208,9.6685,9.6685,9.6685,9.6685,9.6685,9.843,9.9664,10.0119,10.1476,10.3013,10.4605,10.4094,10.4489,10.5711,10.5711,10.5711,10.5711,10.5711,10.5711,10.5711,10.5711,10.5711,10.5711,10.5711,10.5711,10.5711,10.5711,10.5711,10.5711,10.5711,10.5711,10.5711,10.5711,10.5711,10.5711,7.9698,7.8973,0.0,7.8419,7.915,8.0042,8.093,8.1056,8.1382,8.2161,8.2269,8.2559,8.3392,8.3629,0.0,0.0,0.0,8.5171,8.5171,0.0,8.6374,0.0,0.0,8.7868,0.0,0.0,0.0,8.9345,8.9345,8.9767,9.0537,9.0537,9.0996,9.173,9.173,9.1767,9.1767,9.1803,9.1803,9.1803,9.1803,9.2317,9.2978,9.2134,9.1803,9.1803,9.1803,9.1803,9.1803,9.1803,9.1803,9.1803,9.1803,9.1803,9.1803,9.1803,9.1803,9.1803,9.1803,9.1803,9.1803,9.1803,9.1803,9.1803,9.1803,9.1803,9.1803,9.1803,9.1803,9.1803,9.1803,9.1803,0.0,0.0,9.1289,0.0,0.0,9.2097,9.3712,9.5308,9.6208,9.6685,9.6685,9.6685,9.6685,9.6685,9.7495,9.8593,10.0009,10.0919,10.2286,10.4491,10.4581,10.4912,10.5711,10.5711,10.5711,10.5711,10.5711,10.5711,10.5711,10.5711,10.5711,10.5711,10.5711,10.5711,10.5711,10.5711,10.5711,10.5711,10.5711,10.5711,10.5711,10.5711,10.5711,10.5711,0.0,0.0,0.0,8.0302,8.0455,8.0929,8.178,8.236,8.2794,8.3066,8.3212,8.3611,8.441,8.4609,8.4954,0.0,0.0,8.6045,8.617,8.6937,0.0,0.0,0.0,8.8907,0.0,0.0,0.0,0.0,9.017,9.0629,9.14,9.14,9.1546,9.1803,9.1803,9.1803,9.1803,9.1803,9.2134,9.2721,9.3235,9.3639,9.3786,9.2978,9.2978,9.3455,9.3455,9.3455,9.3455,9.3455,9.3455,9.3455,9.3455,9.3455,9.3455,9.3455,9.3455,9.3455,9.3455,9.3455,9.3455,9.3455,9.3455,9.3455,9.3455,9.3455,9.3455,9.3455,9.3015,9.2648,9.2648,0.0,0.0,0.0,0.0,0.0,0.0,9.2391,9.3492,9.4593,9.5437,9.6135,9.6649,9.6685,9.6685,9.6685,9.7857,9.9212,10.0706,10.1584,10.2981,10.5293,10.4896,10.5002,10.5711,10.5711,10.5711,10.5711,10.5711,10.5711,10.5711,10.5711,10.5711,10.5711,10.5711,10.5711,10.5711,10.5711,10.5711,10.5711,10.5711,10.5711,10.5711,10.5711,10.5711,10.5711,8.1889,8.236,8.2487,8.1672,8.1744,8.2143,8.2668,8.323,8.3701,8.3991,8.4192,8.4609,8.5392,8.5645,8.5953,8.6446,8.6591,8.6789,8.7206,8.7719,0.0,8.8592,8.94,0.0,0.0,0.0,0.0,0.0,0.0,9.1289,9.1803,9.1803,9.195,9.2244,9.2244,9.2427,9.2684,9.2684,9.3015,9.3565,9.4079,9.4483,9.4666,9.4153,9.4079,9.4299,9.4299,9.4299,9.4299,9.4299,9.4299,9.4299,9.4299,9.4299,9.4299,9.4299,9.4299,9.4299,9.4299,9.4299,9.4299,9.4299,9.4299,9.4299,9.4299,9.4299,9.4299,9.4299,9.3896,9.3529,9.3529,0.0,0.0,0.0,0.0,0.0,0.0,9.2281,9.3051,9.4153,9.5034,9.5822,9.6612,9.6685,9.6685,9.6685,9.7818,9.9256,10.1098,10.1896,10.3397,10.561,10.5191,10.5216,10.5711,10.5711,10.5711,10.5711,10.5711,10.5711,10.5711,10.5711,10.5711,10.5711,10.5711,10.5711,10.5711,10.5711,10.5711,10.5711,10.5711,10.5711,10.5711,10.5711,10.5711,10.5711,8.3356,8.3537,8.3374,8.2613,8.3085,8.3592,8.3592,8.3792,8.4192,8.4991,8.5191,8.5572,8.632,8.6609,8.6769,8.6769,8.7001,8.7435,8.8206,8.8316,0.0,0.0,9.0207,9.0665,9.0665,0.0,0.0,0.0,0.0,9.1803,9.184,9.184,9.2317,9.3161,9.3198,9.3621,9.4374,9.4374,9.4337,9.4373,9.441,9.4887,9.5584,9.5566,9.5089,9.441,9.441,9.441,9.441,9.441,9.441,9.441,9.441,9.441,9.441,9.441,9.441,9.441,9.441,9.441,9.441,9.441,9.441,9.441,9.441,9.441,9.441,9.441,9.4373,9.4336,9.4336,9.4336,0.0,0.0,0.0,0.0,9.2024,9.1913,9.2537,9.4153,9.5034,9.5822,9.6612,9.6685,9.6705,9.6743,9.7337,9.8751,10.1108,10.19,10.3305,10.5585,10.5711,10.5711,10.5711,10.5711,10.5711,10.5711,10.5711,10.5711,10.5711,10.5711,10.5711,10.5711,10.5711,10.5711,10.5711,10.5711,10.5711,10.5711,10.5711,10.5711,10.5711,10.5711,10.5711,10.5711,8.3465,8.4119,8.4755,8.5264,8.4919,8.4664,8.4736,8.5337,8.581,8.601,8.6191,8.6388,8.6608,8.7334,8.7806,8.7806,8.8428,8.8886,0.0,0.0,0.0,9.028,9.1069,9.1473,9.1473,9.1693,0.0,9.1803,0.0,9.2134,9.2758,9.2758,9.3198,9.4006,9.4513,9.4832,9.5035,9.5035,9.5107,9.5254,9.5841,9.6208,9.6392,9.6392,9.6245,9.6098,9.6098,9.6098,9.6098,9.6098,9.6098,9.6098,9.6098,9.6098,9.6098,9.6098,9.6098,9.6098,9.6098,9.6098,9.6098,9.6098,9.6098,9.6098,9.6098,9.6098,9.6098,9.6098,9.5621,9.518,9.518,9.4703,9.4226,0.0,0.0,0.0,0.0,9.3639,9.4042,9.507,9.5345,9.5822,9.6612,9.6685,9.6896,9.7427,9.7602,9.895,10.1816,10.209,10.3305,10.5585,10.5711,10.5711,10.5711,10.5711,10.5711,10.5711,10.5711,10.5711,10.5711,10.5711,10.5711,10.5711,10.5711,10.5711,10.5711,10.5711,10.5711,10.5711,10.5711,10.5711,10.5711,10.5711,10.5711,10.5711,8.446,8.5062,8.5828,8.6866,8.6319,8.5737,8.5736,8.6173,8.6665,8.7012,8.7227,8.7498,8.7828,8.8393,8.8702,8.8702,8.9143,8.9546,8.9913,0.0,0.0,9.1106,9.1546,9.1803,9.1803,9.217,0.0,9.2354,0.0,9.3125,9.3602,9.3602,9.4191,9.5291,9.564,9.6014,9.6348,9.6348,9.654,9.6901,9.7062,9.7138,0.0,9.7187,9.7199,9.733,9.7948,9.756,9.6685,9.6685,9.6685,9.6685,9.6685,9.6685,9.6685,9.6685,9.6685,9.6685,9.6685,9.6685,9.6685,9.6685,9.6685,9.6685,9.6685,9.6685,9.6685,9.6685,9.6355,9.6025,9.6025,9.5658,9.5217,9.4887,0.0,0.0,0.0,9.4299,9.4593,9.5382,9.5492,9.5937,9.7027,9.6858,9.6989,9.7654,9.7976,9.9352,10.208,10.2519,10.3592,10.5597,10.5711,10.5711,10.5711,10.5711,10.5711,10.5711,10.5711,10.5711,10.5711,10.5711,10.5711,10.5711,10.5711,10.5711,10.5711,10.5711,10.5711,10.5711,10.5711,10.5711,10.5711,10.5711,10.5711,10.5711,8.5948,8.6335,8.6848,8.7923,8.7519,8.699,8.6811,8.6864,8.719,8.7977,8.8247,8.861,8.9326,8.9473,8.9546,8.9546,8.9657,8.9987,9.0702,9.0776,9.1069,9.1767,9.1913,9.195,9.195,9.2831,0.0,0.0,0.0,9.4522,9.4724,9.4742,9.5471,9.6798,9.6882,9.7305,9.7959,9.7959,9.831,9.8805,9.8125,9.7909,9.8025,9.8152,9.8181,9.8369,9.9735,9.8853,9.7035,9.7113,9.7112,9.7016,9.7016,9.7016,9.7016,9.7016,9.7016,9.7016,9.7016,9.7016,9.7016,9.7016,9.6942,9.6869,9.6869,9.6795,9.6685,9.6685,9.6685,9.6685,9.6685,9.6685,9.6465,9.5749,9.507,9.4631,9.4742,9.4761,9.5055,9.5847,9.5828,0.0,9.7718,9.7156,9.699,9.7755,9.8349,9.972,10.2094,10.2817,10.4004,10.5597,10.5711,10.5711,10.5711,10.5711,10.5711,10.5711,10.5711,10.5711,10.5711,10.5711,10.5711,10.5711,10.5711,10.5711,10.5711,10.5711,10.5711,10.5711,10.5711,10.5711,10.5711,10.5711,10.5711,10.5711,8.7066,8.7998,8.8691,8.9054,8.9016,8.8943,8.887,8.8356,8.8227,8.9016,8.9162,8.9253,8.9363,8.9987,9.0391,9.0391,9.0996,9.1436,9.1583,9.1583,9.1657,9.1803,9.2501,9.2868,9.2868,9.3675,9.4374,0.0,0.0,9.576,9.6927,9.6942,9.7439,9.8352,9.8897,9.924,9.9354,9.9354,9.9485,9.9646,9.8965,9.9081,9.9693,9.9699,9.97,9.9827,10.0694,10.0006,9.8765,9.9316,9.9131,9.8704,9.8704,9.8704,9.8704,9.8704,9.8704,9.8704,9.8704,9.8704,9.8704,9.8704,9.819,9.7676,9.7676,9.7163,9.6685,9.6685,9.6685,9.6685,9.6685,9.6685,9.6649,9.6502,9.6355,9.6472,9.7035,9.7123,9.7349,9.8065,9.7671,9.7623,9.8444,9.7427,9.7211,9.8413,9.8617,9.972,10.2094,10.2817,10.4004,10.5597,10.5711,10.5711,10.5711,10.5711,10.5711,10.5711,10.5711,10.5711,10.5711,10.5711,10.5711,10.5711,10.5711,10.5711,10.5711,10.5711,10.5711,10.5711,10.5711,10.5711,10.5711,10.5711,10.5711,10.5711,8.8253,8.8783,8.9294,8.9914,8.9693,8.9693,9.0519,9.0335,9.0078,9.0024,9.0391,9.0812,9.1271,9.206,9.2501,9.2501,9.2868,9.3088,9.3088,9.3088,9.3088,9.3088,9.3492,9.3712,9.3712,9.452,9.5239,9.5903,0.0,0.0,0.0,9.8131,9.8501,9.9239,9.9573,10.0084,10.0786,10.05,10.0809,10.1616,10.0903,10.0792,10.1189,10.1305,10.1284,10.1405,10.2598,10.23,10.1289,10.0379,9.9906,9.9574,9.9208,9.9108,9.9108,9.9108,9.9108,9.9108,9.9108,9.9108,9.9108,9.9108,9.8814,9.8521,9.8521,9.8227,9.7933,9.7933,9.7891,9.7709,9.7303,9.721,9.7101,9.6762,9.6685,9.6933,9.7619,9.7686,9.7959,9.8602,9.8434,9.846,9.9167,9.8338,9.8159,9.9152,9.8915,9.9869,10.26,10.3004,10.4004,10.5597,10.5711,10.5711,10.5711,10.5711,10.5711,10.5711,10.5711,10.5711,10.5711,10.5711,10.5711,10.5711,10.5711,10.5711,10.5711,10.5711,10.5711,10.5711,10.5711,10.5711,10.5711,10.5711,10.5711,10.5711,8.9368,8.9532,8.9898,9.0703,9.0464,9.0611,9.1877,9.2207,9.2024,9.1253,9.184,9.2574,9.3272,9.3932,9.4299,9.4299,9.4299,9.4299,9.4299,9.4299,9.4299,9.4299,9.4446,9.4556,9.4556,9.5496,9.6305,0.0,0.0,9.8385,9.8859,9.901,9.9472,10.0224,10.0414,10.1103,10.2096,10.1623,10.2182,10.3395,10.2695,10.2615,10.2711,10.278,10.2897,10.3012,10.4392,10.4495,10.3706,10.1679,10.0902,10.0477,9.9996,9.9723,9.9622,9.9622,9.9622,9.9622,9.9622,9.9622,9.9622,9.9622,9.9475,9.9404,9.9543,9.9454,9.9345,9.9499,9.946,9.9212,9.8558,9.8298,9.7981,9.7451,9.723,9.7355,9.8043,9.8142,9.8365,9.9012,9.8967,9.9181,9.9817,9.9181,9.9125,10.0082,9.9547,10.0313,10.2892,10.3307,10.4119,10.5686,10.5711,10.5711,10.5711,10.5711,10.5711,10.5711,10.5711,10.5711,10.5711,10.5711,10.5711,10.5711,10.5711,10.5711,10.5711,10.5711,10.5711,10.5711,10.5711,10.5711,10.5711,10.5711,10.5711,10.5711,9.0301,9.0979,9.1565,9.1657,9.2281,9.2794,9.2978,9.3602,9.3786,9.2978,9.3565,9.4079,9.4189,9.4226,9.4299,9.4299,9.4299,9.4299,9.4299,9.4299,9.4299,9.4299,9.4997,9.5382,9.5382,9.6765,9.783,0.0,0.0,9.945,9.9355,10.0118,10.0905,10.1705,10.2481,10.2899,10.3087,10.3001,10.351,10.4185,10.3593,10.37,10.442,10.4387,10.441,10.4482,10.5294,10.5612,10.5409,10.4501,10.3389,10.2387,10.2314,10.1791,10.1294,10.1294,10.1294,10.1294,10.1294,10.1294,10.1294,10.1294,10.0686,10.0296,10.1018,10.0514,10.0207,10.0884,10.0987,10.1013,10.0901,10.0193,9.9674,9.9611,9.8979,9.8763,9.941,9.9494,9.975,10.0287,9.9922,9.9843,10.0486,9.9424,9.9527,10.148,10.1113,10.1185,10.2205,10.3605,10.4692,10.5686,10.5711,10.5711,10.5711,10.5711,10.5711,10.5711,10.5711,10.5711,10.5711,10.5711,10.5711,10.5711,10.5711,10.5711,10.5711,10.5711,10.5711,10.5711,10.5711,10.5711,10.5711,10.5711,10.5711,10.5711,9.1913,9.2299,9.2721,9.3198,9.3602,9.3822,9.3822,9.452,9.507,9.5254,9.5107,9.4997,9.5034,9.5878,9.6465,9.6465,9.6906,9.7199,9.7199,9.7199,9.7199,9.7199,9.7876,9.8244,9.8244,9.926,10.0112,10.0822,0.0,10.1393,10.1685,10.1979,10.2285,10.2705,10.3011,10.352,10.389,10.389,10.4386,10.5203,10.4913,10.5014,10.528,10.528,10.528,10.5306,10.5599,10.5711,10.5687,10.5396,10.4581,10.3689,10.3318,10.2698,10.2183,10.2183,10.178,10.1514,10.1514,10.1798,10.2183,10.2183,10.1887,10.1908,10.249,10.2093,10.1801,10.2509,10.2591,10.2408,10.1894,10.1502,10.1105,10.0688,10.04,10.0406,10.1092,10.1212,10.139,10.2111,10.1887,10.1914,10.2108,10.1687,10.18,10.2605,10.1609,10.1703,10.3414,10.4085,10.4807,10.5686,10.5711,10.5711,10.5711,10.5711,10.5711,10.5711,10.5711,10.5711,10.5711,10.5711,10.5711,10.5711,10.5711,10.5711,10.5711,10.5711,10.5711,10.5711,10.5711,10.5711,10.5711,10.5711,10.5711,10.5711,9.3345,9.3455,9.3639,9.4189,9.4703,9.4997,9.4997,9.5878,9.674,9.7346,9.6906,9.6539,9.6556,9.7566,9.8264,9.8264,9.8778,9.9108,9.9108,9.9108,9.9169,9.9403,9.9851,10.0187,10.0412,10.1104,10.1708,10.2198,10.2414,10.2614,10.2782,10.3099,10.3278,10.3596,10.3813,10.431,10.4807,10.4807,10.51,10.5711,10.5711,10.5711,10.5711,10.5711,10.5711,10.5711,10.5711,10.5711,10.5711,10.5711,10.5396,10.4802,10.4101,10.3381,10.2913,10.2913,10.2499,10.209,10.209,10.25,10.2913,10.2913,10.2913,10.3122,10.3705,10.3479,10.3406,10.4093,10.4112,10.3886,10.3292,10.2988,10.2701,10.2179,10.188,10.2001,10.2402,10.2494,10.2714,10.309,10.3214,10.3214,10.3214,10.3214,10.329,10.3508,10.2487,10.2702,10.4286,10.4616,10.5112,10.5711,10.5711,10.5711,10.5711,10.5711,10.5711,10.5711,10.5711,10.5711,10.5711,10.5711,10.5711,10.5711,10.5711,10.5711,10.5711,10.5711,10.5711,10.5711,10.5711,10.5711,10.5711,10.5711,10.5711,10.5711,9.4263,9.4299,9.4299,9.4299,9.5621,9.6685,9.6685,9.8043,9.9052,9.9052,9.9052,9.9071,9.9071,9.9052,9.9108,9.9108,9.9088,9.9108,9.9108,9.9108,9.9403,10.0121,10.0119,10.0392,10.1189,10.181,10.2198,10.2198,10.2906,10.282,10.1891,10.2782,10.3584,10.4386,10.5303,10.5686,10.5711,10.5711,10.5711,10.5711,10.5711,10.5711,10.5711,10.5711,10.5711,10.5711,10.5711,10.5711,10.5711,10.5711,10.5711,10.5612,10.4778,10.4094,10.3582,10.3582,10.3582,10.362,10.362,10.3582,10.3582,10.3582,10.3582,10.3812,10.4414,10.4596,10.4788,10.5511,10.5699,10.5711,10.5711,10.4986,10.4413,10.4413,10.3687,10.319,10.3202,10.3202,10.3202,10.3214,10.3214,10.3214,10.3214,10.3214,10.3508,10.431,10.4425,10.4425,10.4386,10.5189,10.5711,10.5711,10.5711,10.5711,10.5711,10.5711,10.5711,10.5711,10.5711,10.5711,10.5711,10.5711,10.5711,10.5711,10.5711,10.5711,10.5711,10.5711,10.5711,10.5711,10.5711,10.5711,10.5711,10.5711,10.5711,10.5711,9.5034,9.5547,9.6098,9.6668,9.764,9.8337,9.8337,9.8758,9.9292,9.9842,9.9916,10.0099,10.0686,10.0209,9.9916,9.9916,10.0883,10.15,10.15,10.1881,10.2283,10.2482,10.2916,10.3293,10.3488,10.4193,10.4596,10.4596,10.4797,10.4807,10.4489,10.4807,10.4998,10.5303,10.5609,10.5711,10.5711,10.5711,10.5711,10.5711,10.5711,10.5711,10.5711,10.5711,10.5711,10.5711,10.5711,10.5711,10.5711,10.5711,10.5711,10.5687,10.5396,10.4882,10.4304,10.4304,10.4,10.3598,10.3598,10.3894,10.4304,10.4304,10.4304,10.4518,10.5176,10.5307,10.5396,10.5687,10.5711,10.5711,10.5711,10.5495,10.5303,10.5303,10.5112,10.4921,10.4921,10.4921,10.4921,10.4921,10.4921,10.4921,10.4921,10.4921,10.4998,10.5303,10.5303,10.5303,10.5303,10.5482,10.5711,10.5711,10.5711,10.5711,10.5711,10.5711,10.5711,10.5711,10.5711,10.5711,10.5711,10.5711,10.5711,10.5711,10.5711,10.5711,10.5711,10.5711,10.5711,10.5711,10.5711,10.5711,10.5711,10.5711,10.5711,10.5711,9.6685,9.7273,9.775,9.8264,9.9035,9.9548,9.9548,9.9805,10.0209,10.0686,10.1,10.1398,10.1914,10.1702,10.1388,10.1196,10.2313,10.3018,10.3018,10.3389,10.3711,10.4,10.4408,10.4709,10.5005,10.5511,10.5711,10.5711,10.5711,10.5711,10.5711,10.5711,10.5711,10.5711,10.5711,10.5711,10.5711,10.5711,10.5711,10.5711,10.5711,10.5711,10.5711,10.5711,10.5711,10.5711,10.5711,10.5711,10.5711,10.5711,10.5711,10.5711,10.5711,10.5409,10.5018,10.5018,10.4718,10.4416,10.4416,10.469,10.5018,10.5018,10.5018,10.5112,10.5599,10.5711,10.5711,10.5711,10.5711,10.5711,10.5711,10.5711,10.5711,10.5711,10.5711,10.5711,10.5711,10.5711,10.5711,10.5711,10.5711,10.5711,10.5711,10.5711,10.5711,10.5711,10.5711,10.5711,10.5711,10.5711,10.5711,10.5711,10.5711,10.5711,10.5711,10.5711,10.5711,10.5711,10.5711,10.5711,10.5711,10.5711,10.5711,10.5711,10.5711,10.5711,10.5711,10.5711,10.5711,10.5711,10.5711,10.5711,10.5711,10.5711,10.5711,10.5711,9.8961,9.9145,9.9162,9.9162,9.9842,10.0393,10.0393,10.098,10.1497,10.1594,10.2202,10.2609,10.27,10.3289,10.3418,10.2806,10.3302,10.3716,10.3716,10.3711,10.4024,10.46,10.4704,10.5005,10.5711,10.5711,10.5711,10.5711,10.5711,10.5711,10.5711,10.5711,10.5711,10.5711,10.5711,10.5711,10.5711,10.5711,10.5711,10.5711,10.5711,10.5711,10.5711,10.5711,10.5711,10.5711,10.5711,10.5711,10.5711,10.5711,10.5711,10.5711,10.5711,10.5711,10.5711,10.5711,10.5711,10.5711,10.5711,10.5711,10.5711,10.5711,10.5711,10.5711,10.5711,10.5711,10.5711,10.5711,10.5711,10.5711,10.5711,10.5711,10.5711,10.5711,10.5711,10.5711,10.5711,10.5711,10.5711,10.5711,10.5711,10.5711,10.5711,10.5711,10.5711,10.5711,10.5711,10.5711,10.5711,10.5711,10.5711,10.5711,10.5711,10.5711,10.5711,10.5711,10.5711,10.5711,10.5711,10.5711,10.5711,10.5711,10.5711,10.5711,10.5711,10.5711,10.5711,10.5711,10.5711,10.5711,10.5711,10.5711,10.5711,10.5711,10.5711,10.5711,9.9071,9.9585,9.9989,9.9989,10.0686,10.12,10.12,10.1404,10.1697,10.2296,10.25,10.2806,10.3302,10.4,10.4296,10.4094,10.4304,10.4393,10.4393,10.4896,10.5318,10.5409,10.5409,10.5511,10.5711,10.5711,10.5711,10.5711,10.5711,10.5711,10.5711,10.5711,10.5711,10.5711,10.5711,10.5711,10.5711,10.5711,10.5711,10.5711,10.5711,10.5711,10.5711,10.5711,10.5711,10.5711,10.5711,10.5711,10.5711,10.5711,10.5711,10.5711,10.5711,10.5711,10.5711,10.5711,10.5711,10.5711,10.5711,10.5711,10.5711,10.5711,10.5711,10.5711,10.5711,10.5711,10.5711,10.5711,10.5711,10.5711,10.5711,10.5711,10.5711,10.5711,10.5711,10.5711,10.5711,10.5711,10.5711,10.5711,10.5711,10.5711,10.5711,10.5711,10.5711,10.5711,10.5711,10.5711,10.5711,10.5711,10.5711,10.5711,10.5711,10.5711,10.5711,10.5711,10.5711,10.5711,10.5711,10.5711,10.5711,10.5711,10.5711,10.5711,10.5711,10.5711,10.5711,10.5711,10.5711,10.5711,10.5711,10.5711,10.5711,10.5711,10.5711,10.5711,10.0099,10.0503,10.0796,10.0796,10.122,10.1514,10.1514,10.1795,10.209,10.2481,10.3098,10.37,10.4024,10.469,10.5085,10.5085,10.5085,10.5085,10.5085,10.5485,10.5711,10.5711,10.5711,10.5711,10.5711,10.5711,10.5711,10.5711,10.5711,10.5711,10.5711,10.5711,10.5711,10.5711,10.5711,10.5711,10.5711,10.5711,10.5711,10.5711,10.5711,10.5711,10.5711,10.5711,10.5711,10.5711,10.5711,10.5711,10.5711,10.5711,10.5711,10.5711,10.5711,10.5711,10.5711,10.5711,10.5711,10.5711,10.5711,10.5711,10.5711,10.5711,10.5711,10.5711,10.5711,10.5711,10.5711,10.5711,10.5711,10.5711,10.5711,10.5711,10.5711,10.5711,10.5711,10.5711,10.5711,10.5711,10.5711,10.5711,10.5711,10.5711,10.5711,10.5711,10.5711,10.5711,10.5711,10.5711,10.5711,10.5711,10.5711,10.5711,10.5711,10.5711,10.5711,10.5711,10.5711,10.5711,10.5711,10.5711,10.5711,10.5711,10.5711,10.5711,10.5711,10.5711,10.5711,10.5711,10.5711,10.5711,10.5711,10.5711,10.5711,10.5711,10.5711,10.5711,10.1404,10.1514,10.1514,10.1514,10.1514,10.1517,10.16,10.2184,10.27,10.2895,10.3901,10.46,10.4812,10.5294,10.5711,10.5711,10.5711,10.5711,10.5711,10.5711,10.5711,10.5711,10.5711,10.5711,10.5711,10.5711,10.5711,10.5711,10.5711,10.5711,10.5711,10.5711,10.5711,10.5711,10.5711,10.5711,10.5711,10.5711,10.5711,10.5711,10.5711,10.5711,10.5711,10.5711,10.5711,10.5711,10.5711,10.5711,10.5711,10.5711,10.5711,10.5711,10.5711,10.5711,10.5711,10.5711,10.5711,10.5711,10.5711,10.5711,10.5711,10.5711,10.5711,10.5711,10.5711,10.5711,10.5711,10.5711,10.5711,10.5711,10.5711,10.5711,10.5711,10.5711,10.5711,10.5711,10.5711,10.5711,10.5711,10.5711,10.5711,10.5711,10.5711,10.5711,10.5711,10.5711,10.5711,10.5711,10.5711,10.5711,10.5711,10.5711,10.5711,10.5711,10.5711,10.5711,10.5711,10.5711,10.5711,10.5711,10.5711,10.5711,10.5711,10.5711,10.5711,10.5711,10.5711,10.5711,10.5711,10.5711,10.5711,10.5711,10.5711,10.5711,10.5711,10.5711,10.1514,10.1514,10.1514,10.1514,10.1514,10.1716,10.2297,10.25,10.2998,10.4094,10.448,10.4792,10.5511,10.5586,10.5711,10.5711,10.5711,10.5711,10.5711,10.5711,10.5711,10.5711,10.5711,10.5711,10.5711,10.5711,10.5711,10.5711,10.5711,10.5711,10.5711,10.5711,10.5711,10.5711,10.5711,10.5711,10.5711,10.5711,10.5711,10.5711,10.5711,10.5711,10.5711,10.5711,10.5711,10.5711,10.5711,10.5711,10.5711,10.5711,10.5711,10.5711,10.5711,10.5711,10.5711,10.5711,10.5711,10.5711,10.5711,10.5711,10.5711,10.5711,10.5711,10.5711,10.5711,10.5711,10.5711,10.5711,10.5711,10.5711,10.5711,10.5711,10.5711,10.5711,10.5711,10.5711,10.5711,10.5711,10.5711,10.5711,10.5711,10.5711,10.5711,10.5711,10.5711,10.5711,10.5711,10.5711,10.5711,10.5711,10.5711,10.5711,10.5711,10.5711,10.5711,10.5711,10.5711,10.5711,10.5711,10.5711,10.5711,10.5711,10.5711,10.5711,10.5711,10.5711,10.5711,10.5711,10.5711,10.5711,10.5711,10.5711,10.5711,10.5711,10.5711,10.5711,10.1514,10.1514,10.1514,10.1514,10.1514,10.1719,10.25,10.2893,10.3484,10.4495,10.4888,10.5281,10.5687,10.5711,10.5915,10.6297,10.6297,10.6488,10.6985,10.622,10.5711,10.5711,10.5711,10.5915,10.6297,10.5903,10.5903,10.6297,10.5903,10.5711,10.5711,10.5711,10.5711,10.5711,10.5711,10.5711,10.5711,10.5711,10.5711,10.5711,10.5711,10.5711,10.5711,10.5711,10.5711,10.5711,10.5711,10.5711,10.5711,10.5711,10.5711,10.5711,10.5711,10.5711,10.5711,10.5711,10.5711,10.5711,10.5711,10.5711,10.5711,10.5711,10.5711,10.5711,10.5711,10.5711,10.5711,10.5711,10.5711,10.5711,10.5711,10.5711,10.5711,10.5711,10.5711,10.5711,10.5711,10.5711,10.5711,10.5711,10.5711,10.5711,10.5711,10.5711,10.5711,10.5711,10.5711,10.5711,10.5711,10.5711,10.5711,10.5711,10.5711,10.5711,10.5711,10.5711,10.5711,10.5711,10.5711,10.5711,10.5711,10.5711,10.5711,10.5711,10.5711,10.5711,10.5711,10.5711,10.5711,10.5711,10.5711,10.5711,10.5711,10.5711,10.5711,10.5711,10.1514,10.1514,10.1514,10.1514,10.16,10.2011,10.2698,10.3402,10.4108,10.4812,10.5307,10.58,10.5991,10.5991,10.6297,10.7099,10.7214,10.7481,10.8207,10.6985,10.6297,10.6297,10.6297,10.6603,10.7214,10.6603,10.6603,10.7214,10.6603,10.6297,10.6297,10.6297,10.6297,10.6297,10.6297,10.622,10.5991,10.5991,10.5915,10.5711,10.5711,10.5711,10.5711,10.5711,10.5711,10.5711,10.5711,10.5711,10.5711,10.5711,10.5711,10.5711,10.5711,10.5711,10.5711,10.5711,10.5711,10.5711,10.5711,10.5711,10.5711,10.5711,10.5711,10.5711,10.5711,10.5711,10.5711,10.5711,10.5711,10.5711,10.5711,10.5711,10.5711,10.5711,10.5711,10.5711,10.5711,10.5711,10.5711,10.5711,10.5711,10.5711,10.5711,10.5711,10.5711,10.5711,10.5711,10.5711,10.5711,10.5711,10.5711,10.5711,10.5711,10.5711,10.5711,10.5711,10.5711,10.5711,10.5711,10.5711,10.5711,10.5711,10.5711,10.5711,10.5711,10.5711,10.5711,10.5711,10.5711,10.5711,10.5711,10.5711,10.5711,10.5711,10.5711,10.5711,10.1514,10.1514,10.1514,10.1514,10.2088,10.2716,10.3418,10.4101,10.4788,10.5511,10.5699,10.5991,10.6679,10.6794,10.7176,10.8016,10.8093,10.8093,10.8207,10.8093,10.8016,10.8016,10.8016,10.8016,10.8093,10.8016,10.8016,10.8093,10.8016,10.8016,10.8016,10.8016,10.8016,10.8016,10.8016,10.7596,10.6794,10.6794,10.6412,10.5711,10.5711,10.5711,10.5711,10.5711,10.5711,10.5711,10.5711,10.5711,10.5711,10.5711,10.5711,10.5711,10.5711,10.5711,10.5711,10.5711,10.5711,10.5711,10.5711,10.5711,10.5711,10.5711,10.5711,10.5711,10.5711,10.5711,10.5711,10.5711,10.5711,10.5711,10.5711,10.5711,10.5711,10.5711,10.5711,10.5711,10.5711,10.5711,10.5711,10.5711,10.5711,10.5711,10.5711,10.5711,10.5711,10.5711,10.5711,10.5711,10.5711,10.5711,10.5711,10.5711,10.5711,10.5711,10.5711,10.5711,10.5711,10.5711,10.5711,10.5711,10.5711,10.5711,10.5711,10.5711,10.5711,10.5711,10.5711,10.5711,10.5711,10.5711,10.5711,10.5711,10.5711,10.5711,10.5711,10.5711,10.1514,10.1514,10.1514,10.1514,10.2089,10.2991,10.4213,10.5007,10.5897,10.7101,10.729,10.7405,10.7711,10.7711,10.8016,10.8895,10.8882,10.9201,10.9697,10.9812,10.9315,10.8207,10.8207,10.8398,10.8882,10.8513,10.8398,10.8882,10.8398,10.8207,10.8207,10.8207,10.8207,10.8207,10.8207,10.8016,10.7711,10.7711,10.752,10.729,10.729,10.729,10.729,10.729,10.6908,10.6412,10.6412,10.6106,10.5711,10.5711,10.5711,10.5711,10.5711,10.5711,10.5711,10.5711,10.5711,10.5711,10.5711,10.5711,10.5711,10.5711,10.5711,10.5711,10.5711,10.5711,10.5711,10.5711,10.5711,10.5711,10.5711,10.5711,10.5711,10.5711,10.5711,10.5711,10.5711,10.5711,10.5711,10.5711,10.5711,10.5711,10.5711,10.5711,10.5711,10.5711,10.5711,10.5711,10.5711,10.5711,10.5711,10.5711,10.5711,10.5711,10.5711,10.5711,10.5711,10.5711,10.5711,10.5711,10.5711,10.5711,10.5711,10.5711,10.5711,10.5711,10.5711,10.5711,10.5711,10.5711,10.5711,10.5711,10.5711,10.5711,10.5711,10.5711,10.1788,10.1898,10.1998,10.2498,10.3224,10.4087,10.5381,10.6176,10.7015,10.8081,10.8207,10.8284,10.8513,10.8589,10.8895,10.9685,10.9812,11.0118,11.0704,11.0691,11.0194,10.901,10.901,10.9201,10.9812,10.9315,10.9315,10.9812,10.9315,10.901,10.901,10.901,10.901,10.901,10.901,10.8819,10.8589,10.8589,10.8398,10.8207,10.8207,10.8207,10.8207,10.8207,10.7787,10.729,10.729,10.6794,10.6106,10.6106,10.5915,10.5711,10.5711,10.5711,10.5711,10.5711,10.5711,10.5711,10.5711,10.5711,10.5711,10.5711,10.5711,10.5711,10.5711,10.5711,10.5711,10.5711,10.5711,10.5711,10.5711,10.5711,10.5711,10.5711,10.5711,10.5711,10.5711,10.5711,10.5711,10.5711,10.5711,10.5711,10.5711,10.5711,10.5711,10.5711,10.5711,10.5711,10.5711,10.5711,10.5711,10.5711,10.5711,10.5711,10.5711,10.5711,10.5711,10.5711,10.5711,10.5711,10.5711,10.5711,10.5711,10.5711,10.5711,10.5711,10.5711,10.5711,10.5711,10.5711,10.5711,10.5711,10.5711,10.5711,10.5711,10.5711,10.2595,10.2705,10.3209,10.469,10.5617,10.6284,10.7,10.7705,10.8207,10.8207,10.8207,10.8513,10.9303,10.9379,10.9812,11.0614,11.0691,11.0691,11.0691,11.0691,11.0691,11.0691,11.0691,11.0691,11.0691,11.0691,11.0691,11.0691,11.0691,11.0691,11.0691,11.0691,11.0691,11.0691,11.0691,11.0194,10.9379,10.9379,10.8882,10.8207,10.8207,10.8207,10.8207,10.8207,10.8207,10.8207,10.8207,10.7596,10.6908,10.6908,10.6412,10.5711,10.5711,10.5711,10.5711,10.5711,10.5711,10.5711,10.5711,10.5711,10.5711,10.5711,10.5711,10.5711,10.5711,10.5711,10.5711,10.5711,10.5711,10.5711,10.5711,10.5711,10.5711,10.5711,10.5711,10.5711,10.5711,10.5711,10.5711,10.5711,10.5711,10.5711,10.5711,10.5711,10.5711,10.5711,10.5711,10.5711,10.5711,10.5711,10.5711,10.5711,10.5711,10.5711,10.5711,10.5711,10.5711,10.5711,10.5711,10.5711,10.5711,10.5711,10.5711,10.5711,10.5711,10.5711,10.5711,10.5711,10.5711,10.5711,10.5711,10.5711,10.5711,10.5711,10.5711,10.5711,10.3513,10.3513,10.3908,10.4801,10.5617,10.651,10.7796,10.8619,10.9315,10.9889,11.0003,11.0003,11.0309,11.0309,11.0385,11.0691,11.0691,11.0691,11.0691,11.0691,11.0691,11.0691,11.0691,11.0691,11.0691,11.0691,11.0691,11.0691,11.0691,11.0691,11.0691,11.0691,11.0691,11.0691,11.0691,11.0576,11.0309,11.0309,11.0194,11.0003,11.0003,11.0003,11.0003,11.0003,10.9583,10.8997,10.8997,10.8513,10.7787,10.7787,10.7214,10.6412,10.5915,10.5711,10.5711,10.5711,10.5711,10.5711,10.5711,10.5711,10.5711,10.5711,10.5711,10.5711,10.5711,10.5711,10.5711,10.5711,10.5711,10.5711,10.5711,10.5711,10.5711,10.5711,10.5711,10.5711,10.5711,10.5711,10.5711,10.5711,10.5711,10.5711,10.5711,10.5711,10.5711,10.5711,10.5711,10.5711,10.5711,10.5711,10.5711,10.5711,10.5711,10.5711,10.5711,10.5711,10.5711,10.5711,10.5711,10.5991,10.6488,10.6488,10.6908,10.7405,10.6794,10.6488,10.6488,10.5903,10.5711,10.5711,10.5711,10.5711,10.5711,10.5711,10.5711,10.5711,10.432,10.4607,10.5104,10.6193,10.6982,10.7901,10.9106,10.9719,11.0118,11.0614,11.0691,11.0691,11.0691,11.0691,11.0691,11.0691,11.0691,11.0691,11.0691,11.0691,11.0691,11.0691,11.0691,11.0691,11.0691,11.0691,11.0691,11.0691,11.0691,11.0691,11.0691,11.0691,11.0691,11.0691,11.0691,11.0691,11.0691,11.0691,11.0691,11.0691,11.0691,11.0691,11.0691,11.0691,11.0385,10.9889,10.9889,10.9392,10.8704,10.8704,10.8093,10.729,10.6412,10.6182,10.6106,10.5788,10.5711,10.5711,10.5711,10.5711,10.5711,10.5711,10.5711,10.5711,10.5711,10.5711,10.5711,10.5711,10.5711,10.5711,10.5711,10.5711,10.5711,10.5711,10.5711,10.5711,10.5711,10.5711,10.5711,10.5711,10.5711,10.5711,10.5711,10.5711,10.5711,10.5711,10.5711,10.5711,10.5711,10.5711,10.5711,10.5711,10.5711,10.5711,10.5711,10.5711,10.5711,10.5711,10.5711,10.6106,10.6908,10.6908,10.7405,10.8207,10.7596,10.7214,10.6921,10.6412,10.5991,10.5711,10.5711,10.5711,10.5711,10.5711,10.5711,10.5711,10.5195,10.5901,10.6919,10.8295,10.9192,10.9795,11.0613,11.0691,11.0691,11.0691,11.0691,11.0691,11.0691,11.0691,11.0691,11.0691,11.0691,11.0691,11.0691,11.0691,11.0691,11.0691,11.0691,11.0691,11.0691,11.0691,11.0691,11.0691,11.0691,11.0691,11.0691,11.0691,11.0691,11.0691,11.0691,11.0691,11.0691,11.0691,11.0691,11.0691,11.0691,11.0691,11.0691,11.0691,11.0691,11.0691,11.0691,11.0194,10.9494,10.9379,10.8882,10.8207,10.729,10.6985,10.6908,10.5991,10.5788,10.5788,10.5711,10.5711,10.5711,10.5711,10.5711,10.5711,10.5711,10.5711,10.5711,10.5711,10.5711,10.5711,10.5711,10.5711,10.5711,10.5711,10.5711,10.5711,10.5711,10.5711,10.5711,10.5711,10.5711,10.5711,10.5711,10.5711,10.5711,10.5711,10.5711,10.5711,10.5711,10.5711,10.5711,10.5711,10.5711,10.5711,10.5711,10.5711,10.5711,10.5711,10.58,10.622,10.6985,10.7099,10.7596,10.8398,10.8284,10.7787,10.6985,10.6908,10.6412,10.5711,10.5711,10.5711,10.5711,10.5711,10.5711,10.5711,10.691,10.7497,10.8292,10.9217,10.9485,10.9795,11.0613,11.0691,11.0691,11.0691,11.0691,11.0691,11.0691,11.0691,11.0691,11.0691,11.0691,11.0691,11.0691,11.0691,11.0691,11.0691,11.0691,11.0691,11.0691,11.0691,11.0691,11.0691,11.0691,11.0691,11.0691,11.0691,11.0691,11.0691,11.0691,11.0691,11.0691,11.0691,11.0691,11.0691,11.0691,11.0691,11.0691,11.0691,11.0691,11.0691,11.0691,11.0576,11.0309,10.9608,10.9303,10.8997,10.8207,10.7902,10.7711,10.6908,10.6603,10.6488,10.5915,10.5711,10.5711,10.5711,10.5711,10.5711,10.5711,10.5711,10.5711,10.5711,10.5711,10.5711,10.5711,10.5711,10.5711,10.5711,10.5711,10.5711,10.5711,10.5711,10.5711,10.5711,10.5711,10.5711,10.5711,10.5711,10.5711,10.5711,10.5711,10.5711,10.5711,10.5711,10.5711,10.5711,10.5711,10.5711,10.5711,10.5711,10.5711,10.5711,10.6297,10.7099,10.7902,10.8589,10.9315,11.008,10.9392,10.8704,10.7902,10.7176,10.6412,10.5711,10.5711,10.5711,10.5711,10.5711,10.5711,10.5711,10.7884,10.8497,10.9101,10.9477,10.99,11.0322,11.0614,11.0691,11.0691,11.0691,11.0691,11.0691,11.0691,11.0691,11.0691,11.0691,11.0691,11.0691,11.0691,11.0691,11.0691,11.0691,11.0691,11.0691,11.0691,11.0691,11.0691,11.0691,11.0691,11.0691,11.0691,11.0691,11.0691,11.0691,11.0691,11.0691,11.0691,11.0691,11.0691,11.0691,11.0691,11.0691,11.0691,11.0691,11.0691,11.0691,11.0691,11.0691,11.0614,11.0194,11.0003,10.9889,10.8997,10.8819,10.8589,10.7787,10.7214,10.6794,10.6412,10.5991,10.5711,10.5711,10.5711,10.5711,10.5711,10.5711,10.5711,10.5711,10.5711,10.5711,10.5711,10.5711,10.5711,10.5711,10.5711,10.5711,10.5711,10.5711,10.5711,10.5711,10.5711,10.5711,10.5711,10.5711,10.5711,10.5711,10.5711,10.5711,10.5711,10.5711,10.5711,10.5711,10.5711,10.5711,10.5711,10.5711,10.5711,10.5711,10.6488,10.7405,10.8207,10.8997,10.9889,11.0691,11.0194,10.9506,10.8704,10.7902,10.6985,10.622,10.5788,10.5711,10.5711,10.5711,10.5711,10.5711,10.8702,10.9301,10.9775,10.9775,11.0311,11.0691,11.0691,11.0691,11.0691,11.0691,11.0691,11.0691,11.0691,11.0691,11.0691,11.0691,11.0691,11.0691,11.0691,11.0691,11.0691,11.0691,11.0691,11.0691,11.0691,11.0691,11.0691,11.0691,11.0691,11.0691,11.0691,11.0691,11.0691,11.0691,11.0691,11.0691,11.0691,11.0691,11.0691,11.0691,11.0691,11.0691,11.0691,11.0691,11.0691,11.0691,11.0691,11.0691,11.0691,11.0691,11.0691,11.0576,10.9889,10.9608,10.9506,10.8589,10.7902,10.729,10.7176,10.6488,10.5915,10.5915,10.5788,10.5711,10.5711,10.5711,10.5711,10.5711,10.5711,10.5711,10.5711,10.5711,10.5711,10.5711,10.5711,10.5711,10.5711,10.5711,10.5711,10.5711,10.5711,10.5711,10.5711,10.5711,10.5711,10.5711,10.5711,10.5711,10.5711,10.5711,10.5711,10.5711,10.5711,10.5711,10.5711,10.5711,10.5711,10.5711,10.6679,10.7481,10.8207,10.9201,11.0003,11.0691,11.0691,11.0194,10.9303,10.8513,10.7711,10.6794,10.5991,10.5711,10.5711,10.5711,10.5711,10.5711,10.9493,10.9989,11.0587,11.0587,11.0601,11.0691,11.0691,11.0691,11.0691,11.0691,11.0691,11.0691,11.0691,11.0691,11.0691,11.0691,11.0691,11.0691,11.0691,11.0691,11.0691,11.0691,11.0691,11.0691,11.0691,11.0691,11.0691,11.0691,11.0691,11.0691,11.0691,11.0691,11.0691,11.0691,11.0691,11.0691,11.0691,11.0691,11.0691,11.0691,11.0691,11.0691,11.0691,11.0691,11.0691,11.0691,11.0691,11.0691,11.0691,11.0691,11.0691,11.0691,11.0576,11.05,11.0385,10.9506,10.9201,10.8882,10.8207,10.7405,10.6679,10.6679,10.622,10.5711,10.5711,10.5711,10.5711,10.5711,10.5711,10.5711,10.5711,10.5711,10.5711,10.5711,10.5711,10.5711,10.5711,10.5711,10.5711,10.5711,10.5711,10.5711,10.5711,10.5711,10.5711,10.5711,10.5711,10.5711,10.5711,10.5711,10.5711,10.5711,10.5711,10.5711,10.5711,10.5711,10.5711,10.5711,10.729,10.8093,10.8284,10.9812,11.0576,11.0691,11.0691,11.0194,10.9303,10.8513,10.7711,10.6794,10.5991,10.5711,10.5711,10.5711,10.5711,10.5711,11.0204,11.0496,11.0691,11.0691,11.0691,11.0691,11.0691,11.0691,11.0691,11.0691,11.0691,11.0691,11.0691,11.0691,11.0691,11.0691,11.0691,11.0691,11.0691,11.0691,11.0691,11.0691,11.0691,11.0691,11.0691,11.0691,11.0691,11.0691,11.0691,11.0691,11.0691,11.0691,11.0691,11.0691,11.0691,11.0691,11.0691,11.0691,11.0691,11.0691,11.0691,11.0691,11.0691,11.0691,11.0691,11.0704,11.0818,11.0805,11.0818,11.0892,11.0917,11.0917,11.0917,11.0917,11.0802,11.0495,10.9998,10.9476,10.9109,10.8406,10.7803,10.7808,10.7193,10.659,10.659,10.6207,10.5916,10.5807,10.5811,10.5698,10.5783,10.5811,10.5711,10.5711,10.5711,10.5711,10.5711,10.5711,10.5711,10.5711,10.5711,10.5711,10.5711,10.5711,10.571,10.5795,10.5795,10.5792,10.5889,10.5901,10.5901,10.5901,10.5792,10.5795,10.5795,10.5795,10.5797,10.5711,10.7517,10.832,10.8284,10.9889,11.0691,11.0691,11.0691,11.05,11.0003,10.8704,10.8016,10.7481,10.622,10.5711,10.5711,10.5711,10.5711,10.5711]}]]